[[{"header":{"parameterUnit":"m.s-1","parameterCategory":1,"la1":31.0,"la2":29.5877,"lo1":-88.7671,"lo2":-86.6584,"dy":0.0162,"dx":0.0185,"nx":115,"ny":88,"refTime":"2023-09-21T12:00:00:Z","depth":0,"parameterNumber":2,"parameterNumberName":"U-component_of_WINDS"},"data":[0.0,0.0,0.0,0.0,0.0,0.0,0.0,0.0,0.0,0.0,0.0,0.0,0.0,0.0,0.0,0.0,0.0,0.0,0.0,0.0,0.0,0.0,0.0,0.0,0.0,0.0,0.0,0.0,0.0,0.0,0.0,0.0,0.0,0.0,0.0,0.0,0.0,0.0,0.0,0.0,0.0,0.0,0.0,0.0,0.0,0.0,0.0,0.0,0.0,0.0,0.0,0.0,0.0,0.0,0.0,0.0,0.0,0.0,0.0,0.0,0.0,0.0,0.0,0.0,0.0,0.0,0.0,0.0,0.0,0.0,0.0,0.0,0.0,0.0,0.0,0.0,0.0,0.0,0.0,0.0,0.0,0.0,0.0,0.0,0.0,0.0,0.0,0.0,0.0,0.0,0.0,0.0,0.0,0.0,0.0,0.0,0.0,0.0,0.0,0.0,0.0,0.0,0.0,0.0,0.0,0.0,0.0,0.0,0.0,0.0,0.0,0.0,0.0,0.0,0.0,0.0,0.0,0.0,0.0,0.0,0.0,0.0,0.0,0.0,0.0,0.0,0.0,0.0,0.0,0.0,0.0,0.0,0.0,0.0,0.0,0.0,0.0,0.0,0.0,0.0,0.0,0.0,0.0,0.0,0.0,0.0,0.0,0.0,0.0,0.0,0.0,0.0,0.0,0.0,0.0,0.0,0.0,0.0,0.0,0.0,0.0,0.0,0.0,0.0,0.0,0.0,0.0,0.0,0.0,0.0,0.0,0.0,0.0,0.0,0.0,0.0,0.0,0.0,0.0,0.0,0.0,0.0,0.0,0.0,0.0,0.0,0.0,0.0,0.0,0.0,0.0,0.0,0.0,0.0,0.0,0.0,0.0,0.0,0.0,0.0,0.0,0.0,0.0,0.0,0.0,0.0,0.0,0.0,0.0,0.0,0.0,0.0,0.0,0.0,0.0,0.0,0.0,0.0,0.0,0.0,0.0,0.0,0.0,0.0,0.0,0.0,0.0,0.0,0.0,0.0,0.0,0.0,0.0,0.0,0.0,0.0,0.0,0.0,0.0,0.0,0.0,0.0,0.0,0.0,0.0,0.0,0.0,0.0,0.0,0.0,0.0,0.0,0.0,0.0,0.0,0.0,0.0,0.0,0.0,0.0,0.0,0.0,0.0,0.0,0.0,0.0,0.0,0.0,0.0,0.0,0.0,0.0,0.0,0.0,0.0,0.0,0.0,0.0,0.0,0.0,0.0,0.0,0.0,0.0,0.0,0.0,0.0,0.0,0.0,0.0,0.0,0.0,0.0,0.0,0.0,0.0,0.0,0.0,0.0,0.0,0.0,0.0,0.0,0.0,0.0,0.0,0.0,0.0,0.0,0.0,0.0,0.0,0.0,0.0,0.0,0.0,0.0,0.0,0.0,0.0,0.0,0.0,0.0,0.0,0.0,0.0,0.0,0.0,0.0,0.0,0.0,0.0,0.0,0.0,0.0,0.0,0.0,0.0,0.0,0.0,0.0,0.0,0.0,0.0,0.0,0.0,0.0,0.0,0.0,0.0,0.0,0.0,0.0,0.0,0.0,0.0,0.0,0.0,0.0,0.0,0.0,0.0,0.0,0.0,0.0,0.0,0.0,0.0,0.0,0.0,0.0,0.0,0.0,0.0,0.0,0.0,0.0,0.0,0.0,0.0,0.0,0.0,0.0,0.0,0.0,0.0,0.0,0.0,0.0,0.0,0.0,0.0,0.0,0.0,0.0,0.0,0.0,0.0,0.0,0.0,0.0,0.0,0.0,0.0,0.0,0.0,0.0,0.0,0.0,0.0,0.0,0.0,0.0,0.0,0.0,0.0,0.0,0.0,0.0,0.0,0.0,0.0,0.0,0.0,0.0,0.0,0.0,0.0,0.0,0.0,0.0,0.0,0.0,0.0,0.0,0.0,0.0,0.0,0.0,0.0,0.0,0.0,0.0,0.0,0.0,0.0,0.0,0.0,0.0,0.0,0.0,0.0,0.0,0.0,0.0,0.0,0.0,0.0,0.0,0.0,0.0,0.0,0.0,0.0,0.0,0.0,0.0,0.0,0.0,0.0,0.0,0.0,0.0,0.0,0.0,0.0,0.0,0.0,0.0,0.0,0.0,0.0,0.0,0.0,0.0,0.0,0.0,0.0,0.0,0.0,0.0,0.0,0.0,0.0,0.0,0.0,0.0,0.0,0.0,0.0,0.0,0.0,0.0,0.0,0.0,0.0,0.0,0.0,0.0,0.0,0.0,0.0,0.0,0.0,0.0,0.0,0.0,0.0,0.0,0.0,0.0,0.0,0.0,0.0,0.0,0.0,0.0,0.0,0.0,0.0,0.0,0.0,0.0,0.0,0.0,0.0,0.0,0.0,0.0,0.0,0.0,0.0,0.0,0.0,0.0,0.0,0.0,0.0,0.0,0.0,0.0,0.0,0.0,0.0,0.0,0.0,0.0,0.0,0.0,0.0,0.0,0.0,0.0,0.0,0.0,0.0,0.0,0.0,0.0,0.0,0.0,0.0,0.0,0.0,0.0,0.0,0.0,0.0,0.0,0.0,0.0,0.0,0.0,0.0,0.0,0.0,0.0,0.0,0.0,0.0,0.0,0.0,0.0,0.0,0.0,0.0,0.0,0.0,0.0,0.0,0.0,0.0,0.0,0.0,0.0,0.0,0.0,0.0,0.0,0.0,0.0,0.0,0.0,0.0,0.0,0.0,0.0,0.0,0.0,0.0,0.0,0.0,0.0,0.0,0.0,0.0,0.0,0.0,0.0,0.0,0.0,0.0,0.0,0.0,0.0,0.0,0.0,0.0,0.0,0.0,0.0,0.0,0.0,0.0,0.0,0.0,0.0,0.0,0.0,0.0,0.0,0.0,0.0,0.0,0.0,0.0,0.0,0.0,0.0,0.0,0.0,0.0,0.0,0.0,0.0,0.0,0.0,0.0,0.0,0.0,0.0,0.0,0.0,0.0,0.0,0.0,0.0,0.0,0.0,0.0,0.0,0.0,0.0,0.0,0.0,0.0,0.0,0.0,0.0,0.0,0.0,0.0,0.0,0.0,0.0,0.0,0.0,0.0,0.0,0.0,0.0,0.0,0.0,0.0,0.0,0.0,0.0,0.0,0.0,0.0,0.0,0.0,0.0,0.0,0.0,0.0,0.0,0.0,0.0,0.0,0.0,0.0,0.0,0.0,0.0,0.0,0.0,0.0,0.0,0.0,0.0,0.0,0.0,0.0,0.0,0.0,0.0,0.0,0.0,0.0,0.0,0.0,0.0,0.0,0.0,0.0,0.0,0.0,0.0,0.0,0.0,0.0,0.0,0.0,0.0,0.0,0.0,0.0,0.0,0.0,0.0,0.0,0.0,0.0,0.0,0.0,0.0,0.0,0.0,0.0,0.0,0.0,0.0,0.0,0.0,0.0,0.0,0.0,0.0,0.0,0.0,0.0,0.0,0.0,0.0,0.0,0.0,0.0,0.0,0.0,0.0,0.0,0.0,0.0,0.0,0.0,0.0,0.0,0.0,0.0,0.0,0.0,0.0,0.0,0.0,0.0,0.0,0.0,0.0,0.0,0.0,0.0,0.0,0.0,0.0,0.0,0.0,0.0,0.0,0.0,0.0,0.0,0.0,0.0,0.0,0.0,0.0,0.0,0.0,0.0,0.0,0.0,0.0,0.0,0.0,0.0,0.0,0.0,0.0,0.0,0.0,0.0,0.0,0.0,0.0,0.0,0.0,0.0,0.0,0.0,0.0,0.0,0.0,0.0,0.0,0.0,0.0,0.0,0.0,0.0,0.0,0.0,0.0,0.0,0.0,0.0,0.0,0.0,0.0,0.0,0.0,0.0,0.0,0.0,0.0,0.0,0.0,0.0,0.0,0.0,0.0,0.0,0.0,0.0,0.0,0.0,0.0,0.0,0.0,0.0,0.0,0.0,0.0,0.0,0.0,0.0,0.0,0.0,0.0,0.0,0.0,0.0,0.0,0.0,0.0,0.0,0.0,0.0,0.0,0.0,0.0,0.0,0.0,0.0,0.0,0.0,0.0,0.0,0.0,0.0,0.0,0.0,0.0,0.0,0.0,0.0,0.0,0.0,0.0,0.0,0.0,0.0,0.0,0.0,0.0,0.0,0.0,0.0,0.0,0.0,0.0,0.0,0.0,0.0,0.0,0.0,0.0,0.0,0.0,0.0,0.0,0.0,0.0,0.0,0.0,0.0,0.0,0.0,0.0,0.0,0.0,0.0,0.0,0.0,0.0,0.0,1.2126,0.0,0.0,0.0,0.0,0.0,0.0,0.0,0.0,0.0,0.0,0.0,0.0,0.0,0.0,0.0,0.0,0.0,0.0,0.0,0.0,0.0,0.0,0.0,0.0,0.0,0.0,0.0,0.0,0.0,0.0,0.0,0.0,0.0,0.0,0.0,0.0,0.0,0.0,0.0,0.0,0.0,0.0,0.0,0.0,0.0,0.0,0.0,0.0,0.0,0.0,0.0,0.0,0.0,0.0,0.0,0.0,0.0,0.0,0.0,0.0,0.0,0.0,0.0,0.0,0.0,0.0,0.0,0.0,0.0,0.0,0.0,0.0,0.0,0.0,0.0,0.0,0.0,0.0,0.0,0.0,0.0,0.0,0.0,0.0,0.0,0.0,0.0,0.0,0.0,0.0,0.0,0.0,0.0,0.0,0.0,0.0,0.0,0.0,0.0,0.0,0.0,0.0,0.0,0.0,0.0,0.0,0.0,0.0,0.0,0.0,1.3333,1.4191,1.2922,1.2407,1.2838,0.0,0.0,0.0,0.0,0.0,0.0,0.0,0.0,0.0,0.0,0.0,0.0,0.0,0.0,0.0,0.0,0.0,0.0,0.0,0.0,0.0,0.0,0.0,0.0,0.0,0.0,0.0,0.0,0.0,0.0,0.0,0.0,0.0,0.0,0.0,0.0,0.0,0.0,0.0,0.0,0.0,0.0,0.0,0.0,0.0,0.0,0.0,0.0,0.0,0.0,0.0,0.0,0.0,0.0,0.0,0.0,0.0,0.0,0.0,0.0,0.0,0.0,0.0,0.0,0.0,0.0,0.0,0.0,0.0,0.0,0.0,0.0,0.0,0.0,0.0,0.0,0.0,0.0,0.0,0.0,0.0,0.0,0.0,0.0,0.0,0.0,0.0,0.0,0.0,0.0,0.0,0.0,0.0,0.0,0.0,0.0,0.0,0.0,0.0,0.0,0.0,0.0,0.0,0.0,0.0,0.0,0.0,0.0,0.0,0.0,0.0,0.0,1.373,1.3304,1.3966,0.0,0.0,0.0,0.0,0.0,0.0,0.0,0.0,0.0,0.0,0.0,0.0,0.0,0.0,0.0,0.0,0.0,0.0,0.0,0.0,0.0,0.0,0.0,0.0,0.0,0.0,0.0,0.0,0.0,0.0,0.0,0.0,0.0,0.0,0.0,0.0,0.0,0.0,0.0,0.0,0.0,0.0,0.0,0.0,0.0,0.0,0.0,0.0,0.0,0.0,0.0,0.0,0.0,0.0,0.0,0.0,0.0,0.0,0.0,0.0,0.0,0.0,0.0,0.0,0.0,0.0,0.0,0.0,0.0,0.0,0.0,0.0,0.0,0.0,0.0,0.0,0.0,0.0,0.0,0.0,0.0,0.0,0.0,0.0,0.0,0.0,0.0,0.0,0.0,0.0,0.0,0.0,0.0,0.0,0.0,0.0,0.0,0.0,0.0,0.0,0.0,0.0,0.0,0.0,0.0,0.0,0.0,0.0,0.0,0.0,1.4921,1.5597,1.5444,0.0,1.5453,0.0,0.0,0.0,0.0,0.0,0.0,0.0,0.0,0.0,0.0,0.0,0.0,0.0,0.0,0.0,0.0,0.0,0.0,0.0,0.0,0.0,0.0,0.0,0.0,0.0,0.0,0.0,0.0,0.0,0.0,0.0,0.0,0.0,0.0,0.0,0.0,0.0,0.0,0.0,0.0,0.0,0.0,0.0,0.0,0.0,0.0,0.0,0.0,0.0,0.0,0.0,0.0,0.0,0.0,0.0,0.0,0.0,0.0,0.0,0.0,0.0,0.0,0.0,0.0,0.0,0.0,0.0,0.0,0.0,0.0,0.0,0.0,0.0,0.0,0.0,0.0,0.0,0.0,0.0,0.0,0.0,0.0,0.0,0.0,0.0,0.0,0.0,0.0,0.0,0.0,0.0,0.0,0.0,0.0,0.0,0.0,0.0,0.0,0.0,0.0,0.0,0.0,0.0,0.0,0.0,0.0,0.0,0.0,0.0,0.0,1.5027,1.5677,1.5692,1.5475,0.0,0.0,0.0,0.0,0.0,0.0,0.0,0.0,0.0,0.0,0.0,0.0,0.0,0.0,0.0,0.0,0.0,0.0,0.0,0.0,0.0,0.0,0.0,0.0,0.0,0.0,0.0,0.0,0.0,0.0,0.0,0.0,0.0,0.0,0.0,0.0,0.0,0.0,0.0,0.0,0.0,0.0,0.0,0.0,0.0,0.0,0.0,0.0,0.0,0.0,0.0,0.0,0.0,0.0,0.0,0.0,0.0,0.0,0.0,0.0,0.0,0.0,0.0,0.0,0.0,0.0,0.0,0.0,0.0,0.0,0.0,0.0,0.0,0.0,0.0,0.0,0.0,0.0,0.0,0.0,0.0,0.0,0.0,0.0,0.0,0.0,0.0,0.0,0.0,0.0,0.0,0.0,0.0,0.0,0.0,0.0,0.0,0.0,0.0,0.0,0.0,0.0,0.0,0.0,0.0,0.0,0.0,0.0,0.0,0.0,1.5053,1.5353,1.5955,1.5597,1.5197,1.4842,0.0,0.0,0.0,0.0,0.0,0.0,0.0,0.0,0.0,0.0,0.0,0.0,0.0,0.0,0.0,0.0,0.0,0.0,0.0,0.0,0.0,0.0,0.0,0.0,0.0,0.0,0.0,0.0,0.0,0.0,0.0,0.0,0.0,0.0,0.0,0.0,0.0,0.0,0.0,0.0,0.0,0.0,0.0,0.0,0.0,0.0,0.0,0.0,0.0,0.0,0.0,0.0,0.0,0.0,0.0,0.0,0.0,0.0,0.0,0.0,0.0,0.0,0.0,0.0,0.0,0.0,0.0,0.0,0.0,0.0,0.0,0.0,0.0,0.0,0.0,0.0,0.0,0.0,0.0,0.0,0.0,0.0,0.0,0.0,0.0,0.0,0.0,0.0,0.0,0.0,0.0,0.0,0.0,0.0,0.0,0.0,0.0,0.0,0.0,0.0,0.0,0.0,0.0,0.0,0.0,0.0,0.0,0.0,1.5974,1.5881,1.6164,1.6772,1.535,1.4903,0.0,0.0,0.0,0.0,0.0,0.0,0.0,0.0,0.0,0.0,0.0,0.0,0.0,0.0,0.0,0.0,0.0,0.0,0.0,0.0,0.0,0.0,0.0,0.0,0.0,0.0,0.0,0.0,0.0,0.0,0.0,0.0,0.0,0.0,0.0,0.0,0.0,0.0,0.0,0.0,0.0,0.0,0.0,0.0,0.0,0.0,0.0,0.0,0.0,0.0,0.0,0.0,0.0,0.0,0.0,0.0,0.0,0.0,0.0,0.0,0.0,0.0,0.0,0.0,0.0,0.0,0.0,0.0,0.0,0.0,0.0,0.0,0.0,0.0,0.0,0.0,0.0,0.0,0.0,0.0,0.0,0.0,0.0,0.0,0.0,0.0,0.0,0.0,0.0,0.0,0.0,0.0,0.0,0.0,0.0,0.0,0.0,0.0,0.0,0.0,0.0,0.0,0.0,0.0,0.0,0.0,0.0,0.0,0.0,1.5402,1.5741,1.5963,1.6099,1.5451,1.5213,0.0,0.0,0.0,0.0,0.0,0.0,0.0,0.0,0.0,0.0,0.0,0.0,0.0,0.0,0.0,0.0,0.0,0.0,0.0,0.0,0.0,0.0,0.0,0.0,0.0,0.0,0.0,0.0,0.0,0.0,0.0,0.0,0.0,0.0,0.0,0.0,0.0,0.0,0.0,0.0,0.0,0.0,0.0,0.0,0.0,0.0,0.0,0.0,0.0,0.0,0.0,0.0,0.0,0.0,0.0,0.0,0.0,0.0,0.0,0.0,0.0,0.0,0.0,0.0,0.0,0.0,0.0,0.0,0.0,0.0,0.0,0.0,0.0,0.0,0.0,0.0,0.0,0.0,0.0,0.0,0.0,0.0,0.0,0.0,0.0,0.0,0.0,0.0,0.0,0.0,0.0,0.0,0.0,0.0,0.0,0.0,0.0,0.0,0.0,0.0,0.0,0.0,0.0,0.0,0.0,0.0,0.0,0.0,0.0,1.5227,0.0,1.5537,1.5683,1.5243,1.4994,0.0,0.0,0.0,0.0,0.0,0.0,0.0,0.0,0.0,0.0,0.0,0.0,0.0,0.0,0.0,0.0,0.0,0.0,0.0,0.0,0.0,0.0,0.0,0.0,0.0,0.0,0.0,0.0,0.0,0.0,0.0,0.0,0.0,0.0,0.0,0.0,0.0,0.0,0.0,0.0,0.0,0.0,0.0,0.0,0.0,0.0,0.0,0.0,0.0,0.0,0.0,0.0,0.0,0.0,0.0,0.0,0.0,0.0,0.0,0.0,0.0,0.0,0.0,0.0,0.0,0.0,0.0,0.0,0.0,0.0,0.0,0.0,0.0,0.0,0.0,0.0,0.0,0.0,0.0,0.0,0.0,0.0,0.0,0.0,0.0,0.0,0.0,0.0,0.0,0.0,0.0,0.0,0.0,0.0,0.0,0.0,0.0,0.0,0.0,0.0,0.0,0.0,0.0,0.0,0.0,0.0,0.0,0.0,1.5135,1.5631,1.4954,1.5001,1.5649,1.4773,1.4239,0.0,0.0,0.0,0.0,0.0,0.0,0.0,0.0,0.0,0.0,0.0,0.0,0.0,0.0,0.0,0.0,0.0,0.0,0.0,0.0,0.0,0.0,0.0,0.0,0.0,0.0,0.0,0.0,0.0,0.0,0.0,0.0,0.0,0.0,0.0,0.0,0.0,0.0,0.0,0.0,0.0,0.0,0.0,0.0,0.0,0.0,0.0,0.0,0.0,0.0,0.0,0.0,0.0,0.0,0.0,0.0,0.0,0.0,0.0,0.0,0.0,0.0,0.0,0.0,0.0,0.0,0.0,0.0,0.0,0.0,0.0,0.0,0.0,0.0,0.0,0.0,0.0,0.0,0.0,0.0,0.0,0.0,0.0,0.0,0.0,0.0,0.0,0.0,0.0,0.0,0.0,0.0,0.0,0.0,0.0,0.0,0.0,0.0,0.0,0.0,0.0,0.0,0.0,0.0,0.0,0.0,0.0,0.0,0.0,1.5789,1.558,1.598,1.6972,1.5078,1.4452,0.0,0.0,0.0,0.0,0.0,0.0,0.0,0.0,0.0,0.0,0.0,0.0,0.0,0.0,0.0,0.0,0.0,0.0,0.0,0.0,0.0,0.0,0.0,0.0,0.0,0.0,0.0,0.0,0.0,0.0,0.0,0.0,0.0,0.0,0.0,0.0,0.0,0.0,0.0,0.0,0.0,0.0,0.0,0.0,0.0,0.0,0.0,0.0,0.0,0.0,0.0,0.0,0.0,0.0,0.0,0.0,0.0,0.0,0.0,0.0,0.0,0.0,0.0,0.0,0.0,0.0,0.0,0.0,0.0,0.0,0.0,0.0,0.0,0.0,0.0,0.0,0.0,0.0,0.0,0.0,0.0,0.0,0.0,0.0,0.0,0.0,0.0,0.0,0.0,0.0,0.0,0.0,0.0,0.0,0.0,0.0,0.0,0.0,0.0,0.0,0.0,0.0,0.0,0.0,0.0,0.0,0.0,0.0,0.0,1.6691,1.6426,1.6783,1.7822,1.6155,1.5516,1.6046,0.0,0.0,0.0,0.0,0.0,0.0,0.0,0.0,0.0,0.0,0.0,0.0,0.0,0.0,0.0,0.0,0.0,0.0,0.0,0.0,0.0,0.0,0.0,0.0,0.0,0.0,0.0,0.0,0.0,0.0,0.0,0.0,0.0,0.0,0.0,0.0,0.0,0.0,0.0,0.0,0.0,0.0,0.0,0.0,0.0,0.0,0.0,0.0,0.0,0.0,0.0,0.0,0.0,0.0,0.0,0.0,0.0,0.0,0.0,0.0,0.0,0.0,0.0,0.0,0.0,0.0,0.0,0.0,0.0,0.0,0.0,0.0,0.0,0.0,0.0,0.0,0.0,0.0,0.0,0.0,0.0,0.0,0.0,0.0,0.0,0.0,0.0,0.0,0.0,0.0,0.0,0.0,0.0,0.0,0.0,0.0,0.0,0.0,0.0,0.0,0.0,0.0,0.0,0.0,0.0,0.0,0.0,0.0,1.824,1.7554,1.7528,1.8192,1.7741,1.7138,0.0,0.0,0.0,0.0,0.0,0.0,0.0,0.0,0.0,0.0,0.0,0.0,0.0,0.0,0.0,0.0,0.0,0.0,0.0,0.0,0.0,0.0,0.0,0.0,0.0,0.0,0.0,0.0,0.0,0.0,0.0,0.0,0.0,0.0,0.0,0.0,0.0,0.0,0.0,0.0,0.0,0.0,0.0,0.0,0.0,0.0,0.0,0.0,0.0,0.0,0.0,0.0,0.0,0.0,0.0,0.0,0.0,0.0,0.0,0.0,0.0,0.0,0.0,0.0,0.0,0.0,0.0,0.0,0.0,0.0,0.0,0.0,0.0,0.0,0.0,0.0,0.0,0.0,0.0,0.0,0.0,0.0,0.0,0.0,0.0,0.0,0.0,0.0,0.0,0.0,0.0,0.0,0.0,0.0,0.0,0.0,0.0,0.0,0.0,0.0,0.0,0.0,0.0,0.0,0.0,0.0,0.0,0.0,0.0,1.9836,2.0303,2.0225,1.9646,1.8243,1.7312,0.0,0.0,0.0,0.0,0.0,0.0,0.0,0.0,0.0,0.0,0.0,0.0,0.0,0.0,0.0,0.0,0.0,0.0,0.0,0.0,0.0,0.0,0.0,0.0,0.0,0.0,0.0,0.0,0.0,0.0,0.0,0.0,0.0,0.0,0.0,0.0,0.0,0.0,0.0,0.0,0.0,0.0,0.0,0.0,0.0,0.0,0.0,0.0,0.0,0.0,0.0,0.0,0.0,0.0,0.0,0.0,0.0,0.0,0.0,0.0,0.0,0.0,0.0,0.0,0.0,0.0,0.0,0.0,0.0,0.0,0.0,0.0,0.0,0.0,0.0,0.0,0.0,0.0,0.0,0.0,0.0,0.0,0.0,0.0,0.0,0.0,0.0,0.0,0.0,0.0,0.0,0.0,0.0,0.0,0.0,0.0,0.0,0.0,0.0,0.0,0.0,0.0,0.0,0.0,0.0,0.0,0.0,0.0,1.9506,2.0333,2.2126,2.2378,2.1003,1.9971,1.8981,0.0,0.0,0.0,0.0,0.0,0.0,0.0,0.0,0.0,0.0,0.0,0.0,0.0,0.0,0.0,0.0,0.0,0.0,0.0,0.0,0.0,0.0,0.0,0.0,0.0,0.0,0.0,0.0,0.0,0.0,0.0,0.0,0.0,0.0,0.0,0.0,0.0,0.0,0.0,0.0,0.0,0.0,0.0,0.0,0.0,0.0,0.0,0.0,0.0,0.0,0.0,0.0,0.0,0.0,0.0,0.0,0.0,0.0,0.0,0.0,0.0,0.0,0.0,0.0,0.0,0.0,0.0,0.0,0.0,0.0,0.0,0.0,0.0,0.0,0.0,0.0,0.0,0.0,0.0,0.0,0.0,0.0,0.0,0.0,0.0,0.0,0.0,0.0,0.0,0.0,0.0,0.0,0.0,0.0,0.0,0.0,0.0,0.0,0.0,0.0,0.0,0.0,0.0,0.0,0.0,0.0,0.0,0.0,2.0458,2.0389,2.3196,2.389,2.23,2.2187,2.1292,0.0,0.0,0.0,0.0,0.0,0.0,0.0,0.0,0.0,0.0,0.0,0.0,0.0,0.0,0.0,0.0,0.0,0.0,0.0,0.0,0.0,0.0,0.0,0.0,0.0,0.0,0.0,0.0,0.0,0.0,0.0,0.0,0.0,0.0,0.0,0.0,0.0,0.0,0.0,0.0,0.0,0.0,0.0,0.0,0.0,0.0,0.0,0.0,0.0,0.0,0.0,0.0,0.0,0.0,0.0,0.0,0.0,0.0,0.0,0.0,0.0,0.0,0.0,0.0,0.0,0.0,0.0,0.0,0.0,0.0,0.0,0.0,0.0,0.0,0.0,0.0,0.0,0.0,0.0,0.0,0.0,0.0,0.0,0.0,0.0,0.0,0.0,0.0,0.0,0.0,0.0,0.0,0.0,0.0,0.0,0.0,0.0,0.0,0.0,0.0,0.0,0.0,0.0,0.0,0.0,0.0,0.0,0.0,2.0983,2.1989,2.3256,2.3814,2.3593,2.2921,2.1797,0.0,0.0,0.0,0.0,0.0,0.0,0.0,0.0,0.0,0.0,0.0,0.0,0.0,0.0,0.0,0.0,0.0,0.0,0.0,0.0,0.0,0.0,0.0,0.0,0.0,0.0,0.0,0.0,0.0,0.0,0.0,0.0,0.0,0.0,0.0,0.0,0.0,0.0,0.0,0.0,0.0,0.0,0.0,0.0,0.0,0.0,0.0,0.0,1.445,0.0,0.0,0.0,0.0,0.0,0.0,0.0,0.0,0.0,0.0,0.0,0.0,0.0,0.0,0.0,0.0,0.0,0.0,0.0,0.0,0.0,0.0,0.0,0.0,0.0,0.0,0.0,0.0,0.0,0.0,0.0,0.0,0.0,0.0,0.0,0.0,0.0,0.0,0.0,0.0,0.0,0.0,0.0,0.0,0.0,0.0,0.0,0.0,0.0,0.0,0.0,0.0,0.0,0.0,0.0,0.0,0.0,0.0,0.0,2.1119,2.2032,2.3189,2.3616,2.3216,2.2875,2.1996,0.0,0.0,0.0,0.0,0.0,0.0,0.0,0.0,0.0,0.0,0.0,0.0,0.0,0.0,0.0,0.0,0.0,0.0,0.0,0.0,0.0,0.0,0.0,0.0,0.0,0.0,0.0,0.0,0.0,0.0,0.0,0.0,0.0,0.0,0.0,0.0,0.0,0.0,0.0,0.0,0.0,0.0,0.0,0.0,0.0,0.0,0.0,0.0,0.0,0.0,0.0,0.0,0.0,0.0,0.0,0.0,0.0,0.0,0.0,0.0,0.0,0.0,0.0,0.0,0.0,0.0,0.0,0.0,0.0,0.0,0.0,0.0,0.0,0.0,0.0,0.0,0.0,0.0,0.0,0.0,0.0,0.0,0.0,0.0,0.0,0.0,0.0,0.0,0.0,0.0,0.0,0.0,0.0,0.0,0.0,0.0,0.0,0.0,0.0,0.0,0.0,0.0,0.0,0.0,0.0,0.0,0.0,2.0741,2.1147,2.1716,2.3009,2.323,2.2225,2.2405,2.1895,2.0533,0.0,0.0,0.0,0.0,0.0,0.0,0.0,0.0,0.0,0.0,0.0,0.0,0.0,0.0,0.0,0.0,0.0,0.0,0.0,0.0,0.0,0.0,0.0,0.0,0.0,0.0,0.0,0.0,0.0,0.0,0.0,0.0,0.0,0.0,0.0,0.0,0.0,0.0,1.5185,1.555,0.0,0.0,0.0,0.0,0.0,0.0,0.0,0.0,1.5597,0.0,0.0,0.0,0.0,0.0,0.0,0.0,0.0,0.0,0.0,0.0,0.0,0.0,0.0,0.0,0.0,0.0,0.0,0.0,0.0,0.0,0.0,0.0,0.0,0.0,0.0,0.0,0.0,0.0,0.0,0.0,0.0,0.0,0.0,0.0,0.0,0.0,0.0,0.0,0.0,0.0,0.0,0.0,0.0,0.0,0.0,0.0,0.0,0.0,0.0,0.0,0.0,0.0,0.0,0.0,0.0,2.2046,2.1267,2.1364,2.247,2.2764,2.2521,2.1764,2.1766,2.1315,2.0395,0.0,0.0,0.0,0.0,0.0,0.0,0.0,0.0,0.0,0.0,0.0,0.0,0.0,0.0,0.0,0.0,0.0,0.0,0.0,0.0,0.0,0.0,0.0,0.0,0.0,0.0,0.0,0.0,0.0,0.0,0.0,0.0,0.0,0.0,0.0,0.0,0.0,0.0,0.0,1.6553,1.6949,0.0,0.0,0.0,0.0,0.0,0.0,0.0,0.0,1.5378,0.0,0.0,0.0,0.0,0.0,0.0,0.0,0.0,0.0,0.0,0.0,0.0,0.0,0.0,0.0,0.0,0.0,0.0,0.0,0.0,0.0,0.0,0.0,0.0,0.0,0.0,0.0,0.0,0.0,0.0,0.0,0.0,0.0,0.0,0.0,0.0,0.0,0.0,0.0,0.0,0.0,0.0,0.0,0.0,0.0,0.0,0.0,0.0,0.0,0.0,0.0,0.0,0.0,0.0,0.0,2.2335,2.1138,2.0967,2.2093,2.213,2.1876,2.129,2.0748,2.04,0.0,0.0,0.0,0.0,0.0,0.0,0.0,0.0,0.0,0.0,0.0,0.0,0.0,0.0,0.0,0.0,0.0,0.0,0.0,0.0,0.0,0.0,0.0,0.0,0.0,0.0,0.0,0.0,0.0,0.0,0.0,0.0,0.0,0.0,0.0,0.0,0.0,0.0,0.0,0.0,1.7186,1.7245,1.7539,0.0,0.0,0.0,0.0,0.0,0.0,1.7804,1.6992,0.0,0.0,0.0,0.0,0.0,0.0,0.0,0.0,0.0,0.0,0.0,0.0,0.0,0.0,0.0,0.0,0.0,0.0,0.0,0.0,0.0,0.0,0.0,0.0,0.0,0.0,0.0,0.0,0.0,0.0,0.0,0.0,0.0,0.0,0.0,0.0,0.0,0.0,0.0,0.0,0.0,0.0,0.0,0.0,0.0,0.0,0.0,0.0,0.0,0.0,0.0,0.0,0.0,0.0,0.0,2.255,2.1263,2.0944,2.1754,2.1719,2.1486,2.1061,2.0102,1.9762,0.0,0.0,0.0,0.0,0.0,0.0,0.0,0.0,0.0,0.0,0.0,0.0,0.0,0.0,0.0,0.0,0.0,0.0,0.0,0.0,0.0,0.0,0.0,0.0,0.0,0.0,0.0,0.0,0.0,0.0,0.0,0.0,0.0,0.0,0.0,0.0,0.0,0.0,0.0,0.0,0.0,1.8075,1.8943,1.8382,0.0,0.0,0.0,0.0,2.0126,1.9366,0.0,0.0,0.0,0.0,0.0,0.0,0.0,0.0,0.0,0.0,0.0,0.0,0.0,0.0,0.0,0.0,0.0,0.0,0.0,0.0,0.0,0.0,0.0,0.0,0.0,0.0,0.0,0.0,0.0,0.0,0.0,0.0,0.0,0.0,0.0,0.0,0.0,0.0,0.0,0.0,0.0,0.0,0.0,0.0,0.0,0.0,0.0,0.0,0.0,0.0,0.0,0.0,0.0,0.0,0.0,0.0,2.2635,2.2446,2.2347,2.2456,2.2142,2.1741,2.1268,2.0579,2.008,0.0,0.0,0.0,0.0,0.0,0.0,0.0,0.0,0.0,0.0,0.0,0.0,0.0,0.0,0.0,0.0,0.0,0.0,0.0,0.0,0.0,0.0,0.0,0.0,0.0,0.0,0.0,0.0,0.0,0.0,0.0,0.0,0.0,0.0,0.0,0.0,0.0,0.0,0.0,0.0,0.0,2.0418,2.0606,2.0537,2.0337,0.0,0.0,2.0153,2.0936,2.0302,0.0,0.0,0.0,0.0,0.0,0.0,0.0,0.0,0.0,0.0,0.0,0.0,0.0,0.0,0.0,0.0,0.0,0.0,0.0,0.0,0.0,0.0,0.0,0.0,0.0,0.0,0.0,0.0,0.0,0.0,0.0,0.0,0.0,0.0,0.0,0.0,0.0,0.0,0.0,0.0,0.0,0.0,0.0,0.0,0.0,0.0,0.0,0.0,0.0,0.0,0.0,0.0,0.0,0.0,0.0,2.111,2.2033,2.2007,2.194,2.1856,2.169,2.1406,2.098,1.9938,1.9496,0.0,0.0,0.0,0.0,0.0,0.0,0.0,0.0,0.0,0.0,0.0,0.0,0.0,0.0,0.0,0.0,0.0,0.0,0.0,0.0,0.0,0.0,0.0,0.0,0.0,0.0,0.0,0.0,0.0,0.0,0.0,0.0,0.0,0.0,0.0,0.0,0.0,0.0,0.0,0.0,0.0,0.0,2.0852,2.0756,0.0,0.0,0.0,2.143,2.1762,0.0,0.0,0.0,0.0,0.0,0.0,0.0,0.0,0.0,0.0,0.0,0.0,0.0,0.0,0.0,0.0,0.0,0.0,0.0,0.0,0.0,0.0,0.0,0.0,0.0,0.0,0.0,0.0,0.0,0.0,0.0,0.0,0.0,0.0,0.0,0.0,0.0,0.0,0.0,0.0,0.0,0.0,0.0,0.0,0.0,0.0,0.0,0.0,0.0,0.0,0.0,0.0,0.0,0.0,0.0,0.0,0.0,2.142,2.1632,2.1571,2.1306,2.1362,2.1179,2.0692,1.957,0.0,0.0,0.0,0.0,0.0,0.0,0.0,0.0,0.0,0.0,0.0,0.0,0.0,0.0,0.0,0.0,0.0,0.0,0.0,0.0,0.0,0.0,0.0,0.0,0.0,0.0,0.0,1.5317,0.0,0.0,0.0,0.0,0.0,0.0,0.0,0.0,0.0,0.0,0.0,0.0,0.0,0.0,2.0964,2.1306,2.1307,2.1379,0.0,0.0,2.2847,2.2852,2.2728,2.2416,0.0,0.0,0.0,0.0,0.0,0.0,0.0,0.0,0.0,0.0,0.0,0.0,0.0,0.0,0.0,0.0,0.0,0.0,0.0,0.0,0.0,0.0,0.0,0.0,0.0,0.0,0.0,0.0,0.0,0.0,0.0,0.0,0.0,0.0,0.0,0.0,0.0,0.0,0.0,0.0,0.0,0.0,0.0,0.0,0.0,0.0,0.0,0.0,0.0,0.0,0.0,0.0,0.0,0.0,2.1347,2.1079,2.1826,2.1941,2.1338,2.154,2.136,2.0718,2.0013,1.9663,0.0,0.0,0.0,0.0,0.0,0.0,0.0,0.0,0.0,0.0,0.0,0.0,0.0,0.0,0.0,0.0,0.0,0.0,0.0,0.0,0.0,0.0,0.0,0.0,0.0,0.0,0.0,0.0,0.0,0.0,0.0,0.0,0.0,0.0,0.0,0.0,0.0,0.0,0.0,0.0,0.0,2.2393,2.2565,2.3197,2.3571,0.0,2.3885,2.4335,2.4345,2.3941,2.3391,2.2712,0.0,0.0,0.0,0.0,0.0,0.0,0.0,0.0,0.0,0.0,0.0,0.0,0.0,0.0,0.0,0.0,0.0,0.0,0.0,0.0,0.0,0.0,0.0,0.0,0.0,0.0,0.0,0.0,0.0,0.0,0.0,0.0,0.0,0.0,0.0,0.0,0.0,0.0,0.0,0.0,0.0,0.0,0.0,0.0,0.0,0.0,0.0,0.0,0.0,0.0,0.0,0.0,0.0,2.1275,2.0575,2.1297,2.1649,2.155,2.1643,2.1769,2.1944,2.0872,2.0318,0.0,0.0,0.0,0.0,0.0,0.0,0.0,0.0,0.0,0.0,0.0,0.0,0.0,0.0,0.0,0.0,0.0,0.0,0.0,0.0,0.0,0.0,0.0,0.0,0.0,0.0,0.0,0.0,1.6981,1.7278,1.7449,0.0,0.0,0.0,0.0,0.0,0.0,0.0,0.0,0.0,0.0,2.2975,2.3977,2.4199,0.0,0.0,2.4704,2.5018,2.4573,2.4431,2.4108,2.3257,2.2293,0.0,0.0,0.0,0.0,0.0,0.0,0.0,0.0,0.0,0.0,0.0,0.0,0.0,0.0,0.0,0.0,0.0,0.0,0.0,0.0,0.0,0.0,0.0,0.0,0.0,0.0,0.0,0.0,0.0,0.0,0.0,0.0,0.0,0.0,0.0,0.0,0.0,0.0,0.0,0.0,0.0,0.0,0.0,0.0,0.0,0.0,0.0,0.0,0.0,0.0,0.0,0.0,2.0854,2.0141,2.0989,2.1434,2.1395,2.1784,2.2124,2.2358,2.1296,2.0688,0.0,0.0,0.0,0.0,0.0,0.0,0.0,0.0,0.0,0.0,0.0,0.0,0.0,0.0,0.0,0.0,0.0,0.0,0.0,0.0,0.0,0.0,0.0,0.0,0.0,0.0,0.0,0.0,1.7826,1.8196,1.8786,0.0,0.0,0.0,0.0,0.0,0.0,0.0,0.0,0.0,0.0,2.3484,2.4674,2.4821,2.4821,2.4829,2.5439,2.5712,2.5042,2.4863,2.4469,2.3547,0.0,0.0,0.0,0.0,0.0,0.0,0.0,0.0,0.0,0.0,0.0,0.0,0.0,0.0,0.0,0.0,0.0,0.0,0.0,0.0,0.0,0.0,0.0,0.0,0.0,0.0,0.0,1.6778,0.0,0.0,1.7817,0.0,0.0,0.0,0.0,0.0,0.0,0.0,0.0,0.0,0.0,0.0,0.0,0.0,0.0,0.0,0.0,0.0,0.0,0.0,0.0,0.0,0.0,2.0156,1.9759,2.103,2.139,2.0798,2.1989,2.2363,2.1774,2.1062,2.0688,2.0673,0.0,0.0,0.0,0.0,0.0,0.0,0.0,0.0,0.0,0.0,0.0,0.0,0.0,0.0,0.0,0.0,0.0,0.0,0.0,0.0,0.0,0.0,0.0,0.0,0.0,0.0,1.9962,1.9585,1.952,0.0,0.0,0.0,0.0,0.0,0.0,0.0,0.0,0.0,2.2295,2.3227,2.4032,2.4499,2.5143,2.5559,2.5567,2.6167,2.6488,2.5986,2.5301,2.4482,0.0,0.0,0.0,0.0,0.0,0.0,0.0,0.0,0.0,0.0,0.0,0.0,0.0,0.0,0.0,0.0,0.0,0.0,0.0,0.0,0.0,0.0,0.0,0.0,0.0,0.0,0.0,1.9129,1.8915,0.0,0.0,0.0,0.0,0.0,0.0,0.0,0.0,0.0,0.0,0.0,2.0624,2.1248,0.0,0.0,0.0,0.0,0.0,0.0,0.0,0.0,0.0,0.0,0.0,0.0,2.0769,2.0427,2.1246,2.1594,2.138,2.1803,2.2145,2.2349,2.1278,2.0499,2.003,0.0,0.0,0.0,0.0,0.0,0.0,0.0,0.0,0.0,0.0,0.0,0.0,0.0,0.0,0.0,0.0,0.0,0.0,0.0,0.0,0.0,0.0,0.0,0.0,0.0,1.9974,0.0,0.0,0.0,0.0,0.0,0.0,0.0,0.0,0.0,0.0,2.1385,2.2477,2.3618,2.4498,2.5259,2.5878,2.5899,2.5861,0.0,0.0,0.0,0.0,0.0,0.0,0.0,0.0,0.0,0.0,0.0,0.0,0.0,0.0,2.2144,2.1632,2.11,2.0579,2.0094,0.0,0.0,0.0,0.0,0.0,0.0,0.0,0.0,0.0,0.0,0.0,0.0,0.0,0.0,1.9913,2.0104,1.9731,0.0,0.0,0.0,0.0,0.0,0.0,0.0,0.0,2.1107,2.1543,2.1658,2.2216,2.2356,2.2102,2.1967,2.1382,0.0,0.0,0.0,0.0,0.0,0.0,0.0,0.0,2.0732,2.073,2.1354,2.1697,2.1711,2.193,2.2154,2.2317,2.1308,2.0427,1.9795,1.9727,1.9623,0.0,0.0,0.0,0.0,0.0,0.0,0.0,0.0,0.0,0.0,0.0,0.0,0.0,0.0,0.0,0.0,0.0,0.0,0.0,0.0,0.0,0.0,0.0,2.0702,0.0,0.0,0.0,0.0,0.0,0.0,0.0,0.0,0.0,2.1667,2.2451,2.3519,2.4734,2.5125,2.5598,2.6344,0.0,0.0,0.0,0.0,0.0,0.0,0.0,2.5124,2.5262,2.4609,2.4313,2.4921,2.4875,2.4657,2.4365,0.0,0.0,2.2728,2.1904,2.1295,2.1083,2.138,2.1917,2.2697,2.3154,2.3636,0.0,0.0,0.0,0.0,1.9972,0.0,0.0,0.0,1.9677,1.9893,0.0,1.9392,0.0,0.0,0.0,0.0,1.9021,1.9697,0.0,0.0,2.2013,2.2368,2.2912,2.2543,2.2343,2.2311,2.1976,2.1971,2.2256,2.1463,0.0,0.0,0.0,0.0,0.0,0.0,2.0087,2.0785,2.1391,2.1714,2.1771,2.2313,2.2297,2.1643,2.1096,2.053,1.9967,1.9822,1.9501,1.9021,1.9477,0.0,0.0,0.0,0.0,0.0,0.0,0.0,0.0,0.0,0.0,0.0,0.0,0.0,0.0,0.0,0.0,0.0,0.0,0.0,0.0,2.1778,0.0,0.0,0.0,0.0,0.0,0.0,0.0,0.0,0.0,2.3163,2.2463,2.3617,2.4786,2.5505,0.0,0.0,0.0,0.0,2.5204,2.5218,2.5756,2.5971,2.5478,2.5944,2.6186,2.5716,0.0,0.0,2.5365,2.5496,2.5527,2.5207,2.5257,2.4909,2.3355,2.3004,2.2932,2.2917,2.3323,2.3831,2.3922,2.428,2.4775,2.1275,0.0,0.0,0.0,0.0,2.0992,2.1445,2.1413,2.1295,2.1368,2.1504,2.0735,0.0,0.0,0.0,0.0,0.0,0.0,2.1713,2.2228,2.2566,2.2754,2.2787,2.2949,2.309,2.3225,2.3119,2.3115,2.318,2.2555,2.2034,2.1719,0.0,0.0,0.0,0.0,2.146,2.2074,2.184,2.193,2.24,2.1708,2.1033,2.0368,2.0638,2.0703,2.0462,2.0434,2.0353,2.0193,2.0333,0.0,0.0,0.0,0.0,0.0,0.0,0.0,0.0,0.0,0.0,0.0,0.0,0.0,0.0,0.0,0.0,0.0,0.0,0.0,2.222,2.216,2.2058,0.0,0.0,0.0,0.0,0.0,0.0,0.0,0.0,0.0,2.3662,2.4575,2.5395,0.0,0.0,2.5775,2.6105,2.5688,2.535,2.5336,2.5572,0.0,2.5565,2.5696,2.5945,2.6257,2.6708,2.6852,2.6317,2.626,2.6288,2.6168,2.5838,2.5227,2.4346,2.3671,2.3277,2.3078,2.3297,2.3645,2.3975,2.4327,2.4687,2.285,2.139,2.1457,2.1632,2.1958,2.2786,2.2994,2.274,2.2578,2.253,2.2458,2.1632,2.1168,2.0984,2.0729,0.0,0.0,0.0,2.2078,2.2466,2.301,2.3315,2.3473,2.3975,2.4282,2.4388,2.4403,2.4403,2.4362,2.3467,2.3082,2.3112,0.0,2.0565,2.0362,2.0952,2.1597,2.2215,2.2087,2.2064,2.2251,2.1061,2.0341,2.0209,2.034,2.0504,2.0761,2.0744,2.0754,2.0779,2.0717,2.0509,0.0,0.0,0.0,0.0,0.0,0.0,0.0,0.0,0.0,0.0,0.0,2.1833,2.1396,0.0,0.0,0.0,2.2113,2.2372,2.2306,2.2226,0.0,0.0,0.0,0.0,0.0,0.0,0.0,2.3172,2.434,2.5206,2.5223,2.5791,2.6161,2.5998,2.5834,2.588,2.6214,0.0,2.5477,2.5487,2.5772,2.6,2.6004,2.6213,2.6537,2.6912,2.7308,2.7463,2.709,2.6997,2.6904,2.6621,2.6255,2.5791,2.5124,2.4604,2.4022,2.3398,2.3604,2.404,2.4575,2.4993,2.5378,2.4313,2.377,2.4016,2.437,2.4796,2.4849,2.4512,2.3935,2.3562,2.3399,2.3323,2.2315,2.2183,2.2733,2.2013,0.0,2.0967,2.1516,2.2188,2.2868,2.3471,2.4077,2.4683,2.5304,2.5633,2.5678,2.5678,2.5684,2.5604,2.4321,2.392,2.4317,2.2024,2.0548,2.0065,2.0465,2.1026,2.1746,2.2127,2.2061,2.1537,2.0399,2.0067,2.0618,2.0105,2.0137,2.0779,2.0804,2.0849,2.0954,2.0848,2.076,2.0703,0.0,0.0,0.0,0.0,0.0,0.0,0.0,0.0,0.0,0.0,0.0,0.0,0.0,0.0,2.2388,2.2563,0.0,2.2437,2.2198,0.0,0.0,0.0,2.2964,2.3572,2.413,2.4722,2.5355,0.0,0.0,2.6645,2.6915,2.6878,2.6306,2.5813,2.5699,2.6313,2.6002,2.5683,2.5701,2.6258,2.6683,2.6712,2.7198,2.7585,2.754,2.7585,2.7585,2.7555,2.7485,2.7237,2.6823,2.6686,2.6476,2.5795,2.564,2.5292,2.4047,2.4264,2.4866,2.5415,2.5957,2.6316,2.5197,2.5099,2.571,2.5174,2.3956,2.4461,2.4587,2.4429,2.4331,2.4291,2.422,2.3488,2.3236,2.333,2.2208,2.2137,2.29,2.2611,2.3054,2.4156,2.4825,2.5214,2.5352,2.5516,2.5884,2.6333,2.6363,2.6332,2.6239,2.5438,2.4555,2.3636,2.2535,2.1927,2.1786,2.151,2.1891,2.2973,2.2136,2.1451,2.0906,2.0191,1.9686,1.9432,1.9674,1.9925,2.0212,2.0601,2.101,2.1485,2.1484,2.1225,2.0729,2.1036,0.0,0.0,0.0,0.0,0.0,0.0,0.0,0.0,0.0,2.1597,2.1597,0.0,2.2533,0.0,2.3317,2.3416,2.3381,2.3007,0.0,0.0,2.2915,2.3004,2.3169,2.3777,2.4114,2.3863,2.4815,2.5402,2.5183,2.5637,2.6119,2.6443,2.6308,2.6251,2.6512,2.6468,2.6353,2.641,2.6912,2.7345,2.738,2.7931,2.8158,2.769,2.76,2.7585,2.7585,2.717,2.6935,2.7267,2.7349,2.7087,2.648,2.6351,2.6058,2.5332,2.527,2.5408,2.5585,2.5763,2.5851,2.6031,2.5846,2.6247,2.5627,2.4479,2.5488,2.5767,2.5498,2.5472,2.5334,2.497,2.4047,2.3651,2.3558,2.2289,2.2244,2.3092,2.2807,2.334,2.4546,2.4921,2.5236,2.5548,2.5529,2.5709,2.6052,2.6067,2.6031,2.5986,2.5535,2.4913,2.4133,2.3196,2.2854,2.306,2.2329,2.237,2.3249,2.2336,2.1608,2.1069,2.049,2.0062,1.9761,1.9786,2.0093,2.0692,2.0782,2.122,2.209,2.1873,2.1669,2.1595,2.165,2.154,0.0,0.0,0.0,0.0,0.0,0.0,0.0,0.0,0.0,0.0,0.0,2.2774,2.3193,2.3413,2.3487,2.3398,2.2805,2.2605,2.3089,2.2887,2.2965,2.3554,2.4459,2.4914,2.4641,2.5587,2.6192,2.5902,2.6218,2.6614,2.7001,2.699,2.6952,2.7028,2.705,2.7042,2.706,2.736,2.7585,2.7585,2.7902,2.8147,2.8057,2.7793,2.7698,2.7972,2.7502,2.717,2.7517,2.7585,2.7475,2.7142,2.7045,2.6827,2.6203,2.6001,2.6009,2.6036,2.5796,2.5548,2.6433,2.5984,2.6139,2.5879,2.5508,2.6772,2.6992,2.6448,2.6434,2.6122,2.5523,2.4394,2.3921,2.3827,2.2514,2.2262,2.2808,2.2747,2.3351,2.4462,2.4531,2.4862,2.5467,2.5436,2.5398,2.5398,2.5481,2.5453,2.5354,2.5246,2.515,2.5001,2.3897,2.3597,2.413,2.31,2.2706,2.3083,2.2583,2.2083,2.1608,2.1081,2.0729,2.0566,2.015,2.0334,2.1211,2.0895,2.1224,2.2371,2.1972,2.1964,2.2527,2.2178,2.1904,0.0,2.1889,0.0,0.0,0.0,0.0,0.0,0.0,0.0,0.0,2.3024,2.3272,2.3281,2.3458,2.3528,2.3452,2.261,2.2481,2.3432,2.3054,2.318,2.4434,2.5412,2.6029,2.6104,2.6738,2.7168,2.7053,2.7264,2.733,2.724,2.729,2.7315,2.7435,2.7488,2.7533,2.7585,2.7585,2.7585,2.763,2.7779,2.8104,2.8441,2.8144,2.7941,2.847,2.7923,2.7437,2.7445,2.7502,2.7522,2.7367,2.7335,2.717,2.6412,2.6249,2.6276,2.6279,2.5907,2.5518,2.5158,2.4765,2.5773,2.5894,2.5425,2.5701,2.5739,2.5642,2.5628,2.5558,2.5418,2.5185,2.5062,2.498,2.3676,2.3433,2.4021,2.3501,2.3676,2.4439,2.4969,2.5287,2.5424,2.5412,2.5398,2.5412,2.5853,2.5728,2.5169,2.5561,2.5434,2.4868,2.4592,2.477,2.5209,0.0,0.0,0.0,2.2583,2.2245,2.2132,2.1633,2.0917,2.0024,2.0326,0.0,1.956,1.9801,2.0346,2.1114,2.1507,0.0,0.0,0.0,0.0,0.0,0.0,0.0,0.0,0.0,0.0,0.0,2.2686,2.2437,2.2415,2.3793,2.471,2.4707,2.4894,2.521,2.5703,2.4733,2.4365,2.504,2.4566,2.4509,2.5264,2.5114,2.5097,2.5639,2.5866,2.595,2.6061,2.5973,2.6033,2.6156,2.6433,2.6765,2.6841,2.73,2.7585,2.7585,2.7585,2.7585,2.7585,2.8468,2.8895,2.8742,2.8531,2.8445,2.8455,2.7575,2.6785,2.672,2.7197,2.715,2.6094,2.6281,2.6477,2.5743,2.5605,2.5604,2.5615,2.5519,2.5424,2.5042,2.4599,2.494,2.4792,0.0,2.4251,2.4251,2.4323,2.5077,2.5398,2.5356,2.4708,2.442,2.4351,2.3316,2.3031,2.3367,2.3273,2.3647,2.4336,2.4278,2.4495,2.4838,2.4452,2.4424,2.4728,2.4975,2.5051,2.4993,2.5505,2.5566,2.5197,2.5193,2.5335,2.5548,2.4515,2.37,2.3108,2.2832,2.2571,2.2307,2.2033,2.1619,2.1079,2.1067,0.0,0.0,0.0,0.0,0.0,0.0,0.0,0.0,2.2815,0.0,2.315,2.343,2.3599,2.3629,2.364,2.3889,2.4435,2.4279,2.3793,2.2996,2.4043,2.4754,2.4864,2.4937,2.5146,2.5439,2.4664,2.4365,2.4978,2.4511,2.4374,2.4939,2.481,2.4868,2.5516,2.5905,2.6198,2.6539,2.6599,2.6584,2.6587,2.6862,2.7078,2.7126,2.7375,2.7585,2.7585,2.7585,2.7585,2.7675,2.8395,2.9014,2.8663,2.8592,2.8442,2.8113,2.7214,2.6438,2.6094,2.626,2.6215,2.566,2.5727,2.5732,2.5057,2.4854,2.4671,2.4398,2.4582,2.4852,2.5281,2.4779,2.4415,2.3888,2.3258,2.3271,2.3258,2.3336,2.4478,0.0,0.0,2.3836,2.3423,2.3458,2.2761,2.2495,2.2621,2.2945,2.3456,2.406,2.341,2.3505,2.4202,2.3562,2.3559,2.413,2.423,2.4506,2.4954,2.5485,2.5749,2.5766,2.5749,2.5686,2.5536,2.472,2.4004,2.3434,2.3308,2.3047,2.2623,2.2611,2.2495,2.2307,2.1882,2.1807,2.2119,2.1732,2.1529,2.1577,2.1681,2.202,2.26,2.2875,2.322,2.3703,2.3873,2.4182,2.4739,2.4769,2.502,2.5573,2.56,2.5182,2.4167,2.4467,2.4787,2.4938,2.4948,2.5008,2.5109,2.4526,2.4403,2.5038,2.4526,2.442,2.5039,2.5006,2.5264,2.5869,2.634,2.6783,2.7253,2.721,2.7255,2.724,2.7186,2.7432,2.7416,2.7481,2.7585,2.7585,2.7458,2.7384,2.7471,2.7779,2.8214,2.8266,2.8211,2.8025,2.7521,2.6827,2.6068,2.5331,2.5294,2.5287,2.5076,2.5062,2.4917,2.4235,2.4083,2.39,2.3342,2.3619,2.405,2.5297,2.4842,2.5205,2.4795,2.3863,2.3879,2.3879,2.3856,2.3565,2.3439,2.3397,2.3231,2.3439,2.3869,2.3281,2.3258,2.3728,2.3311,2.3155,2.3258,2.3153,2.3432,2.4036,2.3925,2.4167,2.4704,2.5159,2.541,2.5536,2.6067,2.6373,2.6373,2.6373,2.6105,2.5624,2.5448,2.5109,2.4566,2.413,2.3853,2.3766,2.3766,2.3288,2.2357,2.2232,2.1995,2.1633,2.1557,2.1511,2.1534,2.2015,2.2339,2.2485,2.3561,2.4283,2.4406,2.4973,2.5364,2.5438,2.5453,2.551,2.5588,2.56,2.5707,2.599,2.6164,2.6297,2.6315,2.6258,2.6569,2.7033,2.6494,2.63,2.6929,2.6539,2.6431,2.6945,2.6528,2.6436,2.7077,2.6855,2.6618,2.6788,2.6393,2.6123,2.6037,2.6465,2.671,2.6747,2.7216,2.7562,2.7509,2.7047,2.6721,2.6687,2.6661,2.699,2.7351,2.7059,2.6947,2.7062,2.6244,2.5356,2.4614,2.4901,2.4797,2.3881,2.4,2.4034,2.3518,2.3357,2.3265,2.3095,2.326,2.3307,2.546,2.5231,2.518,2.4879,2.4428,2.4428,2.4443,2.4377,2.3838,2.3763,2.3973,2.371,2.3738,2.3966,2.3715,2.3547,2.3524,2.386,2.3863,2.3625,2.3901,2.4148,2.4415,2.4428,2.4704,2.5247,2.5473,2.5762,2.6097,2.6373,2.6487,2.6487,2.6487,2.6348,2.608,2.5749,2.5653,2.5716,2.4883,2.4443,2.4415,2.4155,2.3753,2.3251,2.2922,2.2633,2.2397,2.237,2.2246,2.1945,2.2204,2.2372,2.2429,2.3015,2.3701,2.4431,2.4815,2.5341,2.6099,2.6479,2.6689,2.6677,2.6674,2.6783,2.7018,2.6772,2.6614,2.6614,2.6614,2.6719,2.7018,2.6779,2.6734,2.7018,2.6779,2.6741,2.6913,2.6472,2.6321,2.6889,2.6811,2.6738,2.7118,2.6869,2.6499,2.6191,2.6105,2.5956,2.5902,2.6167,2.6402,2.6358,2.6114,2.594,2.5919,2.6218,2.6325,2.6291,2.6351,2.6289,2.6137,2.5303,2.4828,2.4569,2.4428,2.4054,2.353,2.3583,2.3457,2.3276,2.3095,2.3095,2.3095,2.3095,2.3095,2.5804,2.5766,2.536,2.5121,2.498,2.4854,2.4867,2.4929,2.4531,2.4669,2.5046,2.4356,2.4067,2.4152,2.4067,2.3876,2.3788,2.4327,2.4453,2.4239,2.4616,2.4867,2.4967,2.498,2.5272,2.5753,2.5787,2.6042,2.6449,2.6487,2.6487,2.6487,2.6487,2.6487,2.6487,2.603,2.603,2.6411,2.5611,2.5071,2.4804,2.449,2.4271,2.3979,2.3659,2.3434,2.3308,2.3308,2.3045,2.2518,2.2483,2.2486,2.2587,2.2879,2.3553,2.4582,2.5011,2.5653,2.672,2.7437,2.7824,2.7824,2.7824,2.7824,2.7779,2.7213,2.6824,2.6824,2.6869,2.6854,2.6859,2.6666,2.6636,2.6787,2.6661,2.6681,2.6745,2.6358,2.6216,2.674,2.682,2.7006,2.7258,2.7348,2.6975,2.6247,2.5705,2.5315,2.5203,2.5122,2.5052,2.494,2.5025,2.5149,2.5175,2.5318,2.5457,2.5215,2.5399,2.538,2.4996,2.4549,2.4143,2.4184,2.3707,2.3417,2.3661,2.3457,2.3178,2.3095,2.3095,2.3095,2.3095,2.3095,2.3095,2.6399,2.6411,2.6323,2.6017,2.5481,2.503,2.5121,2.546,2.5477,2.5808,2.603,2.4711,2.4277,2.4628,2.4205,2.4406,2.5134,2.4456,2.4315,2.4704,2.4779,2.5055,2.5498,2.5523,2.5841,2.6348,2.6399,2.6449,2.6549,2.6524,2.6499,2.6487,2.6487,2.6487,2.6474,2.6453,2.6436,2.6487,2.6386,2.5841,2.4904,2.5234,2.4983,2.4045,2.4443,2.4402,2.3929,2.3916,2.3637,2.3095,2.3032,2.305,2.3155,2.4323,2.5149,2.5314,2.6515,2.74,2.754,2.8126,2.8487,2.8502,2.8476,2.8463,2.8433,2.7863,2.751,2.7462,2.7472,2.7387,2.7457,2.6863,2.6743,2.7229,2.69,2.6766,2.7303,2.7467,2.7452,2.7485,2.7352,2.729,2.6712,2.6602,2.6306,2.5687,2.5264,2.4906,2.4567,2.4293,2.4014,2.369,2.3902,2.4348,2.4352,2.3808,2.4092,2.4594,2.4063,2.406,2.4337,2.3968,2.3293,2.3822,2.3308,2.3183,2.3268,2.3123,2.3123,2.3095,2.3095,2.3095,2.3095,2.3095,2.3095,2.6487,2.6487,2.6487,2.6361,2.6092,2.5891,2.5728,2.5615,2.5603,2.5573,2.546,2.51,2.4908,2.4754,2.386,2.3916,2.4607,2.4515,2.4741,2.5268,2.5624,2.5929,2.6122,2.6147,2.6273,2.6512,2.6813,2.6959,2.6989,2.6972,2.6813,2.6524,2.6487,2.6487,2.6487,2.6487,2.6487,2.6487,2.6487,2.6109,2.5398,2.5485,2.5398,2.4983,2.4854,2.4716,2.449,2.4465,2.4365,2.4123,2.4111,2.3963,2.365,2.4238,2.4634,2.4821,2.6135,2.7329,2.8132,2.8457,2.8771,2.9146,2.8714,2.8426,2.8397,2.7706,2.7242,2.7227,2.7062,2.6798,2.6416,2.6416,2.6629,2.6904,2.7034,2.7267,2.7534,2.7585,2.7448,2.7042,2.6961,2.6683,2.6023,2.5754,2.5552,2.5181,2.4812,2.4373,2.4137,2.377,2.3389,2.3223,2.3416,2.3539,2.3601,2.3697,2.3706,2.375,2.375,2.3932,2.4029,2.3704,2.3276,2.3916,2.3542,2.3374,2.3644,2.3288,2.3095,2.3095,2.3095,2.3095,2.3095,2.3095,2.3095,2.6487,2.6487,2.6487,2.6487,2.6487,2.6487,2.6248,2.5879,2.5841,2.5628,2.5322,2.5511,2.5398,2.4929,2.4152,2.4114,2.4657,2.4921,2.5322,2.5841,2.6323,2.6487,2.6487,2.6487,2.6487,2.6549,2.6876,2.7135,2.7298,2.7487,2.7248,2.6783,2.6713,2.665,2.6499,2.6487,2.6487,2.6487,2.6487,2.6285,2.5904,2.5841,2.5778,2.5598,2.5398,2.5193,2.5017,2.5017,2.4954,2.4804,2.4816,2.4628,2.4255,2.4409,2.4671,2.5071,2.6022,2.7065,2.8116,2.832,2.8752,2.9346,2.8713,2.8339,2.8311,2.7477,2.6807,2.6669,2.634,2.5925,2.5786,2.5785,2.596,2.6175,2.672,2.7056,2.7259,2.7432,2.7325,2.6639,2.6553,2.619,2.548,2.5052,2.4818,2.4915,2.4443,2.3989,2.395,2.3637,2.3328,2.317,2.323,2.3308,2.3168,2.3361,2.3499,2.3549,2.3637,2.3701,2.392,2.3568,2.3411,2.3978,2.3692,2.362,2.3785,2.3542,2.3208,2.3133,2.3095,2.3095,2.3095,2.3095,2.3095,2.6487,2.6487,2.6487,2.6487,2.6487,2.6487,2.6491,2.6336,2.6424,2.6411,2.6235,2.5841,2.5603,2.5561,2.5435,2.5778,2.6197,2.5724,2.5841,2.6373,2.6461,2.6487,2.6487,2.6487,2.6499,2.6562,2.6713,2.6934,2.7386,2.7839,2.7814,2.7286,2.7261,2.7027,2.6663,2.6612,2.6524,2.6612,2.6575,2.6499,2.6449,2.6466,2.6172,2.5753,2.6105,2.6092,2.5636,2.5573,2.536,2.4854,2.4879,2.4829,2.4831,2.5362,2.6001,2.6658,2.6865,2.6996,2.721,2.7743,2.8404,2.9026,2.8519,2.8322,2.882,2.7383,2.6323,2.6001,2.562,2.5506,2.5809,2.5228,2.4919,2.537,2.5508,2.5898,2.6498,2.7064,2.7207,2.6571,2.6219,2.5772,2.5104,2.4491,2.4401,2.4573,2.4336,2.4023,2.3988,2.3951,2.3729,2.3391,2.3488,2.3754,2.325,2.3484,2.365,2.3549,2.3461,2.3386,2.3725,2.3979,2.4004,2.4076,2.4086,2.4057,2.4014,2.3826,2.3534,2.3333,2.3145,2.3095,2.3095,2.3095,2.3095,2.6487,2.6487,2.6487,2.6487,2.6487,2.6487,2.6273,2.5979,2.6336,2.6285,2.6005,2.608,2.6185,2.6168,2.6185,2.6067,2.5917,2.5703,2.5929,2.6449,2.6487,2.6487,2.6487,2.6487,2.67,2.704,2.7349,2.7795,2.8279,2.853,2.8342,2.7896,2.7808,2.7682,2.7544,2.7507,2.7537,2.7469,2.7198,2.7014,2.6964,2.6675,2.6403,2.621,2.6386,2.6399,2.6168,2.6185,2.608,2.5904,2.5879,2.5699,2.5351,2.5217,2.5524,2.6186,2.6308,2.6683,2.7492,2.786,2.8315,2.8939,2.8293,2.7911,2.7998,2.7146,2.6352,2.6207,2.5755,2.5476,2.5229,2.4979,2.4776,2.4734,2.5106,2.5481,2.5751,2.6023,2.5919,2.5203,2.4681,2.4153,2.4114,2.3931,2.4063,2.4263,2.4394,2.4328,2.4139,2.4255,2.4135,2.3461,2.3582,2.38,2.3177,2.3828,2.4164,2.3687,2.3449,2.3411,2.3612,2.36,2.3574,2.3667,2.3918,2.3976,2.3735,2.3541,2.3358,2.3386,2.3183,2.3243,2.3095,2.3333,2.3271,2.6487,2.6487,2.6487,2.6487,2.6487,2.6487,2.6273,2.5954,2.6323,2.6273,2.6017,2.6323,2.6487,2.6487,2.6487,2.6281,2.5917,2.5891,2.6105,2.6461,2.6487,2.6487,2.6524,2.6658,2.6964,2.7374,2.8034,2.8555,2.8907,2.9107,2.8894,2.8398,2.8373,2.8273,2.8147,2.8109,2.8109,2.8009,2.757,2.7298,2.7236,2.6776,2.6487,2.6487,2.6487,2.6487,2.6487,2.6487,2.6487,2.6487,2.6487,2.6311,2.5904,2.5548,2.5565,2.6033,2.61,2.6481,2.7336,2.7528,2.783,2.8454,2.7835,2.7384,2.7571,2.6789,2.6366,2.6311,2.5942,2.5385,2.4976,2.4917,2.4713,2.4184,2.4582,2.513,2.5294,2.5533,2.5335,2.4744,2.4033,2.354,2.3443,2.394,2.4216,2.4252,2.4587,2.4558,2.4205,2.4236,2.421,2.3376,2.3629,2.3657,2.338,2.3738,2.392,2.3534,2.3336,2.3333,2.3358,2.3283,2.331,2.3368,2.3427,2.348,2.3413,2.323,2.3233,2.3321,2.3506,2.3626,2.3644,2.375,2.3721,2.6487,2.6487,2.6487,2.6487,2.6487,2.6487,2.6487,2.6436,2.6474,2.6449,2.6386,2.6487,2.6487,2.6487,2.6487,2.6461,2.6424,2.6399,2.6424,2.6487,2.6487,2.6487,2.6512,2.7002,2.7324,2.7507,2.8436,2.8919,2.9019,2.9434,2.9408,2.8976,2.8919,2.8718,2.8185,2.8285,2.8197,2.8072,2.7657,2.7374,2.7248,2.6851,2.6575,2.6549,2.6579,2.6537,2.6499,2.6487,2.6487,2.6487,2.6487,2.6487,2.6424,2.6361,2.6441,2.6434,2.6462,2.6517,2.6539,2.6629,2.7001,2.7454,2.6977,2.6888,2.7235,2.6496,2.5979,2.6311,2.6005,2.5435,2.5005,2.491,2.4491,2.3437,2.3988,2.4565,2.5079,2.5714,2.5876,2.5094,2.4408,2.4027,2.4095,2.4375,2.4647,2.4712,2.4795,2.4664,2.4192,2.4224,2.3866,2.3446,2.3606,2.3763,2.3642,2.3523,2.3413,2.329,2.3193,2.317,2.3271,2.3258,2.3397,2.3473,2.3623,2.3657,2.345,2.3318,2.3446,2.3559,2.3776,2.4004,2.4189,2.4274,2.4318,2.6487,2.6487,2.6487,2.6487,2.6487,2.6487,2.6487,2.6487,2.6487,2.6487,2.6487,2.6487,2.6487,2.6487,2.6487,2.6487,2.6487,2.6487,2.6487,2.6487,2.6487,2.6487,2.66,2.7047,2.77,2.8405,2.9164,2.9496,2.9553,2.9704,2.9679,2.9553,2.9515,2.9428,2.9227,2.9252,2.9114,2.8631,2.8134,2.7858,2.7795,2.7324,2.7035,2.7035,2.7047,2.6901,2.6524,2.6487,2.6487,2.6487,2.6487,2.6487,2.6487,2.6487,2.6487,2.6487,2.6487,2.6487,2.6487,2.6487,2.6589,2.6769,2.6611,2.6624,2.6833,2.6498,2.6285,2.6491,2.6311,2.5979,2.5498,2.536,2.487,2.3841,2.3958,2.4346,2.4863,2.515,2.5132,2.4959,2.4691,2.4564,2.4545,2.4769,2.4823,2.4859,2.5086,2.5058,2.4324,2.4556,2.4687,2.3998,2.4083,2.3876,2.3691,2.345,2.3265,2.3218,2.3143,2.3095,2.3183,2.3248,2.3399,2.3513,2.3666,2.3657,2.3463,2.3418,2.3484,2.3729,2.3906,2.422,2.4612,2.4734,2.4717,2.6487,2.6487,2.6487,2.6487,2.6487,2.6487,2.6487,2.6487,2.6487,2.6487,2.6487,2.6487,2.6487,2.6487,2.6487,2.6487,2.6487,2.6487,2.6487,2.6487,2.6487,2.6487,2.6612,2.7273,2.8172,2.9107,2.9616,2.9779,2.9779,2.9779,2.9779,2.9779,2.9779,2.9767,2.9779,2.9779,2.9578,2.9195,2.8699,2.8392,2.8242,2.767,2.7311,2.7273,2.711,2.6851,2.6512,2.6487,2.6487,2.6487,2.6487,2.6487,2.6487,2.6487,2.6487,2.6487,2.6487,2.6487,2.6487,2.6487,2.6487,2.6487,2.6487,2.6487,2.6487,2.6487,2.6487,2.6487,2.6474,2.6248,2.5724,2.5603,2.5276,2.4695,2.4418,2.4553,2.4967,2.5093,2.5125,2.5104,2.4921,2.4842,2.4811,2.5021,2.4972,2.4954,2.5444,2.5381,2.4634,2.4745,2.4471,2.4064,2.3669,2.3544,2.3585,2.3388,2.3145,2.312,2.312,2.3095,2.3133,2.3145,2.3228,2.3241,2.3353,2.3391,2.323,2.3205,2.3256,2.3598,2.4053,2.4277,2.4602,2.4921,2.497,2.6435,2.6487,2.643,2.6418,2.6469,2.6487,2.6487,2.6487,2.6487,2.6418,2.6366,2.6267,2.6233,2.628,2.5995,2.6013,2.6297,2.6285,2.6146,2.6154,2.6273,2.6447,2.6871,2.762,2.8586,2.9578,2.9767,2.9779,2.9779,2.9779,2.9779,2.9779,2.9779,2.9779,2.9779,2.9779,2.9748,2.9515,2.9095,2.8844,2.8819,2.7996,2.7487,2.7457,2.7052,2.6725,2.6637,2.6537,2.6487,2.6487,2.6487,2.6487,2.6487,2.6487,2.6487,2.6487,2.6487,2.6487,2.6487,2.6487,2.6487,2.6487,2.6487,2.6487,2.6487,2.6487,2.6487,2.6487,2.6487,2.6298,2.5829,2.5728,2.5678,2.5598,2.5247,2.5234,2.5561,2.5665,2.5678,2.5586,2.5218,2.4929,2.5084,2.5446,2.5392,2.5314,2.5783,2.5381,2.4704,2.4428,2.4148,2.3797,2.3459,2.3471,2.3578,2.3325,2.312,2.315,2.3206,2.3273,2.3163,2.312,2.3095,2.3095,2.315,2.3135,2.3215,2.331,2.3541,2.3998,2.4273,2.4362,2.463,2.5004,2.5145,2.5821,2.6401,2.5716,2.5821,2.6435,2.6487,2.6487,2.6487,2.6469,2.6042,2.5546,2.5388,2.501,2.4355,2.4343,2.4277,2.4541,2.5093,2.4921,2.4557,2.5427,2.6559,2.7481,2.7946,2.8687,2.9628,2.9767,2.9779,2.9779,2.9779,2.9779,2.9779,2.9779,2.9779,2.9779,2.9779,2.9553,2.9183,2.9032,2.8932,2.8881,2.8643,2.848,2.8417,2.7934,2.7462,2.7097,2.67,2.6487,2.6487,2.6487,2.6487,2.6487,2.6487,2.6487,2.6487,2.6487,2.6487,2.6487,2.6487,2.6487,2.6487,2.6487,2.6487,2.6487,2.6487,2.6487,2.6487,2.6487,2.6436,2.6285,2.6235,2.6248,2.626,2.603,2.6021,2.6172,2.626,2.6273,2.6248,2.6097,2.5979,2.5996,2.6076,2.6126,2.5992,2.5841,2.5665,2.4883,2.4202,2.4014,2.3838,2.36,2.3587,2.3524,2.3283,2.316,2.3206,2.3344,2.3578,2.3369,2.316,2.3135,2.3095,2.3248,2.3288,2.3585,2.3785,2.4138,2.4374,2.4515,2.4628,2.4933,2.5256,2.5269,2.5111,2.524,2.5075,2.5335,2.5908,2.6314,2.6487,2.6418,2.6025,2.5576,2.4998,2.4528,2.4054,2.3533,2.3514,2.3496,2.3588,2.4102,2.4036,2.3897,2.5036,2.6285,2.7336,2.7984,2.8794,2.9365,2.9679,2.9779,2.9779,2.9779,2.9779,2.9779,2.9779,2.9779,2.9779,2.9779,2.9654,2.9365,2.9289,2.9289,2.927,2.9001,2.8894,2.8794,2.838,2.7846,2.7311,2.6788,2.6487,2.6487,2.6487,2.6487,2.6487,2.6487,2.6487,2.6487,2.6487,2.6487,2.6487,2.6487,2.6487,2.6487,2.6487,2.6487,2.6487,2.6487,2.6487,2.6487,2.6487,2.6487,2.6487,2.6487,2.6487,2.6461,2.6487,2.6487,2.6487,2.6461,2.6487,2.6487,2.6487,2.6487,2.6487,2.6487,2.6487,2.6361,2.5904,2.5615,2.5146,2.4506,2.4004,2.3916,2.3643,2.3492,2.3439,2.3233,2.3203,2.3248,2.3638,2.3854,2.3644,2.3349,2.3261,2.3276,2.3382,2.3518,2.3763,2.4023,2.4272,2.4461,2.4684,2.4867,2.5067,2.5374,2.537,2.4217,2.358,2.4373,2.4761,2.4987,2.5891,2.6233,2.6129,2.5441,2.4969,2.4582,2.3763,2.3184,2.3213,2.2843,2.3091,2.3091,2.322,2.3427,2.385,2.4876,2.5932,2.6243,2.7766,2.851,2.8878,2.9386,2.9645,2.9721,2.9779,2.9779,2.9779,2.9779,2.9779,2.9779,2.9779,2.9779,2.9729,2.9679,2.9679,2.9628,2.9308,2.912,2.9032,2.8568,2.8003,2.7474,2.6952,2.6625,2.6617,2.6537,2.6537,2.6549,2.66,2.66,2.6625,2.665,2.6625,2.6537,2.6575,2.6549,2.6537,2.6625,2.6567,2.6575,2.6592,2.6625,2.6487,2.6487,2.6487,2.6487,2.6487,2.6487,2.6487,2.6487,2.6487,2.6487,2.6487,2.6487,2.6487,2.6487,2.6487,2.6487,2.6487,2.6487,2.6436,2.6034,2.564,2.5267,2.4762,2.439,2.4217,2.3819,2.3321,2.3266,2.3198,2.3258,2.3354,2.3881,2.4151,2.3948,2.3702,2.3523,2.3482,2.3518,2.3623,2.3772,2.4041,2.447,2.4686,2.4976,2.4967,2.4983,2.5375,2.5519,2.298,2.3459,2.2877,2.311,2.3909,2.4886,2.5335,2.5317,2.5075,2.4438,2.3727,2.2776,2.1943,2.1289,2.1404,2.1212,2.1489,2.2042,2.2652,2.3511,2.47,2.4923,2.5161,2.6646,2.7803,2.8196,2.8401,2.8956,2.9553,2.9779,2.9779,2.9779,2.9779,2.9779,2.9779,2.9779,2.9779,2.9779,2.9779,2.9779,2.9779,2.9666,2.9541,2.9484,2.8982,2.8455,2.7934,2.7412,2.7135,2.704,2.6763,2.6637,2.6922,2.7077,2.7035,2.701,2.7047,2.6922,2.6688,2.6834,2.6922,2.665,2.7123,2.7381,2.6587,2.6876,2.6851,2.6625,2.6487,2.6487,2.6487,2.6487,2.6487,2.6487,2.6487,2.6487,2.6487,2.6487,2.6487,2.6487,2.6487,2.6487,2.6487,2.6487,2.6461,2.6411,2.6109,2.569,2.535,2.5012,2.4778,2.4576,2.4208,2.3784,2.3706,2.3587,2.3482,2.3613,2.4108,2.4421,2.4243,2.4157,2.4006,2.3826,2.3649,2.3794,2.4055,2.4755,2.5345,2.5322,2.5285,2.5385,2.5489,2.5655,2.5759,2.2046,2.2132,2.2027,2.2579,2.3496,2.4065,2.4564,2.4719,2.3945,2.3305,2.2683,2.1754,2.1059,2.0625,2.0596,2.0625,2.0683,2.1098,2.2115,2.3213,2.4151,2.4358,2.4607,2.5526,2.6622,2.7652,2.8618,2.9263,2.9663,2.9779,2.9779,2.9779,2.9779,2.9779,2.9779,2.9779,2.9779,2.9779,2.9779,2.9779,2.9779,2.9779,2.9779,2.9679,2.9233,2.8731,2.8455,2.77,2.7374,2.7185,2.6826,2.6612,2.6909,2.7165,2.7203,2.6989,2.7185,2.7185,2.7047,2.7097,2.7178,2.6914,2.7449,2.7148,2.6763,2.6788,2.6788,2.6575,2.6487,2.6487,2.6487,2.6487,2.6487,2.6487,2.6487,2.6487,2.6487,2.6487,2.6487,2.6487,2.6487,2.6487,2.6487,2.6487,2.6487,2.6449,2.603,2.5665,2.5808,2.5479,2.5189,2.4926,2.4613,2.4359,2.4239,2.4051,2.3778,2.3957,2.4315,2.4557,2.4538,2.4525,2.4535,2.4278,2.4004,2.4296,2.4656,2.5409,2.5837,2.5642,2.5611,2.5854,2.6043,2.6127,2.619,2.1317,2.0683,2.1612,2.2422,2.3054,2.3368,2.3872,2.4126,2.2776,2.2226,2.183,2.1011,2.0673,2.0596,2.0596,2.0596,2.0635,2.0801,2.1729,2.2773,2.3608,2.408,2.465,2.5476,2.6429,2.7501,2.8313,2.9086,2.9624,2.9779,2.9779,2.9779,2.9779,2.9779,2.9779,2.9779,2.9779,2.9779,2.9779,2.9779,2.9779,2.9779,2.9779,2.9691,2.9396,2.912,2.8869,2.8235,2.7613,2.7525,2.6959,2.6725,2.6851,2.7102,2.7349,2.6952,2.7487,2.7587,2.7507,2.7532,2.7613,2.7474,2.7713,2.7424,2.704,2.6901,2.6876,2.67,2.66,2.6567,2.6587,2.6537,2.6612,2.67,2.6692,2.6554,2.66,2.6562,2.6487,2.6487,2.6487,2.6487,2.6487,2.6487,2.6487,2.6424,2.6005,2.5766,2.5933,2.598,2.5686,2.5452,2.5194,2.4512,2.4299,2.3923,2.374,2.4111,2.4469,2.4652,2.4795,2.495,2.4926,2.4607,2.45,2.4786,2.517,2.5749,2.598,2.5833,2.5942,2.6185,2.6378,2.6551,2.6516,2.0731,2.0683,2.1612,2.1669,2.1423,2.2768,2.3073,2.2515,2.2159,2.1989,2.183,2.1039,2.0596,2.0596,2.0596,2.0596,2.0654,2.0918,2.1361,2.2211,2.3236,2.4251,2.4824,2.6212,2.7408,2.7601,2.7804,2.8271,2.9475,2.9779,2.9779,2.9779,2.9779,2.9779,2.9779,2.9779,2.9779,2.9779,2.9779,2.9779,2.9779,2.9779,2.9779,2.9779,2.9616,2.9578,2.9478,2.9007,2.8643,2.8561,2.7682,2.7494,2.7682,2.7896,2.8059,2.8222,2.8373,2.831,2.8072,2.8329,2.8304,2.831,2.8637,2.8649,2.8047,2.7695,2.7369,2.7085,2.6801,2.67,2.711,2.6834,2.7022,2.7286,2.7035,2.67,2.6922,2.6788,2.6512,2.6487,2.6487,2.6487,2.6487,2.6487,2.6487,2.6487,2.6311,2.613,2.6227,2.6307,2.6257,2.6045,2.5813,2.4987,2.4245,2.3769,2.3512,2.4038,2.4437,2.4766,2.4967,2.5321,2.5286,2.4976,2.5014,2.5304,2.5728,2.6161,2.6233,2.618,2.6336,2.6524,2.6576,2.6635,2.6397,2.0596,2.0663,2.1097,2.1317,2.1394,2.1745,2.2019,2.1933,2.1498,2.1279,2.1155,2.0809,2.0596,2.0596,2.0596,2.0596,2.0713,2.1015,2.163,2.2503,2.3627,2.4728,2.5239,2.6841,2.7518,2.7824,2.7663,2.8119,2.9643,2.9779,2.9779,2.9779,2.9779,2.9779,2.9779,2.9779,2.9779,2.9779,2.9779,2.9779,2.9779,2.9779,2.9779,2.9779,2.9779,2.9779,2.9691,2.922,2.8888,2.8731,2.8147,2.8109,2.8329,2.8505,2.8487,2.8593,2.8781,2.8831,2.858,2.8794,2.8718,2.8618,2.9095,2.8907,2.8285,2.7808,2.7632,2.7349,2.7185,2.7135,2.7632,2.7211,2.7374,2.7682,2.7185,2.6879,2.7012,2.6771,2.6612,2.6487,2.6487,2.6487,2.6487,2.6487,2.6487,2.6487,2.6487,2.6487,2.6487,2.6487,2.6487,2.6176,2.5857,2.5115,2.4424,2.4098,2.3684,2.4082,2.4592,2.4917,2.5269,2.5651,2.5617,2.5352,2.5532,2.5946,2.6055,2.6393,2.6452,2.6557,2.6791,2.6917,2.6769,2.6635,2.6416,2.0596,2.0595,2.0809,2.1212,2.1574,2.1155,2.1212,2.1479,2.0934,2.0644,2.0596,2.0596,2.0596,2.0596,2.0605,2.0635,2.0742,2.1171,2.213,2.3273,2.4093,2.5138,2.6339,2.691,2.7513,2.8569,2.8537,2.8897,2.9592,2.9779,2.9779,2.9779,2.9779,2.9779,2.9779,2.9779,2.9779,2.9779,2.9779,2.9779,2.9779,2.9779,2.9779,2.9779,2.9779,2.9779,2.9741,2.9408,2.9183,2.8994,2.8668,2.8505,2.8944,2.895,2.8769,2.8586,2.8856,2.9019,2.9095,2.9107,2.9145,2.9095,2.9082,2.8856,2.853,2.8197,2.7682,2.7494,2.7474,2.7682,2.8097,2.777,2.7808,2.7921,2.7449,2.6796,2.7007,2.6894,2.6575,2.6487,2.6487,2.6487,2.6487,2.6487,2.6487,2.6487,2.6487,2.6487,2.6487,2.6487,2.6416,2.6114,2.5686,2.5093,2.4666,2.4628,2.4311,2.4324,2.4904,2.5373,2.5707,2.6057,2.602,2.6151,2.6375,2.673,2.67,2.6623,2.6759,2.6967,2.723,2.7179,2.6828,2.6611,2.644,2.0596,2.0673,2.146,2.1432,2.0934,2.1441,2.1366,2.0789,2.0654,2.0605,2.0596,2.0596,2.0596,2.0625,2.0644,2.082,2.1142,2.1633,2.236,2.3369,2.4408,2.5686,2.7163,2.7758,2.8434,2.9236,2.9456,2.9643,2.976,2.9779,2.9779,2.9779,2.9779,2.9779,2.9779,2.9779,2.9779,2.9779,2.9779,2.9779,2.9779,2.9779,2.9779,2.9779,2.9779,2.9779,2.9779,2.9628,2.9603,2.9566,2.9107,2.9132,2.9503,2.917,2.9258,2.944,2.9654,2.9679,2.9641,2.9591,2.9578,2.9566,2.9603,2.9641,2.9227,2.8831,2.8367,2.8034,2.8009,2.826,2.8593,2.8323,2.8367,2.8197,2.777,2.7295,2.723,2.6844,2.6549,2.6487,2.6487,2.6487,2.6487,2.6487,2.6487,2.6487,2.6487,2.6487,2.6424,2.6386,2.595,2.5527,2.5433,2.4912,2.4757,2.4729,2.4877,2.472,2.5335,2.5886,2.6136,2.6532,2.7135,2.7302,2.742,2.7256,2.7052,2.7006,2.7153,2.7388,2.7698,2.7281,2.6673,2.6558,2.6638,2.0596,2.0644,2.1049,2.0992,2.0663,2.1059,2.0992,2.0663,2.0596,2.0596,2.0596,2.0596,2.0596,2.0644,2.082,2.1025,2.1337,2.1884,2.2426,2.3423,2.4743,2.6152,2.7094,2.833,2.9463,2.9592,2.9779,2.9721,2.9779,2.9779,2.9779,2.9779,2.9779,2.9779,2.9779,2.9779,2.9779,2.9779,2.9779,2.9779,2.9779,2.9779,2.9779,2.9779,2.9779,2.9779,2.9779,2.9779,2.9779,2.9754,2.949,2.9509,2.9691,2.9578,2.9566,2.9691,2.9767,2.9767,2.9767,2.9779,2.9779,2.9779,2.9754,2.9616,2.9346,2.9095,2.885,2.8593,2.8568,2.8819,2.9151,2.8856,2.8781,2.8543,2.7984,2.758,2.7206,2.6774,2.6487,2.6487,2.6487,2.6487,2.6487,2.6487,2.6487,2.6487,2.6487,2.6487,2.6311,2.608,2.5465,2.4688,2.4713,2.4704,2.4716,2.477,2.5268,2.5416,2.618,2.6599,2.6614,2.6988,2.7646,2.7875,2.7729,2.7548,2.7388,2.7503,2.7728,2.795,2.8179,2.7767,2.7382,2.7285,2.6999,2.0596,2.0596,2.0596,2.0596,2.0596,2.0596,2.0605,2.0605,2.0596,2.0596,2.0596,2.0596,2.0596,2.0644,2.0889,2.1113,2.1435,2.2049,2.2663,2.3696,2.4955,2.6253,2.7285,2.8668,2.9404,2.9779,2.9779,2.9779,2.9779,2.9779,2.9779,2.9779,2.9779,2.9779,2.9779,2.9779,2.9779,2.9779,2.9779,2.9779,2.9779,2.9779,2.9779,2.9779,2.9779,2.9779,2.9779,2.9779,2.9779,2.9779,2.9767,2.9741,2.9767,2.9741,2.9716,2.9779,2.9779,2.9779,2.9779,2.9779,2.9779,2.9779,2.9767,2.9654,2.9321,2.912,2.912,2.9132,2.9132,2.939,2.9578,2.934,2.9107,2.8693,2.8104,2.7669,2.7258,2.6794,2.6516,2.6487,2.6487,2.6487,2.6487,2.6487,2.6487,2.6487,2.6487,2.6487,2.6243,2.595,2.547,2.4766,2.4877,2.5021,2.5071,2.5195,2.5595,2.6101,2.6867,2.729,2.7299,2.7644,2.8267,2.8273,2.8198,2.8405,2.8556,2.8425,2.8319,2.8487,2.86,2.8512,2.8291,2.807,2.7364,2.0596,2.0596,2.0596,2.0596,2.0596,2.0596,2.0596,2.0596,2.0596,2.0596,2.0596,2.0596,2.0596,2.0625,2.0772,2.1162,2.1826,2.1904,2.2856,2.3965,2.4988,2.6015,2.7084,2.7996,2.8819,2.9534,2.9721,2.9779,2.9779,2.9779,2.9779,2.9779,2.9779,2.9779,2.9779,2.9779,2.9779,2.9779,2.9779,2.9779,2.9779,2.9779,2.9779,2.9779,2.9779,2.9779,2.9779,2.9779,2.9779,2.9779,2.9779,2.9779,2.9779,2.9779,2.9779,2.9779,2.9779,2.9779,2.9779,2.9779,2.9779,2.9779,2.9779,2.9773,2.9591,2.9666,2.9704,2.9641,2.9553,2.9628,2.9754,2.971,2.9371,2.8844,2.8266,2.7765,2.7304,2.6791,2.6546,2.6516,2.6487,2.6487,2.6487,2.6487,2.6487,2.6487,2.6487,2.6474,2.6192,2.5899,2.5665,2.5326,2.5412,2.5519,2.5628,2.5896,2.6337,2.6738,2.7331,2.7753,2.7959,2.8435,2.8919,2.9095,2.912,2.9434,2.9565,2.9155,2.893,2.9006,2.9012,2.8942,2.8329,2.7712,2.7134,2.0596,2.0596,2.0596,2.0596,2.0596,2.0596,2.0596,2.0596,2.0596,2.0596,2.0596,2.0596,2.0596,2.0644,2.0918,2.1299,2.1875,2.2166,2.2948,2.3716,2.4542,2.5284,2.6335,2.7409,2.8367,2.8897,2.9365,2.9779,2.9779,2.9779,2.9779,2.9779,2.9779,2.9779,2.9779,2.9792,2.9804,2.9804,2.9804,2.9811,2.9779,2.9779,2.9779,2.9779,2.9779,2.9779,2.9779,2.9779,2.9779,2.9779,2.9779,2.9779,2.9779,2.9779,2.9779,2.9779,2.9779,2.9779,2.9779,2.9779,2.9779,2.9779,2.9779,2.9779,2.9779,2.9779,2.9779,2.9779,2.9779,2.9779,2.9779,2.9754,2.9541,2.8988,2.8428,2.7893,2.743,2.6951,2.6653,2.6664,2.6565,2.6487,2.6487,2.6487,2.6487,2.6487,2.6474,2.6402,2.6162,2.5949,2.5762,2.5724,2.5783,2.6021,2.613,2.6576,2.7074,2.7458,2.7842,2.8195,2.8572,2.9082,2.9515,2.9754,2.9753,2.9638,2.9581,2.9556,2.9488,2.9408,2.9395,2.9375,2.8541,2.7617,2.7329,2.0596,2.0596,2.0596,2.0596,2.0596,2.0596,2.0596,2.0596,2.0596,2.0596,2.0596,2.0596,2.0596,2.0684,2.0859,2.1367,2.1817,2.2178,2.2615,2.3232,2.3855,2.4467,2.5357,2.6491,2.7723,2.8227,2.9145,2.9779,2.9779,2.9779,2.9779,2.9779,2.9779,2.9779,2.9779,2.9792,2.988,2.9993,2.9854,2.9962,2.9993,2.9867,2.9792,2.9779,2.9779,2.9779,2.9779,2.9779,2.9779,2.9779,2.9779,2.9779,2.9779,2.9779,2.9779,2.9779,2.9779,2.9779,2.9779,2.9779,2.9779,2.9779,2.9779,2.9779,2.9779,2.9779,2.9779,2.9779,2.9779,2.9779,2.9779,2.9767,2.9716,2.9252,2.8486,2.7911,2.7644,2.7238,2.6984,2.6834,2.6849,2.7034,2.67,2.67,2.6537,2.6524,2.6487,2.6427,2.6305,2.6103,2.5961,2.5978,2.6065,2.6363,2.6675,2.7158,2.7646,2.8066,2.8439,2.8781,2.9198,2.9615,2.9779,2.9779,2.9746,2.9635,2.9332,2.8966,2.9281,2.9721,2.962,2.9468,2.9391,2.8653,2.8574,2.0596,2.0596,2.0596,2.0596,2.0596,2.0596,2.0596,2.0596,2.0596,2.0596,2.0596,2.0596,2.0596,2.0635,2.0742,2.1241,2.1808,2.2002,2.2391,2.3075,2.3343,2.3908,2.4755,2.587,2.6973,2.8136,2.8976,2.9514,2.9779,2.9779,2.9779,2.9842,2.988,2.9905,2.9817,2.9817,3.0093,3.0457,3.0105,3.0281,3.0407,3.0156,2.9955,2.993,2.9817,2.9792,2.9779,2.9779,2.9779,2.9779,2.9779,2.9779,2.9779,2.9779,2.9779,2.9779,2.9779,2.9779,2.9779,2.9779,2.9779,2.9779,2.9779,2.9779,2.9779,2.9779,2.9779,2.9779,2.9779,2.9779,2.9779,2.9779,2.9729,2.9465,2.8699,2.8202,2.7936,2.763,2.7392,2.7276,2.7636,2.7859,2.7305,2.6922,2.6688,2.6575,2.6512,2.6444,2.6355,2.6288,2.6141,2.6274,2.6407,2.6854,2.7231,2.7745,2.8216,2.8654,2.8994,2.9264,2.9451,2.9684,2.9779,2.9779,2.9447,2.9123,2.8654,2.819,2.8706,2.9194,2.9464,2.9455,2.9582,2.9608,2.9363,2.0596,2.0596,2.0596,2.0596,2.0596,2.0596,2.0596,2.0596,2.0596,2.0596,2.0596,2.0596,2.0596,2.0664,2.0898,2.1289,2.1837,2.2266,2.2664,2.3045,2.3101,2.3288,2.4006,2.4967,2.6026,2.7055,2.8119,2.9236,2.9779,2.9779,2.9779,2.9829,3.0156,3.0331,3.0457,3.0608,3.103,3.1085,3.0959,3.0947,3.1035,3.0645,3.0312,3.0287,3.0005,2.9854,2.9829,2.9842,2.9804,2.9829,2.9842,2.9779,2.9779,2.9779,2.9779,2.9779,2.9779,2.9779,2.9779,2.9779,2.9779,2.9779,2.9779,2.9779,2.9779,2.9779,2.9779,2.9779,2.9779,2.9779,2.9779,2.9779,2.9741,2.9641,2.9139,2.8773,2.8469,2.8114,2.7837,2.7829,2.8044,2.8133,2.7822,2.7406,2.7105,2.6944,2.6894,2.6617,2.6469,2.6444,2.6377,2.6556,2.6776,2.729,2.7784,2.8267,2.875,2.9177,2.9409,2.9578,2.9754,2.9779,2.9651,2.9588,2.9062,2.8534,2.7927,2.7566,2.8114,2.8558,2.8796,2.9298,2.9671,2.9735,2.9684,2.0596,2.0596,2.0596,2.0596,2.0596,2.0596,2.0596,2.0596,2.0596,2.0596,2.0596,2.0596,2.0596,2.0684,2.0879,2.1366,2.1865,2.2148,2.2664,2.3013,2.3101,2.3157,2.3507,2.4242,2.5557,2.6502,2.7594,2.8688,2.974,2.9779,2.9779,2.9955,3.0495,3.0809,3.0984,3.1185,3.1469,3.1499,3.1474,3.1399,3.1424,3.1198,3.0783,3.0557,3.0306,3.0086,3.003,2.9967,2.9892,2.9967,2.9917,2.9804,2.9779,2.9779,2.9779,2.9779,2.9779,2.9779,2.9779,2.9779,2.9779,2.9779,2.9779,2.9779,2.9779,2.9779,2.9779,2.9779,2.9779,2.9779,2.9779,2.9779,2.9754,2.9654,2.939,2.9012,2.8831,2.8456,2.8394,2.8373,2.8565,2.8531,2.8342,2.7953,2.7602,2.7454,2.7306,2.6974,2.6659,2.6648,2.6677,2.6821,2.714,2.7661,2.8221,2.8787,2.9252,2.9704,2.9779,2.9779,2.9779,2.9779,2.9588,2.9273,2.8657,2.7975,2.713,2.6925,2.7195,2.7615,2.8055,2.8708,2.9573,2.9779,2.9779,2.0596,2.0596,2.0596,2.0596,2.0596,2.0596,2.0596,2.0596,2.0596,2.0596,2.0596,2.0596,2.0596,2.0596,2.0635,2.1104,2.1778,2.1954,2.2451,2.2898,2.3064,2.3071,2.3408,2.4113,2.5231,2.6431,2.7473,2.8391,2.9611,2.9779,2.9779,2.9993,3.0658,3.0972,3.1148,3.1336,3.1708,3.1976,3.1989,3.1989,3.2064,3.17,3.1298,3.0997,3.0726,3.0645,3.0495,3.0269,3.0244,3.0206,3.0093,2.988,2.9779,2.9779,2.9779,2.9779,2.9779,2.9779,2.9779,2.9779,2.9779,2.9779,2.9779,2.9779,2.9779,2.9779,2.9779,2.9779,2.9779,2.9779,2.9779,2.9779,2.9779,2.9591,2.9333,2.9151,2.9054,2.8934,2.8948,2.9066,2.9355,2.9314,2.8938,2.8537,2.8125,2.8011,2.7822,2.7471,2.7173,2.6984,2.7017,2.7082,2.747,2.8008,2.8578,2.9107,2.9428,2.9779,2.9779,2.9779,2.9779,2.9683,2.9352,2.8919,2.8203,2.7391,2.6278,2.5899,2.6,2.6597,2.7909,2.8692,2.9733,2.9779,2.9779,2.0596,2.0596,2.0596,2.0596,2.0596,2.0596,2.0596,2.0596,2.0596,2.0596,2.0596,2.0596,2.0596,2.0615,2.0889,2.1171,2.1562,2.2012,2.2362,2.2723,2.3003,2.3062,2.3244,2.3637,2.484,2.6016,2.7058,2.8019,2.9436,2.9779,2.9779,2.993,3.0557,3.0821,3.1009,3.1223,3.1913,3.2424,3.2399,3.2562,3.2554,3.224,3.1876,3.1604,3.1278,3.1185,3.0984,3.0595,3.0512,3.0457,3.0068,2.9804,2.9779,2.9779,2.9779,2.9779,2.9779,2.9779,2.9779,2.9779,2.9779,2.9779,2.9779,2.9779,2.9779,2.9779,2.9779,2.9779,2.9779,2.9779,2.9779,2.9779,2.9779,2.9654,2.949,2.9439,2.9366,2.9373,2.9368,2.9438,2.9747,2.9684,2.9314,2.9043,2.8674,2.8568,2.8381,2.805,2.7704,2.7536,2.7386,2.745,2.7857,2.8409,2.8799,2.9283,2.9553,2.9779,2.9779,2.9779,2.9779,2.9588,2.913,2.8238,2.7075,2.6123,2.5221,2.5285,2.5976,2.7309,2.8578,2.919,2.9675,2.9753,2.9779,2.0596,2.0596,2.0596,2.0596,2.0596,2.0596,2.0596,2.0596,2.0596,2.0596,2.0596,2.0596,2.0596,2.0674,2.0986,2.1307,2.1602,2.2168,2.2576,2.2838,2.2974,2.3052,2.3101,2.3288,2.4553,2.5724,2.6812,2.7718,2.9248,2.9779,2.9779,2.9842,3.0357,3.0557,3.0783,3.116,3.1675,3.221,3.255,3.2851,3.2817,3.2692,3.2516,3.2181,3.1825,3.1675,3.1381,3.0901,3.0651,3.0545,3.008,2.9792,2.9779,2.9779,2.9779,2.9779,2.9779,2.9779,2.9779,2.9779,2.9779,2.9779,2.9779,2.9779,2.9779,2.9779,2.9779,2.9779,2.9779,2.9779,2.9779,2.9779,2.9779,2.9767,2.9767,2.9767,2.9747,2.9747,2.9767,2.9767,2.9779,2.9779,2.9614,2.9384,2.9252,2.9212,2.9169,2.9,2.8562,2.8143,2.7945,2.7862,2.8298,2.8819,2.9145,2.9396,2.9628,2.9779,2.9779,2.9779,2.9779,2.9433,2.8907,2.7365,2.5608,2.4914,2.4454,2.5673,2.6609,2.7859,2.8846,2.9438,2.9733,2.9753,2.9779,2.0596,2.0596,2.0596,2.0596,2.0596,2.0596,2.0615,2.0635,2.0684,2.0625,2.0605,2.0596,2.0625,2.0781,2.1064,2.1454,2.1807,2.2274,2.2625,2.3042,2.3062,2.3101,2.3101,2.3244,2.4275,2.5641,2.6812,2.7617,2.9209,2.9779,2.9792,2.9829,3.0231,3.0432,3.0495,3.0796,3.1173,3.1461,3.1863,3.219,3.2754,3.2867,3.2805,3.2428,3.2206,3.2064,3.1524,3.106,3.0645,3.0457,3.0156,2.9817,2.9779,2.9779,2.9779,2.9779,2.9779,2.9779,2.9779,2.9779,2.9779,2.9779,2.9779,2.9779,2.9779,2.9779,2.9779,2.9779,2.9779,2.9779,2.9779,2.9779,2.9779,2.9779,2.9779,2.9779,2.9779,2.9779,2.9779,2.9779,2.9779,2.9779,2.976,2.9524,2.9512,2.9665,2.9653,2.9583,2.9358,2.8812,2.8604,2.8398,2.8794,2.9195,2.9264,2.9484,2.9679,2.9779,2.9779,2.9779,2.9779,2.9289,2.8655,2.6762,2.4819,2.4337,2.4206,2.5558,2.6883,2.7868,2.8787,2.9527,2.9804,2.9866,2.9835,2.0596,2.0596,2.0596,2.0596,2.0596,2.0596,2.0781,2.1045,2.1064,2.0879,2.0654,2.0654,2.0801,2.1074,2.123,2.1562,2.1953,2.2371,2.2549,2.2791,2.2955,2.3101,2.3101,2.3157,2.4049,2.502,2.6224,2.779,2.9307,2.9779,2.9779,2.9792,3.003,3.0068,3.0068,3.0331,3.0482,3.0864,3.1065,3.1654,3.239,3.2528,3.2441,3.2688,3.2801,3.2491,3.1989,3.1499,3.1022,3.0633,3.008,2.9842,2.9779,2.9779,2.9779,2.9779,2.9779,2.9779,2.9779,2.9779,2.9779,2.9779,2.9779,2.9779,2.9779,2.9779,2.9779,2.9779,2.9779,2.9779,2.9779,2.9779,2.9779,2.9779,2.9779,2.9779,2.9779,2.9779,2.9779,2.9779,2.9779,2.9779,2.9779,2.9779,2.9779,2.9779,2.9767,2.9722,2.971,2.9403,2.9328,2.9202,2.9352,2.9597,2.9591,2.9578,2.9729,2.9779,2.9779,2.9779,2.9779,2.8637,2.7479,2.5815,2.4267,2.4136,2.4562,2.5832,2.7046,2.7973,2.8863,2.9656,3.0031,3.0127,3.0018,2.0596,2.0596,2.0596,2.0596,2.0596,2.0596,2.0723,2.0937,2.1123,2.1074,2.0928,2.1084,2.1319,2.1562,2.1688,2.1835,2.2217,2.2586,2.2781,2.2898,2.2916,2.3052,2.3101,2.3157,2.4425,2.542,2.7229,2.8811,2.9663,2.9779,2.9779,2.9792,2.9792,2.9733,2.9753,2.9822,3.0041,3.0588,3.0593,3.1235,3.2102,3.2265,3.2516,3.2927,3.3014,3.2729,3.2353,3.1863,3.1512,3.0997,3.0482,3.0018,2.988,2.9779,2.9779,2.9779,2.9779,2.9779,2.9779,2.9779,2.9779,2.9779,2.9779,2.9779,2.9779,2.9779,2.9779,2.9779,2.9779,2.9779,2.9779,2.9779,2.9779,2.9779,2.9779,2.9779,2.9779,2.9779,2.9779,2.9779,2.9779,2.9779,2.9779,2.9779,2.9779,2.9779,2.9779,2.9779,2.9779,2.9779,2.9779,2.9779,2.9779,2.9779,2.9716,2.9704,2.9754,2.9779,2.9779,2.9702,2.9468,2.7766,2.6191,2.5327,2.4745,2.4587,2.5241,2.6462,2.7244,2.8112,2.8988,2.9848,3.0116,3.0409,3.0464,2.0596,2.0596,2.0596,2.0596,2.0596,2.0596,2.0713,2.0859,2.1142,2.1405,2.1571,2.1914,2.2032,2.2109,2.2314,2.2471,2.2635,2.2869,2.3013,2.3042,2.3071,2.3101,2.3101,2.3222,2.4531,2.6233,2.8079,2.9,2.976,2.9779,2.9792,2.9772,2.9688,2.9571,2.966,2.974,2.9863,3.0318,3.0652,3.1283,3.1813,3.2227,3.2579,3.2889,3.3052,3.2788,3.2403,3.2127,3.1888,3.1399,3.0809,3.0294,2.9942,2.9779,2.9779,2.9779,2.9779,2.9779,2.9779,2.9779,2.9779,2.9779,2.9779,2.9779,2.9779,2.9779,2.9779,2.9779,2.9779,2.9779,2.9779,2.9779,2.9779,2.9779,2.9779,2.9779,2.9779,2.9779,2.9779,2.9779,2.9779,2.9779,2.9779,2.9779,2.9779,2.9779,2.9779,2.9779,2.9779,2.9779,2.9779,2.9779,2.9779,2.9779,2.9779,2.9779,2.9779,2.9779,2.976,2.9643,2.9079,2.7464,2.6332,2.592,2.5444,2.5337,2.6023,2.7166,2.7844,2.8542,2.9329,3.0177,3.0423,3.0727,3.1012,2.0596,2.0596,2.0596,2.0596,2.0596,2.0596,2.0977,2.1593,2.1699,2.2098,2.2508,2.2701,2.2723,2.2383,2.243,2.2606,2.2908,2.3071,2.3081,2.3091,2.3101,2.3101,2.3288,2.3647,2.4638,2.6316,2.8019,2.887,2.9793,2.988,2.9765,2.9713,2.8781,2.8719,2.8979,2.9148,2.9492,3.0064,3.093,3.1637,3.198,3.2344,3.2566,3.2864,3.309,3.2726,3.2378,3.2227,3.1876,3.1424,3.0972,3.047,3.0093,2.9892,2.9892,2.988,2.9867,2.9779,2.9779,2.9779,2.9779,2.9779,2.9779,2.9779,2.9779,2.9779,2.9779,2.9779,2.9779,2.9779,2.9779,2.9779,2.9779,2.9779,2.9779,2.9779,2.9779,2.9779,2.9779,2.9779,2.9779,2.9779,2.9779,2.9779,2.9779,2.9779,2.9779,2.9779,2.9779,2.9779,2.9779,2.9779,2.9779,2.9779,2.9779,2.9779,2.9779,2.9779,2.9643,2.9287,2.8509,2.7203,2.6349,2.6426,2.6315,2.6175,2.7023,2.8162,2.8771,2.9472,2.9995,3.0568,3.0807,3.1137,3.1499]},{"header":{"parameterUnit":"m.s-1","parameterCategory":1,"la1":31.0,"la2":29.5877,"lo1":-88.7671,"lo2":-86.6584,"dy":0.0162,"dx":0.0185,"nx":115,"ny":88,"refTime":"2023-09-21T12:00:00:Z","depth":0,"parameterNumber":3,"parameterNumberName":"V-component_of_WINDS"},"data":[0.0,0.0,0.0,0.0,0.0,0.0,0.0,0.0,0.0,0.0,0.0,0.0,0.0,0.0,0.0,0.0,0.0,0.0,0.0,0.0,0.0,0.0,0.0,0.0,0.0,0.0,0.0,0.0,0.0,0.0,0.0,0.0,0.0,0.0,0.0,0.0,0.0,0.0,0.0,0.0,0.0,0.0,0.0,0.0,0.0,0.0,0.0,0.0,0.0,0.0,0.0,0.0,0.0,0.0,0.0,0.0,0.0,0.0,0.0,0.0,0.0,0.0,0.0,0.0,0.0,0.0,0.0,0.0,0.0,0.0,0.0,0.0,0.0,0.0,0.0,0.0,0.0,0.0,0.0,0.0,0.0,0.0,0.0,0.0,0.0,0.0,0.0,0.0,0.0,0.0,0.0,0.0,0.0,0.0,0.0,0.0,0.0,0.0,0.0,0.0,0.0,0.0,0.0,0.0,0.0,0.0,0.0,0.0,0.0,0.0,0.0,0.0,0.0,0.0,0.0,0.0,0.0,0.0,0.0,0.0,0.0,0.0,0.0,0.0,0.0,0.0,0.0,0.0,0.0,0.0,0.0,0.0,0.0,0.0,0.0,0.0,0.0,0.0,0.0,0.0,0.0,0.0,0.0,0.0,0.0,0.0,0.0,0.0,0.0,0.0,0.0,0.0,0.0,0.0,0.0,0.0,0.0,0.0,0.0,0.0,0.0,0.0,0.0,0.0,0.0,0.0,0.0,0.0,0.0,0.0,0.0,0.0,0.0,0.0,0.0,0.0,0.0,0.0,0.0,0.0,0.0,0.0,0.0,0.0,0.0,0.0,0.0,0.0,0.0,0.0,0.0,0.0,0.0,0.0,0.0,0.0,0.0,0.0,0.0,0.0,0.0,0.0,0.0,0.0,0.0,0.0,0.0,0.0,0.0,0.0,0.0,0.0,0.0,0.0,0.0,0.0,0.0,0.0,0.0,0.0,0.0,0.0,0.0,0.0,0.0,0.0,0.0,0.0,0.0,0.0,0.0,0.0,0.0,0.0,0.0,0.0,0.0,0.0,0.0,0.0,0.0,0.0,0.0,0.0,0.0,0.0,0.0,0.0,0.0,0.0,0.0,0.0,0.0,0.0,0.0,0.0,0.0,0.0,0.0,0.0,0.0,0.0,0.0,0.0,0.0,0.0,0.0,0.0,0.0,0.0,0.0,0.0,0.0,0.0,0.0,0.0,0.0,0.0,0.0,0.0,0.0,0.0,0.0,0.0,0.0,0.0,0.0,0.0,0.0,0.0,0.0,0.0,0.0,0.0,0.0,0.0,0.0,0.0,0.0,0.0,0.0,0.0,0.0,0.0,0.0,0.0,0.0,0.0,0.0,0.0,0.0,0.0,0.0,0.0,0.0,0.0,0.0,0.0,0.0,0.0,0.0,0.0,0.0,0.0,0.0,0.0,0.0,0.0,0.0,0.0,0.0,0.0,0.0,0.0,0.0,0.0,0.0,0.0,0.0,0.0,0.0,0.0,0.0,0.0,0.0,0.0,0.0,0.0,0.0,0.0,0.0,0.0,0.0,0.0,0.0,0.0,0.0,0.0,0.0,0.0,0.0,0.0,0.0,0.0,0.0,0.0,0.0,0.0,0.0,0.0,0.0,0.0,0.0,0.0,0.0,0.0,0.0,0.0,0.0,0.0,0.0,0.0,0.0,0.0,0.0,0.0,0.0,0.0,0.0,0.0,0.0,0.0,0.0,0.0,0.0,0.0,0.0,0.0,0.0,0.0,0.0,0.0,0.0,0.0,0.0,0.0,0.0,0.0,0.0,0.0,0.0,0.0,0.0,0.0,0.0,0.0,0.0,0.0,0.0,0.0,0.0,0.0,0.0,0.0,0.0,0.0,0.0,0.0,0.0,0.0,0.0,0.0,0.0,0.0,0.0,0.0,0.0,0.0,0.0,0.0,0.0,0.0,0.0,0.0,0.0,0.0,0.0,0.0,0.0,0.0,0.0,0.0,0.0,0.0,0.0,0.0,0.0,0.0,0.0,0.0,0.0,0.0,0.0,0.0,0.0,0.0,0.0,0.0,0.0,0.0,0.0,0.0,0.0,0.0,0.0,0.0,0.0,0.0,0.0,0.0,0.0,0.0,0.0,0.0,0.0,0.0,0.0,0.0,0.0,0.0,0.0,0.0,0.0,0.0,0.0,0.0,0.0,0.0,0.0,0.0,0.0,0.0,0.0,0.0,0.0,0.0,0.0,0.0,0.0,0.0,0.0,0.0,0.0,0.0,0.0,0.0,0.0,0.0,0.0,0.0,0.0,0.0,0.0,0.0,0.0,0.0,0.0,0.0,0.0,0.0,0.0,0.0,0.0,0.0,0.0,0.0,0.0,0.0,0.0,0.0,0.0,0.0,0.0,0.0,0.0,0.0,0.0,0.0,0.0,0.0,0.0,0.0,0.0,0.0,0.0,0.0,0.0,0.0,0.0,0.0,0.0,0.0,0.0,0.0,0.0,0.0,0.0,0.0,0.0,0.0,0.0,0.0,0.0,0.0,0.0,0.0,0.0,0.0,0.0,0.0,0.0,0.0,0.0,0.0,0.0,0.0,0.0,0.0,0.0,0.0,0.0,0.0,0.0,0.0,0.0,0.0,0.0,0.0,0.0,0.0,0.0,0.0,0.0,0.0,0.0,0.0,0.0,0.0,0.0,0.0,0.0,0.0,0.0,0.0,0.0,0.0,0.0,0.0,0.0,0.0,0.0,0.0,0.0,0.0,0.0,0.0,0.0,0.0,0.0,0.0,0.0,0.0,0.0,0.0,0.0,0.0,0.0,0.0,0.0,0.0,0.0,0.0,0.0,0.0,0.0,0.0,0.0,0.0,0.0,0.0,0.0,0.0,0.0,0.0,0.0,0.0,0.0,0.0,0.0,0.0,0.0,0.0,0.0,0.0,0.0,0.0,0.0,0.0,0.0,0.0,0.0,0.0,0.0,0.0,0.0,0.0,0.0,0.0,0.0,0.0,0.0,0.0,0.0,0.0,0.0,0.0,0.0,0.0,0.0,0.0,0.0,0.0,0.0,0.0,0.0,0.0,0.0,0.0,0.0,0.0,0.0,0.0,0.0,0.0,0.0,0.0,0.0,0.0,0.0,0.0,0.0,0.0,0.0,0.0,0.0,0.0,0.0,0.0,0.0,0.0,0.0,0.0,0.0,0.0,0.0,0.0,0.0,0.0,0.0,0.0,0.0,0.0,0.0,0.0,0.0,0.0,0.0,0.0,0.0,0.0,0.0,0.0,0.0,0.0,0.0,0.0,0.0,0.0,0.0,0.0,0.0,0.0,0.0,0.0,0.0,0.0,0.0,0.0,0.0,0.0,0.0,0.0,0.0,0.0,0.0,0.0,0.0,0.0,0.0,0.0,0.0,0.0,0.0,0.0,0.0,0.0,0.0,0.0,0.0,0.0,0.0,0.0,0.0,0.0,0.0,0.0,0.0,0.0,0.0,0.0,0.0,0.0,0.0,0.0,0.0,0.0,0.0,0.0,0.0,0.0,0.0,0.0,0.0,0.0,0.0,0.0,0.0,0.0,0.0,0.0,0.0,0.0,0.0,0.0,0.0,0.0,0.0,0.0,0.0,0.0,0.0,0.0,0.0,0.0,0.0,0.0,0.0,0.0,0.0,0.0,0.0,0.0,0.0,0.0,0.0,0.0,0.0,0.0,0.0,0.0,0.0,0.0,0.0,0.0,0.0,0.0,0.0,0.0,0.0,0.0,0.0,0.0,0.0,0.0,0.0,0.0,0.0,0.0,0.0,0.0,0.0,0.0,0.0,0.0,0.0,0.0,0.0,0.0,0.0,0.0,0.0,0.0,0.0,0.0,0.0,0.0,0.0,0.0,0.0,0.0,0.0,0.0,0.0,0.0,0.0,0.0,0.0,0.0,0.0,0.0,0.0,0.0,0.0,0.0,0.0,0.0,0.0,0.0,0.0,0.0,0.0,0.0,0.0,0.0,0.0,0.0,0.0,0.0,0.0,0.0,0.0,0.0,0.0,0.0,0.0,0.0,0.0,0.0,0.0,0.0,0.0,0.0,0.0,0.0,0.0,0.0,0.0,0.0,0.0,0.0,0.0,0.0,0.0,0.0,0.0,0.0,0.0,0.0,0.0,0.0,0.0,0.0,0.0,0.0,0.0,0.0,0.0,0.0,0.0,0.0,0.0,0.0,0.0,0.0,0.0,0.0,0.0,0.0,0.0,0.0,0.0,0.0,0.0,0.0,0.0,0.0,0.4198,0.0,0.0,0.0,0.0,0.0,0.0,0.0,0.0,0.0,0.0,0.0,0.0,0.0,0.0,0.0,0.0,0.0,0.0,0.0,0.0,0.0,0.0,0.0,0.0,0.0,0.0,0.0,0.0,0.0,0.0,0.0,0.0,0.0,0.0,0.0,0.0,0.0,0.0,0.0,0.0,0.0,0.0,0.0,0.0,0.0,0.0,0.0,0.0,0.0,0.0,0.0,0.0,0.0,0.0,0.0,0.0,0.0,0.0,0.0,0.0,0.0,0.0,0.0,0.0,0.0,0.0,0.0,0.0,0.0,0.0,0.0,0.0,0.0,0.0,0.0,0.0,0.0,0.0,0.0,0.0,0.0,0.0,0.0,0.0,0.0,0.0,0.0,0.0,0.0,0.0,0.0,0.0,0.0,0.0,0.0,0.0,0.0,0.0,0.0,0.0,0.0,0.0,0.0,0.0,0.0,0.0,0.0,0.0,0.0,0.0,0.4021,0.4078,0.4028,0.4099,0.4288,0.0,0.0,0.0,0.0,0.0,0.0,0.0,0.0,0.0,0.0,0.0,0.0,0.0,0.0,0.0,0.0,0.0,0.0,0.0,0.0,0.0,0.0,0.0,0.0,0.0,0.0,0.0,0.0,0.0,0.0,0.0,0.0,0.0,0.0,0.0,0.0,0.0,0.0,0.0,0.0,0.0,0.0,0.0,0.0,0.0,0.0,0.0,0.0,0.0,0.0,0.0,0.0,0.0,0.0,0.0,0.0,0.0,0.0,0.0,0.0,0.0,0.0,0.0,0.0,0.0,0.0,0.0,0.0,0.0,0.0,0.0,0.0,0.0,0.0,0.0,0.0,0.0,0.0,0.0,0.0,0.0,0.0,0.0,0.0,0.0,0.0,0.0,0.0,0.0,0.0,0.0,0.0,0.0,0.0,0.0,0.0,0.0,0.0,0.0,0.0,0.0,0.0,0.0,0.0,0.0,0.0,0.0,0.0,0.0,0.0,0.0,0.0,0.4387,0.4435,0.4546,0.0,0.0,0.0,0.0,0.0,0.0,0.0,0.0,0.0,0.0,0.0,0.0,0.0,0.0,0.0,0.0,0.0,0.0,0.0,0.0,0.0,0.0,0.0,0.0,0.0,0.0,0.0,0.0,0.0,0.0,0.0,0.0,0.0,0.0,0.0,0.0,0.0,0.0,0.0,0.0,0.0,0.0,0.0,0.0,0.0,0.0,0.0,0.0,0.0,0.0,0.0,0.0,0.0,0.0,0.0,0.0,0.0,0.0,0.0,0.0,0.0,0.0,0.0,0.0,0.0,0.0,0.0,0.0,0.0,0.0,0.0,0.0,0.0,0.0,0.0,0.0,0.0,0.0,0.0,0.0,0.0,0.0,0.0,0.0,0.0,0.0,0.0,0.0,0.0,0.0,0.0,0.0,0.0,0.0,0.0,0.0,0.0,0.0,0.0,0.0,0.0,0.0,0.0,0.0,0.0,0.0,0.0,0.0,0.0,0.0,0.4893,0.5514,0.5536,0.0,0.5567,0.0,0.0,0.0,0.0,0.0,0.0,0.0,0.0,0.0,0.0,0.0,0.0,0.0,0.0,0.0,0.0,0.0,0.0,0.0,0.0,0.0,0.0,0.0,0.0,0.0,0.0,0.0,0.0,0.0,0.0,0.0,0.0,0.0,0.0,0.0,0.0,0.0,0.0,0.0,0.0,0.0,0.0,0.0,0.0,0.0,0.0,0.0,0.0,0.0,0.0,0.0,0.0,0.0,0.0,0.0,0.0,0.0,0.0,0.0,0.0,0.0,0.0,0.0,0.0,0.0,0.0,0.0,0.0,0.0,0.0,0.0,0.0,0.0,0.0,0.0,0.0,0.0,0.0,0.0,0.0,0.0,0.0,0.0,0.0,0.0,0.0,0.0,0.0,0.0,0.0,0.0,0.0,0.0,0.0,0.0,0.0,0.0,0.0,0.0,0.0,0.0,0.0,0.0,0.0,0.0,0.0,0.0,0.0,0.0,0.0,0.4946,0.5696,0.5711,0.5623,0.0,0.0,0.0,0.0,0.0,0.0,0.0,0.0,0.0,0.0,0.0,0.0,0.0,0.0,0.0,0.0,0.0,0.0,0.0,0.0,0.0,0.0,0.0,0.0,0.0,0.0,0.0,0.0,0.0,0.0,0.0,0.0,0.0,0.0,0.0,0.0,0.0,0.0,0.0,0.0,0.0,0.0,0.0,0.0,0.0,0.0,0.0,0.0,0.0,0.0,0.0,0.0,0.0,0.0,0.0,0.0,0.0,0.0,0.0,0.0,0.0,0.0,0.0,0.0,0.0,0.0,0.0,0.0,0.0,0.0,0.0,0.0,0.0,0.0,0.0,0.0,0.0,0.0,0.0,0.0,0.0,0.0,0.0,0.0,0.0,0.0,0.0,0.0,0.0,0.0,0.0,0.0,0.0,0.0,0.0,0.0,0.0,0.0,0.0,0.0,0.0,0.0,0.0,0.0,0.0,0.0,0.0,0.0,0.0,0.0,0.4674,0.5081,0.5788,0.5687,0.5531,0.542,0.0,0.0,0.0,0.0,0.0,0.0,0.0,0.0,0.0,0.0,0.0,0.0,0.0,0.0,0.0,0.0,0.0,0.0,0.0,0.0,0.0,0.0,0.0,0.0,0.0,0.0,0.0,0.0,0.0,0.0,0.0,0.0,0.0,0.0,0.0,0.0,0.0,0.0,0.0,0.0,0.0,0.0,0.0,0.0,0.0,0.0,0.0,0.0,0.0,0.0,0.0,0.0,0.0,0.0,0.0,0.0,0.0,0.0,0.0,0.0,0.0,0.0,0.0,0.0,0.0,0.0,0.0,0.0,0.0,0.0,0.0,0.0,0.0,0.0,0.0,0.0,0.0,0.0,0.0,0.0,0.0,0.0,0.0,0.0,0.0,0.0,0.0,0.0,0.0,0.0,0.0,0.0,0.0,0.0,0.0,0.0,0.0,0.0,0.0,0.0,0.0,0.0,0.0,0.0,0.0,0.0,0.0,0.0,0.4374,0.4836,0.5428,0.6115,0.5625,0.5424,0.0,0.0,0.0,0.0,0.0,0.0,0.0,0.0,0.0,0.0,0.0,0.0,0.0,0.0,0.0,0.0,0.0,0.0,0.0,0.0,0.0,0.0,0.0,0.0,0.0,0.0,0.0,0.0,0.0,0.0,0.0,0.0,0.0,0.0,0.0,0.0,0.0,0.0,0.0,0.0,0.0,0.0,0.0,0.0,0.0,0.0,0.0,0.0,0.0,0.0,0.0,0.0,0.0,0.0,0.0,0.0,0.0,0.0,0.0,0.0,0.0,0.0,0.0,0.0,0.0,0.0,0.0,0.0,0.0,0.0,0.0,0.0,0.0,0.0,0.0,0.0,0.0,0.0,0.0,0.0,0.0,0.0,0.0,0.0,0.0,0.0,0.0,0.0,0.0,0.0,0.0,0.0,0.0,0.0,0.0,0.0,0.0,0.0,0.0,0.0,0.0,0.0,0.0,0.0,0.0,0.0,0.0,0.0,0.0,0.3698,0.4625,0.5351,0.585,0.5912,0.5983,0.0,0.0,0.0,0.0,0.0,0.0,0.0,0.0,0.0,0.0,0.0,0.0,0.0,0.0,0.0,0.0,0.0,0.0,0.0,0.0,0.0,0.0,0.0,0.0,0.0,0.0,0.0,0.0,0.0,0.0,0.0,0.0,0.0,0.0,0.0,0.0,0.0,0.0,0.0,0.0,0.0,0.0,0.0,0.0,0.0,0.0,0.0,0.0,0.0,0.0,0.0,0.0,0.0,0.0,0.0,0.0,0.0,0.0,0.0,0.0,0.0,0.0,0.0,0.0,0.0,0.0,0.0,0.0,0.0,0.0,0.0,0.0,0.0,0.0,0.0,0.0,0.0,0.0,0.0,0.0,0.0,0.0,0.0,0.0,0.0,0.0,0.0,0.0,0.0,0.0,0.0,0.0,0.0,0.0,0.0,0.0,0.0,0.0,0.0,0.0,0.0,0.0,0.0,0.0,0.0,0.0,0.0,0.0,0.0,0.4071,0.0,0.5331,0.5679,0.6014,0.6163,0.0,0.0,0.0,0.0,0.0,0.0,0.0,0.0,0.0,0.0,0.0,0.0,0.0,0.0,0.0,0.0,0.0,0.0,0.0,0.0,0.0,0.0,0.0,0.0,0.0,0.0,0.0,0.0,0.0,0.0,0.0,0.0,0.0,0.0,0.0,0.0,0.0,0.0,0.0,0.0,0.0,0.0,0.0,0.0,0.0,0.0,0.0,0.0,0.0,0.0,0.0,0.0,0.0,0.0,0.0,0.0,0.0,0.0,0.0,0.0,0.0,0.0,0.0,0.0,0.0,0.0,0.0,0.0,0.0,0.0,0.0,0.0,0.0,0.0,0.0,0.0,0.0,0.0,0.0,0.0,0.0,0.0,0.0,0.0,0.0,0.0,0.0,0.0,0.0,0.0,0.0,0.0,0.0,0.0,0.0,0.0,0.0,0.0,0.0,0.0,0.0,0.0,0.0,0.0,0.0,0.0,0.0,0.0,0.4537,0.5593,0.5397,0.5441,0.5715,0.5875,0.5944,0.0,0.0,0.0,0.0,0.0,0.0,0.0,0.0,0.0,0.0,0.0,0.0,0.0,0.0,0.0,0.0,0.0,0.0,0.0,0.0,0.0,0.0,0.0,0.0,0.0,0.0,0.0,0.0,0.0,0.0,0.0,0.0,0.0,0.0,0.0,0.0,0.0,0.0,0.0,0.0,0.0,0.0,0.0,0.0,0.0,0.0,0.0,0.0,0.0,0.0,0.0,0.0,0.0,0.0,0.0,0.0,0.0,0.0,0.0,0.0,0.0,0.0,0.0,0.0,0.0,0.0,0.0,0.0,0.0,0.0,0.0,0.0,0.0,0.0,0.0,0.0,0.0,0.0,0.0,0.0,0.0,0.0,0.0,0.0,0.0,0.0,0.0,0.0,0.0,0.0,0.0,0.0,0.0,0.0,0.0,0.0,0.0,0.0,0.0,0.0,0.0,0.0,0.0,0.0,0.0,0.0,0.0,0.0,0.0,0.5254,0.5203,0.5718,0.6793,0.6517,0.6672,0.0,0.0,0.0,0.0,0.0,0.0,0.0,0.0,0.0,0.0,0.0,0.0,0.0,0.0,0.0,0.0,0.0,0.0,0.0,0.0,0.0,0.0,0.0,0.0,0.0,0.0,0.0,0.0,0.0,0.0,0.0,0.0,0.0,0.0,0.0,0.0,0.0,0.0,0.0,0.0,0.0,0.0,0.0,0.0,0.0,0.0,0.0,0.0,0.0,0.0,0.0,0.0,0.0,0.0,0.0,0.0,0.0,0.0,0.0,0.0,0.0,0.0,0.0,0.0,0.0,0.0,0.0,0.0,0.0,0.0,0.0,0.0,0.0,0.0,0.0,0.0,0.0,0.0,0.0,0.0,0.0,0.0,0.0,0.0,0.0,0.0,0.0,0.0,0.0,0.0,0.0,0.0,0.0,0.0,0.0,0.0,0.0,0.0,0.0,0.0,0.0,0.0,0.0,0.0,0.0,0.0,0.0,0.0,0.0,0.5636,0.5566,0.6026,0.7088,0.7077,0.7349,0.7956,0.0,0.0,0.0,0.0,0.0,0.0,0.0,0.0,0.0,0.0,0.0,0.0,0.0,0.0,0.0,0.0,0.0,0.0,0.0,0.0,0.0,0.0,0.0,0.0,0.0,0.0,0.0,0.0,0.0,0.0,0.0,0.0,0.0,0.0,0.0,0.0,0.0,0.0,0.0,0.0,0.0,0.0,0.0,0.0,0.0,0.0,0.0,0.0,0.0,0.0,0.0,0.0,0.0,0.0,0.0,0.0,0.0,0.0,0.0,0.0,0.0,0.0,0.0,0.0,0.0,0.0,0.0,0.0,0.0,0.0,0.0,0.0,0.0,0.0,0.0,0.0,0.0,0.0,0.0,0.0,0.0,0.0,0.0,0.0,0.0,0.0,0.0,0.0,0.0,0.0,0.0,0.0,0.0,0.0,0.0,0.0,0.0,0.0,0.0,0.0,0.0,0.0,0.0,0.0,0.0,0.0,0.0,0.0,0.665,0.6422,0.6434,0.6723,0.7542,0.789,0.0,0.0,0.0,0.0,0.0,0.0,0.0,0.0,0.0,0.0,0.0,0.0,0.0,0.0,0.0,0.0,0.0,0.0,0.0,0.0,0.0,0.0,0.0,0.0,0.0,0.0,0.0,0.0,0.0,0.0,0.0,0.0,0.0,0.0,0.0,0.0,0.0,0.0,0.0,0.0,0.0,0.0,0.0,0.0,0.0,0.0,0.0,0.0,0.0,0.0,0.0,0.0,0.0,0.0,0.0,0.0,0.0,0.0,0.0,0.0,0.0,0.0,0.0,0.0,0.0,0.0,0.0,0.0,0.0,0.0,0.0,0.0,0.0,0.0,0.0,0.0,0.0,0.0,0.0,0.0,0.0,0.0,0.0,0.0,0.0,0.0,0.0,0.0,0.0,0.0,0.0,0.0,0.0,0.0,0.0,0.0,0.0,0.0,0.0,0.0,0.0,0.0,0.0,0.0,0.0,0.0,0.0,0.0,0.0,0.7232,0.7377,0.7587,0.7838,0.7956,0.8165,0.0,0.0,0.0,0.0,0.0,0.0,0.0,0.0,0.0,0.0,0.0,0.0,0.0,0.0,0.0,0.0,0.0,0.0,0.0,0.0,0.0,0.0,0.0,0.0,0.0,0.0,0.0,0.0,0.0,0.0,0.0,0.0,0.0,0.0,0.0,0.0,0.0,0.0,0.0,0.0,0.0,0.0,0.0,0.0,0.0,0.0,0.0,0.0,0.0,0.0,0.0,0.0,0.0,0.0,0.0,0.0,0.0,0.0,0.0,0.0,0.0,0.0,0.0,0.0,0.0,0.0,0.0,0.0,0.0,0.0,0.0,0.0,0.0,0.0,0.0,0.0,0.0,0.0,0.0,0.0,0.0,0.0,0.0,0.0,0.0,0.0,0.0,0.0,0.0,0.0,0.0,0.0,0.0,0.0,0.0,0.0,0.0,0.0,0.0,0.0,0.0,0.0,0.0,0.0,0.0,0.0,0.0,0.0,0.7281,0.7907,0.8632,0.9055,0.92,0.9022,0.9066,0.0,0.0,0.0,0.0,0.0,0.0,0.0,0.0,0.0,0.0,0.0,0.0,0.0,0.0,0.0,0.0,0.0,0.0,0.0,0.0,0.0,0.0,0.0,0.0,0.0,0.0,0.0,0.0,0.0,0.0,0.0,0.0,0.0,0.0,0.0,0.0,0.0,0.0,0.0,0.0,0.0,0.0,0.0,0.0,0.0,0.0,0.0,0.0,0.0,0.0,0.0,0.0,0.0,0.0,0.0,0.0,0.0,0.0,0.0,0.0,0.0,0.0,0.0,0.0,0.0,0.0,0.0,0.0,0.0,0.0,0.0,0.0,0.0,0.0,0.0,0.0,0.0,0.0,0.0,0.0,0.0,0.0,0.0,0.0,0.0,0.0,0.0,0.0,0.0,0.0,0.0,0.0,0.0,0.0,0.0,0.0,0.0,0.0,0.0,0.0,0.0,0.0,0.0,0.0,0.0,0.0,0.0,0.0,0.7853,0.8602,0.9786,1.0496,1.0592,1.0464,1.0299,0.0,0.0,0.0,0.0,0.0,0.0,0.0,0.0,0.0,0.0,0.0,0.0,0.0,0.0,0.0,0.0,0.0,0.0,0.0,0.0,0.0,0.0,0.0,0.0,0.0,0.0,0.0,0.0,0.0,0.0,0.0,0.0,0.0,0.0,0.0,0.0,0.0,0.0,0.0,0.0,0.0,0.0,0.0,0.0,0.0,0.0,0.0,0.0,0.0,0.0,0.0,0.0,0.0,0.0,0.0,0.0,0.0,0.0,0.0,0.0,0.0,0.0,0.0,0.0,0.0,0.0,0.0,0.0,0.0,0.0,0.0,0.0,0.0,0.0,0.0,0.0,0.0,0.0,0.0,0.0,0.0,0.0,0.0,0.0,0.0,0.0,0.0,0.0,0.0,0.0,0.0,0.0,0.0,0.0,0.0,0.0,0.0,0.0,0.0,0.0,0.0,0.0,0.0,0.0,0.0,0.0,0.0,0.0,0.8068,0.9179,0.9693,1.0571,1.186,1.1631,1.1211,0.0,0.0,0.0,0.0,0.0,0.0,0.0,0.0,0.0,0.0,0.0,0.0,0.0,0.0,0.0,0.0,0.0,0.0,0.0,0.0,0.0,0.0,0.0,0.0,0.0,0.0,0.0,0.0,0.0,0.0,0.0,0.0,0.0,0.0,0.0,0.0,0.0,0.0,0.0,0.0,0.0,0.0,0.0,0.0,0.0,0.0,0.0,0.0,0.8134,0.0,0.0,0.0,0.0,0.0,0.0,0.0,0.0,0.0,0.0,0.0,0.0,0.0,0.0,0.0,0.0,0.0,0.0,0.0,0.0,0.0,0.0,0.0,0.0,0.0,0.0,0.0,0.0,0.0,0.0,0.0,0.0,0.0,0.0,0.0,0.0,0.0,0.0,0.0,0.0,0.0,0.0,0.0,0.0,0.0,0.0,0.0,0.0,0.0,0.0,0.0,0.0,0.0,0.0,0.0,0.0,0.0,0.0,0.0,0.9128,1.0289,1.0813,1.155,1.254,1.2876,1.2683,0.0,0.0,0.0,0.0,0.0,0.0,0.0,0.0,0.0,0.0,0.0,0.0,0.0,0.0,0.0,0.0,0.0,0.0,0.0,0.0,0.0,0.0,0.0,0.0,0.0,0.0,0.0,0.0,0.0,0.0,0.0,0.0,0.0,0.0,0.0,0.0,0.0,0.0,0.0,0.0,0.0,0.0,0.0,0.0,0.0,0.0,0.0,0.0,0.0,0.0,0.0,0.0,0.0,0.0,0.0,0.0,0.0,0.0,0.0,0.0,0.0,0.0,0.0,0.0,0.0,0.0,0.0,0.0,0.0,0.0,0.0,0.0,0.0,0.0,0.0,0.0,0.0,0.0,0.0,0.0,0.0,0.0,0.0,0.0,0.0,0.0,0.0,0.0,0.0,0.0,0.0,0.0,0.0,0.0,0.0,0.0,0.0,0.0,0.0,0.0,0.0,0.0,0.0,0.0,0.0,0.0,0.0,0.9357,1.0285,1.141,1.2057,1.2597,1.3027,1.3864,1.405,1.3494,0.0,0.0,0.0,0.0,0.0,0.0,0.0,0.0,0.0,0.0,0.0,0.0,0.0,0.0,0.0,0.0,0.0,0.0,0.0,0.0,0.0,0.0,0.0,0.0,0.0,0.0,0.0,0.0,0.0,0.0,0.0,0.0,0.0,0.0,0.0,0.0,0.0,0.0,0.2952,0.5043,0.0,0.0,0.0,0.0,0.0,0.0,0.0,0.0,0.9039,0.0,0.0,0.0,0.0,0.0,0.0,0.0,0.0,0.0,0.0,0.0,0.0,0.0,0.0,0.0,0.0,0.0,0.0,0.0,0.0,0.0,0.0,0.0,0.0,0.0,0.0,0.0,0.0,0.0,0.0,0.0,0.0,0.0,0.0,0.0,0.0,0.0,0.0,0.0,0.0,0.0,0.0,0.0,0.0,0.0,0.0,0.0,0.0,0.0,0.0,0.0,0.0,0.0,0.0,0.0,0.0,0.9245,0.9664,1.0463,1.1697,1.185,1.2468,1.36,1.3817,1.4293,1.5057,0.0,0.0,0.0,0.0,0.0,0.0,0.0,0.0,0.0,0.0,0.0,0.0,0.0,0.0,0.0,0.0,0.0,0.0,0.0,0.0,0.0,0.0,0.0,0.0,0.0,0.0,0.0,0.0,0.0,0.0,0.0,0.0,0.0,0.0,0.0,0.0,0.0,0.0,0.0,0.574,0.6955,0.0,0.0,0.0,0.0,0.0,0.0,0.0,0.0,0.8912,0.0,0.0,0.0,0.0,0.0,0.0,0.0,0.0,0.0,0.0,0.0,0.0,0.0,0.0,0.0,0.0,0.0,0.0,0.0,0.0,0.0,0.0,0.0,0.0,0.0,0.0,0.0,0.0,0.0,0.0,0.0,0.0,0.0,0.0,0.0,0.0,0.0,0.0,0.0,0.0,0.0,0.0,0.0,0.0,0.0,0.0,0.0,0.0,0.0,0.0,0.0,0.0,0.0,0.0,0.0,1.0564,1.0741,1.1444,1.2788,1.2841,1.3307,1.4226,1.4293,1.472,0.0,0.0,0.0,0.0,0.0,0.0,0.0,0.0,0.0,0.0,0.0,0.0,0.0,0.0,0.0,0.0,0.0,0.0,0.0,0.0,0.0,0.0,0.0,0.0,0.0,0.0,0.0,0.0,0.0,0.0,0.0,0.0,0.0,0.0,0.0,0.0,0.0,0.0,0.0,0.0,0.6234,0.7209,0.7809,0.0,0.0,0.0,0.0,0.0,0.0,1.0831,1.0324,0.0,0.0,0.0,0.0,0.0,0.0,0.0,0.0,0.0,0.0,0.0,0.0,0.0,0.0,0.0,0.0,0.0,0.0,0.0,0.0,0.0,0.0,0.0,0.0,0.0,0.0,0.0,0.0,0.0,0.0,0.0,0.0,0.0,0.0,0.0,0.0,0.0,0.0,0.0,0.0,0.0,0.0,0.0,0.0,0.0,0.0,0.0,0.0,0.0,0.0,0.0,0.0,0.0,0.0,0.0,1.1754,1.2076,1.2772,1.3909,1.4071,1.4424,1.5005,1.4994,1.5216,0.0,0.0,0.0,0.0,0.0,0.0,0.0,0.0,0.0,0.0,0.0,0.0,0.0,0.0,0.0,0.0,0.0,0.0,0.0,0.0,0.0,0.0,0.0,0.0,0.0,0.0,0.0,0.0,0.0,0.0,0.0,0.0,0.0,0.0,0.0,0.0,0.0,0.0,0.0,0.0,0.0,0.7603,0.8733,0.9003,0.0,0.0,0.0,0.0,1.1781,1.2057,0.0,0.0,0.0,0.0,0.0,0.0,0.0,0.0,0.0,0.0,0.0,0.0,0.0,0.0,0.0,0.0,0.0,0.0,0.0,0.0,0.0,0.0,0.0,0.0,0.0,0.0,0.0,0.0,0.0,0.0,0.0,0.0,0.0,0.0,0.0,0.0,0.0,0.0,0.0,0.0,0.0,0.0,0.0,0.0,0.0,0.0,0.0,0.0,0.0,0.0,0.0,0.0,0.0,0.0,0.0,0.0,1.1846,1.342,1.4322,1.4514,1.5023,1.5598,1.6173,1.5755,1.5794,0.0,0.0,0.0,0.0,0.0,0.0,0.0,0.0,0.0,0.0,0.0,0.0,0.0,0.0,0.0,0.0,0.0,0.0,0.0,0.0,0.0,0.0,0.0,0.0,0.0,0.0,0.0,0.0,0.0,0.0,0.0,0.0,0.0,0.0,0.0,0.0,0.0,0.0,0.0,0.0,0.0,0.8223,0.9418,0.9796,1.0029,0.0,0.0,1.2079,1.2673,1.3454,0.0,0.0,0.0,0.0,0.0,0.0,0.0,0.0,0.0,0.0,0.0,0.0,0.0,0.0,0.0,0.0,0.0,0.0,0.0,0.0,0.0,0.0,0.0,0.0,0.0,0.0,0.0,0.0,0.0,0.0,0.0,0.0,0.0,0.0,0.0,0.0,0.0,0.0,0.0,0.0,0.0,0.0,0.0,0.0,0.0,0.0,0.0,0.0,0.0,0.0,0.0,0.0,0.0,0.0,0.0,1.1989,1.293,1.3801,1.4694,1.5572,1.5868,1.6314,1.6952,1.6128,1.5929,0.0,0.0,0.0,0.0,0.0,0.0,0.0,0.0,0.0,0.0,0.0,0.0,0.0,0.0,0.0,0.0,0.0,0.0,0.0,0.0,0.0,0.0,0.0,0.0,0.0,0.0,0.0,0.0,0.0,0.0,0.0,0.0,0.0,0.0,0.0,0.0,0.0,0.0,0.0,0.0,0.0,0.0,0.9585,1.0151,0.0,0.0,0.0,1.2607,1.2851,0.0,0.0,0.0,0.0,0.0,0.0,0.0,0.0,0.0,0.0,0.0,0.0,0.0,0.0,0.0,0.0,0.0,0.0,0.0,0.0,0.0,0.0,0.0,0.0,0.0,0.0,0.0,0.0,0.0,0.0,0.0,0.0,0.0,0.0,0.0,0.0,0.0,0.0,0.0,0.0,0.0,0.0,0.0,0.0,0.0,0.0,0.0,0.0,0.0,0.0,0.0,0.0,0.0,0.0,0.0,0.0,0.0,1.3994,1.4557,1.5333,1.6349,1.669,1.7017,1.7363,1.6421,0.0,0.0,0.0,0.0,0.0,0.0,0.0,0.0,0.0,0.0,0.0,0.0,0.0,0.0,0.0,0.0,0.0,0.0,0.0,0.0,0.0,0.0,0.0,0.0,0.0,0.0,0.0,0.6092,0.0,0.0,0.0,0.0,0.0,0.0,0.0,0.0,0.0,0.0,0.0,0.0,0.0,0.0,0.9526,1.0134,1.0798,1.1503,0.0,0.0,1.324,1.331,1.3405,1.3319,0.0,0.0,0.0,0.0,0.0,0.0,0.0,0.0,0.0,0.0,0.0,0.0,0.0,0.0,0.0,0.0,0.0,0.0,0.0,0.0,0.0,0.0,0.0,0.0,0.0,0.0,0.0,0.0,0.0,0.0,0.0,0.0,0.0,0.0,0.0,0.0,0.0,0.0,0.0,0.0,0.0,0.0,0.0,0.0,0.0,0.0,0.0,0.0,0.0,0.0,0.0,0.0,0.0,0.0,1.3962,1.4674,1.6243,1.6836,1.6466,1.7501,1.7843,1.7423,1.6774,1.6463,0.0,0.0,0.0,0.0,0.0,0.0,0.0,0.0,0.0,0.0,0.0,0.0,0.0,0.0,0.0,0.0,0.0,0.0,0.0,0.0,0.0,0.0,0.0,0.0,0.0,0.0,0.0,0.0,0.0,0.0,0.0,0.0,0.0,0.0,0.0,0.0,0.0,0.0,0.0,0.0,0.0,1.0487,1.1513,1.2076,1.2665,0.0,1.3825,1.4139,1.443,1.4797,1.4866,1.433,0.0,0.0,0.0,0.0,0.0,0.0,0.0,0.0,0.0,0.0,0.0,0.0,0.0,0.0,0.0,0.0,0.0,0.0,0.0,0.0,0.0,0.0,0.0,0.0,0.0,0.0,0.0,0.0,0.0,0.0,0.0,0.0,0.0,0.0,0.0,0.0,0.0,0.0,0.0,0.0,0.0,0.0,0.0,0.0,0.0,0.0,0.0,0.0,0.0,0.0,0.0,0.0,0.0,1.4283,1.5242,1.6231,1.699,1.749,1.7961,1.8267,1.8393,1.7513,1.7049,0.0,0.0,0.0,0.0,0.0,0.0,0.0,0.0,0.0,0.0,0.0,0.0,0.0,0.0,0.0,0.0,0.0,0.0,0.0,0.0,0.0,0.0,0.0,0.0,0.0,0.0,0.0,0.0,0.7132,0.7772,0.8688,0.0,0.0,0.0,0.0,0.0,0.0,0.0,0.0,0.0,0.0,1.1612,1.2482,1.3105,0.0,0.0,1.4281,1.448,1.4313,1.5045,1.5229,1.4043,1.4443,0.0,0.0,0.0,0.0,0.0,0.0,0.0,0.0,0.0,0.0,0.0,0.0,0.0,0.0,0.0,0.0,0.0,0.0,0.0,0.0,0.0,0.0,0.0,0.0,0.0,0.0,0.0,0.0,0.0,0.0,0.0,0.0,0.0,0.0,0.0,0.0,0.0,0.0,0.0,0.0,0.0,0.0,0.0,0.0,0.0,0.0,0.0,0.0,0.0,0.0,0.0,0.0,1.4824,1.5842,1.6565,1.726,1.7953,1.8279,1.8543,1.8719,1.7889,1.7398,0.0,0.0,0.0,0.0,0.0,0.0,0.0,0.0,0.0,0.0,0.0,0.0,0.0,0.0,0.0,0.0,0.0,0.0,0.0,0.0,0.0,0.0,0.0,0.0,0.0,0.0,0.0,0.0,0.8218,0.9072,0.9806,0.0,0.0,0.0,0.0,0.0,0.0,0.0,0.0,0.0,0.0,1.2454,1.3293,1.3918,1.4313,1.4299,1.4687,1.4957,1.4825,1.5423,1.5645,1.4947,0.0,0.0,0.0,0.0,0.0,0.0,0.0,0.0,0.0,0.0,0.0,0.0,0.0,0.0,0.0,0.0,0.0,0.0,0.0,0.0,0.0,0.0,0.0,0.0,0.0,0.0,0.0,0.965,0.0,0.0,1.0312,0.0,0.0,0.0,0.0,0.0,0.0,0.0,0.0,0.0,0.0,0.0,0.0,0.0,0.0,0.0,0.0,0.0,0.0,0.0,0.0,0.0,0.0,1.5854,1.647,1.7568,1.7929,1.751,1.843,1.8744,1.8291,1.7712,1.7398,1.7385,0.0,0.0,0.0,0.0,0.0,0.0,0.0,0.0,0.0,0.0,0.0,0.0,0.0,0.0,0.0,0.0,0.0,0.0,0.0,0.0,0.0,0.0,0.0,0.0,0.0,0.0,0.8307,0.9342,1.0256,0.0,0.0,0.0,0.0,0.0,0.0,0.0,0.0,0.0,1.2711,1.2644,1.2879,1.3932,1.4498,1.4831,1.4817,1.5146,1.5642,1.6317,1.6157,1.6339,0.0,0.0,0.0,0.0,0.0,0.0,0.0,0.0,0.0,0.0,0.0,0.0,0.0,0.0,0.0,0.0,0.0,0.0,0.0,0.0,0.0,0.0,0.0,0.0,0.0,0.0,0.0,1.1086,1.0948,0.0,0.0,0.0,0.0,0.0,0.0,0.0,0.0,0.0,0.0,0.0,1.3781,1.3864,0.0,0.0,0.0,0.0,0.0,0.0,0.0,0.0,0.0,0.0,0.0,0.0,1.6465,1.7102,1.7827,1.8504,1.9104,1.9481,1.9743,1.9925,1.9013,1.7977,1.6845,0.0,0.0,0.0,0.0,0.0,0.0,0.0,0.0,0.0,0.0,0.0,0.0,0.0,0.0,0.0,0.0,0.0,0.0,0.0,0.0,0.0,0.0,0.0,0.0,0.0,1.0013,0.0,0.0,0.0,0.0,0.0,0.0,0.0,0.0,0.0,0.0,1.2099,1.2668,1.3584,1.3895,1.4255,1.4865,1.5523,1.5925,0.0,0.0,0.0,0.0,0.0,0.0,0.0,0.0,0.0,0.0,0.0,0.0,0.0,0.0,1.5434,1.2918,1.2475,1.2319,1.1719,0.0,0.0,0.0,0.0,0.0,0.0,0.0,0.0,0.0,0.0,0.0,0.0,0.0,0.0,1.2024,1.2199,1.221,0.0,0.0,0.0,0.0,0.0,0.0,0.0,0.0,1.3398,1.4091,1.5413,1.5502,1.5745,1.6132,1.6348,1.566,0.0,0.0,0.0,0.0,0.0,0.0,0.0,0.0,1.7377,1.7981,1.8542,1.9217,1.996,2.0184,2.0546,2.1086,2.022,1.8904,1.7151,1.711,1.7021,0.0,0.0,0.0,0.0,0.0,0.0,0.0,0.0,0.0,0.0,0.0,0.0,0.0,0.0,0.0,0.0,0.0,0.0,0.0,0.0,0.0,0.0,0.0,1.1153,0.0,0.0,0.0,0.0,0.0,0.0,0.0,0.0,0.0,1.2196,1.2832,1.3561,1.419,1.48,1.5343,1.5731,0.0,0.0,0.0,0.0,0.0,0.0,0.0,1.8975,1.8061,1.9292,2.0065,1.9144,1.9522,1.9199,1.6824,0.0,0.0,1.5026,1.4395,1.4112,1.3399,1.3768,1.4233,1.4355,1.3605,1.3475,0.0,0.0,0.0,0.0,1.1735,0.0,0.0,0.0,1.237,1.2903,0.0,1.3405,0.0,0.0,0.0,0.0,1.3288,1.3856,0.0,0.0,1.5485,1.5863,1.6513,1.7045,1.7339,1.7411,1.7955,1.7931,1.7291,1.5683,0.0,0.0,0.0,0.0,0.0,0.0,1.8609,1.915,1.9731,2.0072,2.0125,2.0604,2.1136,2.1667,2.1165,2.0043,1.8337,1.8263,1.8007,1.7316,1.6801,0.0,0.0,0.0,0.0,0.0,0.0,0.0,0.0,0.0,0.0,0.0,0.0,0.0,0.0,0.0,0.0,0.0,0.0,0.0,0.0,1.0947,0.0,0.0,0.0,0.0,0.0,0.0,0.0,0.0,0.0,1.3239,1.2371,1.3311,1.4256,1.4651,0.0,0.0,0.0,0.0,1.712,1.7617,1.8713,1.9571,1.9638,2.0088,2.0667,2.1341,0.0,0.0,1.9974,2.0994,2.0833,1.7324,1.8435,1.9352,1.7881,1.6983,1.6452,1.6271,1.6236,1.6532,1.6946,1.6185,1.6108,1.5707,0.0,0.0,0.0,0.0,1.4109,1.438,1.4393,1.4567,1.4737,1.4849,1.4485,0.0,0.0,0.0,0.0,0.0,0.0,1.5703,1.675,1.6358,1.6894,1.8227,1.799,1.8285,1.9082,1.9271,1.9246,1.9044,1.8204,1.7448,1.6836,0.0,0.0,0.0,0.0,1.9772,2.0316,2.0907,2.1433,2.1845,2.2042,2.2044,2.1866,2.1232,2.0257,1.8894,1.8868,1.8406,1.7437,1.7213,0.0,0.0,0.0,0.0,0.0,0.0,0.0,0.0,0.0,0.0,0.0,0.0,0.0,0.0,0.0,0.0,0.0,0.0,0.0,1.2206,1.2315,1.2496,0.0,0.0,0.0,0.0,0.0,0.0,0.0,0.0,0.0,1.4875,1.4693,1.5034,0.0,0.0,1.6719,1.7774,1.7966,1.8207,1.892,1.9867,0.0,2.091,2.1089,2.134,2.179,2.2287,2.2357,2.1502,2.1695,2.1815,2.119,2.0415,1.9643,1.9279,1.8998,1.8268,1.6883,1.6946,1.7298,1.7141,1.7655,1.8122,1.8054,1.6302,1.5625,1.5448,1.5698,1.6253,1.6364,1.6183,1.6441,1.6539,1.6505,1.6209,1.6078,1.6029,1.5816,0.0,0.0,0.0,1.7075,1.7971,1.7816,1.8442,1.9609,1.9523,1.9795,2.0464,2.0476,2.0476,2.0464,2.022,1.9889,1.9371,0.0,1.8783,2.0185,2.0838,2.1409,2.195,2.2574,2.2923,2.3041,2.306,2.279,2.2224,2.2052,2.1279,1.9831,1.9793,1.9269,1.8103,1.7636,1.7247,0.0,0.0,0.0,0.0,0.0,0.0,0.0,0.0,0.0,0.0,0.0,1.3151,1.2856,0.0,0.0,0.0,1.314,1.3393,1.2927,1.352,0.0,0.0,0.0,0.0,0.0,0.0,0.0,1.4183,1.5844,1.7082,1.7335,1.6909,1.6949,1.7931,1.7859,1.8101,1.9111,0.0,1.9285,2.0228,2.1151,2.1793,2.182,2.1995,2.2217,2.2407,2.2787,2.2967,2.253,2.2428,2.26,2.2812,2.2006,2.1096,2.1105,2.0783,1.9957,1.8178,1.8421,1.8909,1.8793,1.9593,2.0051,2.0583,1.9923,1.8303,1.7828,1.814,1.8199,1.7932,1.753,1.806,1.8302,1.8304,1.8313,1.8594,1.9033,1.8553,0.0,1.7613,1.8174,1.868,1.9146,1.9673,2.0226,2.078,2.1256,2.1532,2.157,2.157,2.1623,2.1748,2.1851,2.2232,2.2751,2.0628,2.0414,2.2065,2.2678,2.325,2.3836,2.444,2.4447,2.3789,2.3648,2.3315,2.2724,2.3282,2.2736,2.0984,2.0986,2.0443,1.9138,1.8143,1.7555,1.741,0.0,0.0,0.0,0.0,0.0,0.0,0.0,0.0,0.0,0.0,0.0,0.0,0.0,0.0,1.2942,1.398,0.0,1.3167,1.4588,0.0,0.0,0.0,1.4735,1.5162,1.441,1.4094,1.4639,0.0,0.0,1.9515,1.951,1.9528,1.9711,1.9651,1.9831,2.0442,2.011,2.0201,2.1328,2.2426,2.289,2.2464,2.2797,2.3095,2.3058,2.3095,2.3095,2.307,2.3062,2.3083,2.3087,2.3096,2.3041,2.3074,2.2215,2.127,2.0111,2.0337,2.0865,2.1184,2.1326,2.1597,2.2688,2.2476,2.1501,2.0431,1.9421,1.9853,1.9977,1.9893,2.0012,2.0091,2.0055,1.9622,1.9497,1.9598,1.9583,1.9457,1.9258,1.9895,2.0218,2.0314,2.0854,2.1181,2.132,2.1458,2.1719,2.2096,2.2121,2.2639,2.3574,2.3208,2.3635,2.4717,2.3851,2.3591,2.4011,2.3681,2.4021,2.507,2.5269,2.5061,2.4397,2.3877,2.3306,2.2727,2.3265,2.2947,2.1557,2.1996,2.1497,1.986,1.9514,1.8779,1.7471,1.7652,0.0,0.0,0.0,0.0,0.0,0.0,0.0,0.0,0.0,1.3792,1.3792,0.0,1.3042,0.0,1.4394,1.4935,1.4699,1.5592,0.0,0.0,1.5934,1.5736,1.5244,1.5349,1.5511,1.5646,1.7135,1.8733,2.0234,2.076,2.1127,2.1533,2.0416,2.0075,2.1541,2.0656,2.0359,2.1819,2.2682,2.3047,2.2975,2.3411,2.3627,2.3183,2.3108,2.3095,2.3095,2.3103,2.3107,2.3109,2.3102,2.3109,2.3095,2.2856,2.2329,2.1374,2.1204,2.1344,2.1468,2.1498,2.1667,2.4974,2.4716,2.4289,2.3406,2.2259,2.1914,2.1645,2.1419,2.1421,2.1281,2.1046,2.0743,2.0604,2.0592,2.0717,2.0879,2.1113,2.1478,2.1622,2.1598,2.2439,2.2673,2.2381,2.2961,2.3403,2.3664,2.3677,2.4063,2.4768,2.5093,2.5629,2.6365,2.6132,2.6146,2.6381,2.549,2.548,2.6423,2.6181,2.5722,2.5053,2.4391,2.3883,2.355,2.358,2.3293,2.263,2.268,2.1974,2.0442,2.0131,1.9425,1.8201,1.8166,1.8054,0.0,0.0,0.0,0.0,0.0,0.0,0.0,0.0,0.0,0.0,0.0,1.4561,1.4776,1.5829,1.6274,1.5782,1.6626,1.7189,1.7163,1.6878,1.6838,1.7191,1.6928,1.7163,1.8317,1.9107,1.9894,2.0835,2.1684,2.2307,2.2606,2.1758,2.1462,2.2329,2.1807,2.1631,2.2505,2.2907,2.3095,2.3095,2.3386,2.3671,2.3778,2.3424,2.2959,2.25,2.2797,2.3103,2.3115,2.3095,2.3105,2.3105,2.3098,2.2963,2.2878,2.2753,2.2535,2.1993,2.2154,2.2529,2.6957,2.6412,2.6396,2.6021,2.5314,2.3974,2.313,2.2714,2.2701,2.2434,2.1992,2.2061,2.2088,2.2074,2.2148,2.2457,2.2933,2.3021,2.2997,2.2911,2.408,2.4273,2.3723,2.4859,2.5398,2.5398,2.5481,2.5564,2.5716,2.6984,2.7658,2.7766,2.7826,2.8184,2.8757,2.753,2.7121,2.757,2.6944,2.6318,2.5722,2.5068,2.4649,2.4455,2.3988,2.3678,2.3557,2.3079,2.2267,2.1114,2.0512,1.9886,1.9155,1.8692,1.838,0.0,1.8367,0.0,0.0,0.0,0.0,0.0,0.0,0.0,0.0,1.5879,1.658,1.6568,1.7616,1.7912,1.6999,1.7884,1.8511,1.8514,1.7951,1.8171,1.9545,1.8654,1.8868,2.1423,2.1604,2.1441,2.1303,2.2226,2.2882,2.2807,2.2899,2.2869,2.297,2.2937,2.2975,2.3095,2.3095,2.3095,2.3133,2.3258,2.3661,2.4291,2.3826,2.288,2.1994,2.2436,2.2997,2.308,2.3103,2.317,2.3322,2.345,2.3671,2.4255,2.4345,2.3998,2.3147,2.3301,2.3926,2.7067,2.6499,2.6427,2.6007,2.537,2.5091,2.4883,2.4816,2.483,2.4762,2.4653,2.4669,2.4682,2.4682,2.4732,2.4559,2.4205,2.4711,2.4678,2.4174,2.4887,2.5149,2.5039,2.5273,2.5398,2.5439,2.5937,2.6526,2.7109,2.7864,2.8559,2.9181,2.921,2.952,3.0043,0.0,0.0,0.0,2.6944,2.6539,2.6405,2.5752,2.49,2.3864,2.4197,0.0,2.2978,2.3235,2.3098,2.2371,2.1719,0.0,0.0,0.0,0.0,0.0,0.0,0.0,0.0,0.0,0.0,0.0,1.8289,1.8007,1.6891,1.7227,1.7524,1.7562,1.8631,1.941,1.9634,1.9983,2.0399,2.0779,2.0341,1.998,1.9849,1.9533,2.0278,2.2485,2.2043,2.1487,2.1507,2.1673,2.1845,2.1972,2.2551,2.2885,2.2523,2.2857,2.3095,2.3095,2.3095,2.3095,2.3095,2.3835,2.4085,2.3719,2.3729,2.3527,2.2991,2.2555,2.265,2.2998,2.3101,2.3575,2.4682,2.4967,2.5016,2.516,2.5189,2.5106,2.4871,2.4914,2.5094,2.8618,2.8019,2.7637,2.7085,0.0,2.6495,2.6495,2.6428,2.5714,2.5398,2.5384,2.5447,2.5454,2.5465,2.5867,2.586,2.5557,2.6219,2.6147,2.5533,2.6178,2.6296,2.5946,2.6336,2.6654,2.6985,2.7315,2.7853,2.8531,2.9147,2.9638,3.0028,3.0057,3.0193,3.0447,2.9249,2.8276,2.76,2.727,2.6929,2.6614,2.6258,2.5764,2.5121,2.5079,0.0,0.0,0.0,0.0,0.0,0.0,0.0,0.0,2.0341,0.0,1.9447,1.966,1.9824,1.9849,1.9836,1.978,1.9699,2.0014,1.9744,1.8621,1.8428,1.859,1.9187,1.9791,2.0249,2.0508,2.0376,2.049,2.1006,2.059,2.0114,1.9882,2.0136,2.1076,2.2624,2.2297,2.1861,2.2245,2.2295,2.2282,2.2309,2.274,2.2999,2.2761,2.292,2.3095,2.3095,2.3095,2.3095,2.317,2.38,2.44,2.3998,2.3991,2.4078,2.4223,2.3709,2.3262,2.3238,2.3696,2.4553,2.5216,2.5952,2.6386,2.6033,2.5849,2.597,2.6307,2.6188,2.5905,3.0162,2.9563,2.9129,2.85,2.7779,2.7794,2.7779,2.7688,2.6365,0.0,0.0,2.5842,2.5928,2.6081,2.6562,2.6839,2.6988,2.7405,2.7253,2.6721,2.7318,2.7339,2.6909,2.7496,2.8139,2.8757,2.8876,2.9205,2.9773,3.0372,3.0687,3.0673,3.0687,3.0612,3.0432,2.946,2.8607,2.7989,2.7839,2.7497,2.6961,2.6946,2.6839,2.6614,2.6078,2.5989,2.639,2.5899,2.5123,2.4095,2.3922,2.3154,2.1611,2.1262,2.0885,2.0334,2.0165,2.0314,2.0805,2.083,2.1017,2.1482,2.1481,2.1037,1.9966,1.9659,1.9916,2.0902,2.0981,2.1031,2.1093,2.0603,2.0476,2.1056,2.0603,2.0242,2.0163,2.0545,2.1364,2.2488,2.2299,2.2226,2.2792,2.2782,2.2819,2.2807,2.2811,2.3095,2.3235,2.3188,2.3095,2.3095,2.3245,2.3363,2.3411,2.4042,2.4553,2.5145,2.4795,2.474,2.5357,2.5071,2.4282,2.3725,2.4613,2.5343,2.5797,2.6729,2.7341,2.6827,2.6542,2.6602,2.7299,2.7111,2.6651,3.0148,2.9638,3.0072,2.9549,2.847,2.8457,2.8457,2.8399,2.7622,2.7293,2.7304,2.7291,2.7627,2.8133,2.7684,2.7779,2.8278,2.7812,2.7534,2.7473,2.7562,2.7863,2.8299,2.8418,2.8801,2.9473,2.9983,3.0283,3.0432,3.1031,3.1361,3.1361,3.1361,3.1076,3.0537,3.0328,2.9924,2.9309,2.8757,2.8427,2.8323,2.8323,2.7754,2.6674,2.6524,2.6213,2.5752,2.5663,2.5523,2.5325,2.4829,2.4432,2.4138,2.2977,2.23,2.2193,2.1613,2.1306,2.1369,2.1382,2.1405,2.1495,2.1481,2.1168,2.0443,2.1258,2.1895,2.2056,2.2033,2.227,2.2659,2.2207,2.2044,2.2571,2.2245,2.1764,2.1313,2.1054,2.1169,2.1805,2.1893,2.2089,2.2403,2.2146,2.192,2.1871,2.2454,2.2889,2.3768,2.3529,2.3153,2.3185,2.3693,2.406,2.4214,2.5135,2.5865,2.6616,2.6131,2.5994,2.6827,2.6015,2.5246,2.5102,2.5367,2.5903,2.6933,2.7427,2.7527,2.7354,2.7287,2.7391,2.7585,2.7446,2.738,3.0342,3.0102,3.0042,2.9683,2.9144,2.9144,2.9131,2.9084,2.844,2.8351,2.8633,2.8319,2.8321,2.8562,2.8263,2.8124,2.8066,2.8498,2.847,2.8186,2.8515,2.8843,2.9129,2.9144,2.9473,3.0088,3.0357,3.0702,3.1032,3.1361,3.1496,3.1496,3.1496,3.1331,3.1046,3.0687,3.0538,3.0613,2.9654,2.9131,2.9129,2.8786,2.8308,2.7709,2.7348,2.7003,2.6692,2.6689,2.6512,2.6153,2.5883,2.5426,2.472,2.4094,2.3393,2.2658,2.2295,2.2053,2.1948,2.2194,2.237,2.2385,2.2357,2.2226,2.1879,2.2118,2.2307,2.2307,2.2307,2.2395,2.2646,2.2445,2.2408,2.2646,2.2445,2.2339,2.2284,2.1652,2.1529,2.219,2.2224,2.2312,2.2679,2.2521,2.2383,2.2444,2.302,2.3914,2.4742,2.4348,2.4034,2.4285,2.4432,2.4589,2.4866,2.5596,2.6239,2.6493,2.6351,2.6577,2.7244,2.6635,2.6278,2.6521,2.6571,2.6832,2.755,2.7581,2.7586,2.7586,2.7585,2.7585,2.7585,2.7585,2.7585,3.0717,3.0673,3.0223,2.9939,2.9803,2.9653,2.9668,2.9743,2.9235,2.94,2.9849,2.9026,2.8682,2.8815,2.8682,2.8485,2.838,2.9024,2.9174,2.8919,2.9368,2.9668,2.9788,2.9803,3.0118,3.0658,3.0731,3.1002,3.1451,3.1496,3.1496,3.1496,3.1496,3.1496,3.1496,3.0987,3.0987,3.1406,3.0522,2.9879,2.9593,2.9219,2.8893,2.8577,2.8259,2.7989,2.7839,2.7839,2.7525,2.6896,2.6824,2.6386,2.5418,2.5023,2.4363,2.3353,2.2893,2.2646,2.2545,2.2997,2.3296,2.3296,2.3296,2.3296,2.3258,2.2809,2.2483,2.2483,2.2521,2.2508,2.2562,2.27,2.2674,2.2527,2.2645,2.2863,2.2969,2.2338,2.2144,2.2914,2.273,2.2661,2.2999,2.3255,2.3449,2.3711,2.4553,2.5343,2.5563,2.5369,2.5493,2.563,2.5355,2.5177,2.5591,2.6189,2.6651,2.6746,2.6706,2.7127,2.7639,2.7384,2.6961,2.7395,2.7758,2.7722,2.7643,2.7586,2.7592,2.7585,2.7585,2.7585,2.7585,2.7585,2.7585,3.1391,3.1406,3.1301,3.0972,3.0401,2.9862,2.9939,3.0342,3.0329,3.0688,3.0987,2.9416,2.8964,2.9383,2.8846,2.9086,2.9953,2.9146,2.9009,2.9473,2.9563,2.9892,3.0387,3.0417,3.0762,3.1331,3.1391,3.1451,3.157,3.154,3.1511,3.1496,3.1496,3.1496,3.1481,3.1421,3.1436,3.1496,3.1376,3.0762,2.9713,3.0073,2.9774,2.8624,2.9131,2.9114,2.8517,2.8502,2.8201,2.7585,2.751,2.747,2.7202,2.6083,2.5287,2.5067,2.3822,2.3042,2.3058,2.3574,2.3904,2.3916,2.3947,2.3963,2.3938,2.3432,2.3032,2.312,2.3077,2.3057,2.3065,2.3636,2.3713,2.3153,2.3565,2.3863,2.3217,2.3022,2.301,2.3062,2.3129,2.3051,2.3246,2.3665,2.437,2.5105,2.6105,2.6767,2.6576,2.6774,2.7024,2.7102,2.6575,2.6139,2.6402,2.6998,2.7684,2.8669,2.8174,2.8047,2.8401,2.8125,2.7546,2.7556,2.8119,2.8248,2.7822,2.7587,2.7587,2.7585,2.7585,2.7585,2.7585,2.7585,2.7585,3.1496,3.1496,3.1496,3.1346,3.1061,3.0822,3.0628,3.0493,3.0478,3.0477,3.0342,2.988,2.9684,2.9533,2.8498,2.8502,2.9325,2.9249,2.9518,3.0147,3.0537,3.0867,3.1062,3.1092,3.1241,3.1525,3.1884,3.2093,3.2093,3.2108,3.1884,3.154,3.1496,3.1496,3.1496,3.1496,3.1496,3.1496,3.1496,3.1047,3.0268,3.0372,3.0268,2.9774,2.9653,2.9488,2.9219,2.9189,2.9069,2.8813,2.8798,2.859,2.8216,2.7608,2.6912,2.607,2.4639,2.3756,2.3658,2.3879,2.4142,2.4456,2.4961,2.526,2.5262,2.5444,2.5571,2.5445,2.4528,2.3945,2.4366,2.4366,2.4162,2.3855,2.3708,2.3469,2.3155,2.3095,2.3288,2.3846,2.3879,2.3868,2.3898,2.3729,2.4514,2.6076,2.7226,2.7489,2.7645,2.7678,2.7567,2.7554,2.7236,2.7078,2.7179,2.7715,2.822,2.8336,2.8336,2.8489,2.8228,2.8094,2.7586,2.7604,2.8026,2.8166,2.7683,2.7601,2.7585,2.7585,2.7585,2.7585,2.7585,2.7585,2.7585,3.1496,3.1496,3.1496,3.1496,3.1496,3.1496,3.1212,3.0807,3.0762,3.0508,3.0178,3.0402,3.0268,2.9743,2.8815,2.877,2.9385,2.9699,3.0178,3.0762,3.1301,3.1496,3.1496,3.1496,3.1496,3.157,3.1959,3.2303,3.2497,3.2721,3.2437,3.1884,3.1765,3.169,3.1511,3.1496,3.1496,3.1496,3.1496,3.1256,3.0837,3.0762,3.0687,3.0507,3.0268,3.0057,2.9847,2.9847,2.9773,2.9593,2.9608,2.9383,2.8906,2.8674,2.8008,2.6827,2.574,2.5074,2.4902,2.5055,2.5215,2.5425,2.6167,2.6571,2.6458,2.6767,2.7219,2.7436,2.614,2.5421,2.5506,2.5201,2.4851,2.4596,2.4032,2.3623,2.3179,2.3095,2.3492,2.4383,2.4332,2.4637,2.5121,2.4998,2.5504,2.758,2.8026,2.8057,2.8448,2.8201,2.7925,2.7675,2.7777,2.7839,2.7702,2.7872,2.8036,2.8096,2.8201,2.8121,2.7884,2.7902,2.7931,2.8168,2.8079,2.8087,2.8127,2.8026,2.772,2.763,2.7585,2.7585,2.7585,2.7585,2.7585,3.1496,3.1496,3.1496,3.1496,3.1496,3.1496,3.1466,3.1316,3.1421,3.1406,3.1197,3.0762,3.0478,3.0462,3.0313,3.0687,3.1152,3.0657,3.0762,3.1361,3.1466,3.1496,3.1496,3.1496,3.1511,3.1585,3.1765,3.2063,3.2602,3.314,3.311,3.2482,3.2452,3.2138,3.1705,3.1645,3.154,3.1645,3.16,3.1511,3.1451,3.1436,3.1122,3.0658,3.1076,3.1061,3.0552,3.0477,3.0223,2.9653,2.9683,2.9623,2.9494,2.8856,2.8097,2.7365,2.7189,2.7114,2.7121,2.7472,2.755,2.7067,2.76,2.7802,2.72,2.7086,2.7498,2.8282,2.7837,2.7143,2.661,2.6383,2.603,2.5425,2.5287,2.4576,2.3341,2.3346,2.3599,2.4428,2.4692,2.5326,2.701,2.741,2.7855,2.8867,2.9067,2.882,2.862,2.8702,2.8404,2.8,2.8147,2.8561,2.7862,2.8049,2.8216,2.8096,2.7991,2.7902,2.8306,2.8577,2.8607,2.8725,2.8768,2.8766,2.8777,2.8552,2.8109,2.7869,2.7645,2.7585,2.7585,2.7585,2.7585,3.1496,3.1496,3.1496,3.1496,3.1496,3.1496,3.1241,3.0927,3.1316,3.1256,3.0957,3.1046,3.1137,3.1151,3.1137,3.1031,3.0852,3.0598,3.0867,3.1451,3.1496,3.1496,3.1496,3.1496,3.175,3.2153,3.2557,3.3125,3.3739,3.4039,3.3814,3.3245,3.314,3.2991,3.2826,3.2781,3.2781,3.2736,3.2377,3.2123,3.2064,3.172,3.1362,3.1167,3.1376,3.1391,3.1151,3.1137,3.1046,3.0837,3.0807,3.0627,3.0179,2.9525,2.8818,2.8111,2.7997,2.7965,2.7915,2.8073,2.8253,2.8345,2.9044,2.9412,2.9247,2.9431,2.9884,3.0115,2.9758,2.9146,2.8453,2.7681,2.6861,2.6206,2.5659,2.5232,2.4759,2.4587,2.4894,2.5646,2.6122,2.6795,2.7587,2.8998,2.9748,2.9205,2.9856,2.9809,2.8927,2.8778,2.8573,2.7991,2.8323,2.8904,2.9007,2.8906,2.883,2.8261,2.7976,2.7931,2.8171,2.8156,2.8126,2.871,2.8983,2.8732,2.8475,2.818,2.7899,2.7902,2.769,2.7792,2.7585,2.7869,2.7794,3.1496,3.1496,3.1496,3.1496,3.1496,3.1496,3.1241,3.0897,3.1301,3.1241,3.0972,3.1301,3.1496,3.1496,3.1496,3.1286,3.0852,3.0822,3.1076,3.1466,3.1496,3.1496,3.154,3.1734,3.2064,3.2587,3.341,3.4069,3.4488,3.4727,3.4473,3.3844,3.3814,3.3694,3.3544,3.3499,3.3499,3.338,3.2856,3.2497,3.2422,3.1839,3.1496,3.1496,3.1496,3.1496,3.1496,3.1496,3.1496,3.1496,3.1496,3.1286,3.0837,3.0447,2.9999,2.9489,2.9404,2.9377,2.9282,2.9263,2.9327,2.9432,3.0178,3.0614,3.0419,3.0852,3.1214,3.1286,3.0882,3.0253,2.9601,2.8727,2.7841,2.6977,2.6188,2.5853,2.6021,2.5841,2.6063,2.6651,2.7164,2.7592,2.8032,2.9269,2.9573,2.8934,3.0026,2.9924,2.8974,2.8692,2.8535,2.7859,2.8284,2.8667,2.8743,2.8701,2.8601,2.8109,2.7842,2.7869,2.7899,2.7809,2.7965,2.8601,2.8705,2.8357,2.8057,2.7777,2.775,2.7854,2.8107,2.8312,2.8272,2.8336,2.8207,3.1496,3.1496,3.1496,3.1496,3.1496,3.1496,3.1496,3.1436,3.1481,3.1451,3.1376,3.1496,3.1496,3.1496,3.1496,3.1466,3.1421,3.1391,3.1421,3.1496,3.1496,3.1496,3.1525,3.2108,3.2527,3.2781,3.3888,3.4503,3.4622,3.5116,3.5086,3.4608,3.4503,3.4263,3.3589,3.3709,3.3604,3.3455,3.2961,3.2587,3.2437,3.1929,3.16,3.157,3.1571,3.1555,3.1511,3.1496,3.1496,3.1496,3.1496,3.1496,3.1421,3.1346,3.1406,3.1259,3.1363,3.1393,3.1349,3.1247,3.0822,3.0524,3.0999,3.1102,3.0615,3.0615,3.0927,3.1286,3.0957,3.0313,2.9832,2.9555,2.8962,2.7808,2.6995,2.6896,2.722,2.6891,2.6708,2.7445,2.7771,2.7947,2.8274,2.8446,2.8573,2.9288,2.9549,2.9328,2.8831,2.8805,2.8442,2.8004,2.8227,2.8604,2.8426,2.822,2.8057,2.788,2.7732,2.7675,2.7794,2.7779,2.7791,2.8287,2.8721,2.8413,2.8102,2.7882,2.8004,2.8139,2.8492,2.8862,2.8987,2.8992,2.8725,3.1496,3.1496,3.1496,3.1496,3.1496,3.1496,3.1496,3.1496,3.1496,3.1496,3.1496,3.1496,3.1496,3.1496,3.1496,3.1496,3.1496,3.1496,3.1496,3.1496,3.1496,3.1496,3.163,3.2198,3.2976,3.3889,3.4756,3.5191,3.522,3.54,3.537,3.522,3.5175,3.507,3.4831,3.4861,3.4696,3.4158,3.3529,3.32,3.3125,3.2527,3.2183,3.2183,3.2198,3.1989,3.154,3.1496,3.1496,3.1496,3.1496,3.1496,3.1496,3.1496,3.1496,3.1496,3.1496,3.1496,3.1496,3.1496,3.1409,3.1204,3.1365,3.138,3.1175,3.1128,3.1256,3.1466,3.1286,3.0927,3.0387,3.0223,2.9639,2.8412,2.8083,2.8162,2.8696,2.8679,2.8721,2.8871,2.8973,2.908,2.9122,2.8777,2.8808,2.9495,3.0096,3.0195,2.9052,2.9265,2.9487,2.879,2.8796,2.8485,2.8359,2.8102,2.785,2.7762,2.7672,2.7585,2.769,2.7737,2.7763,2.7897,2.8329,2.8413,2.8117,2.8002,2.8049,2.8531,2.8968,2.9316,2.9626,2.9575,2.9359,3.1496,3.1496,3.1496,3.1496,3.1496,3.1496,3.1496,3.1496,3.1496,3.1496,3.1496,3.1496,3.1496,3.1496,3.1496,3.1496,3.1496,3.1496,3.1496,3.1496,3.1496,3.1496,3.1645,3.2467,3.3574,3.4727,3.5295,3.5489,3.5489,3.5489,3.5489,3.5489,3.5489,3.5474,3.5489,3.5489,3.525,3.4832,3.4203,3.3874,3.3694,3.2976,3.2512,3.2467,3.2273,3.1929,3.1525,3.1496,3.1496,3.1496,3.1496,3.1496,3.1496,3.1496,3.1496,3.1496,3.1496,3.1496,3.1496,3.1496,3.1496,3.1496,3.1496,3.1496,3.1496,3.1496,3.1496,3.1496,3.1481,3.1212,3.0657,3.0478,3.0089,2.943,2.9101,2.9294,2.9788,2.9937,2.991,2.9851,2.9699,2.9638,2.9536,2.9589,2.94,2.9773,3.0661,3.079,2.9455,2.949,2.926,2.8837,2.8302,2.8152,2.8295,2.8027,2.7645,2.7615,2.7615,2.7585,2.763,2.7645,2.7652,2.7667,2.7955,2.8,2.7777,2.7747,2.7807,2.8564,2.9277,2.932,2.9482,3.0131,3.009,3.1539,3.1496,3.1568,3.1553,3.151,3.1496,3.1496,3.1496,3.1496,3.1553,3.1596,3.1653,3.1682,3.1668,3.1852,3.1838,3.1654,3.1639,3.1753,3.1798,3.1801,3.1834,3.1989,3.2916,3.4068,3.525,3.5474,3.5489,3.5489,3.5489,3.5489,3.5489,3.5489,3.5489,3.5489,3.5489,3.5413,3.5175,3.4712,3.4413,3.4383,3.3365,3.2721,3.2721,3.2168,3.178,3.1675,3.1555,3.1496,3.1496,3.1496,3.1496,3.1496,3.1496,3.1496,3.1496,3.1496,3.1496,3.1496,3.1496,3.1496,3.1496,3.1496,3.1496,3.1496,3.1496,3.1496,3.1496,3.1496,3.1271,3.0747,3.0628,3.0568,3.0507,3.0088,3.0073,3.0462,3.0553,3.0568,3.0492,3.0087,2.9743,2.9894,3.0125,3.0094,3.0134,3.0761,3.0282,2.9473,2.9144,2.8843,2.8423,2.8019,2.8034,2.8225,2.7952,2.7615,2.759,2.7594,2.7614,2.7604,2.7615,2.7585,2.7585,2.759,2.7602,2.779,2.7965,2.818,2.879,2.912,2.9097,2.9484,3.0164,3.0402,3.1993,3.1568,3.2078,3.1993,3.1539,3.1496,3.1496,3.1496,3.151,3.1839,3.2188,3.2313,3.2557,3.3026,3.301,3.3035,3.2864,3.2518,3.2625,3.2998,3.3099,3.3054,3.3006,3.3305,3.4188,3.531,3.5474,3.5489,3.5489,3.5489,3.5489,3.5489,3.5489,3.5489,3.5489,3.5489,3.522,3.4817,3.4637,3.4518,3.4458,3.4173,3.3979,3.3904,3.329,3.2691,3.2258,3.175,3.1496,3.1496,3.1496,3.1496,3.1496,3.1496,3.1496,3.1496,3.1496,3.1496,3.1496,3.1496,3.1496,3.1496,3.1496,3.1496,3.1496,3.1496,3.1496,3.1496,3.1496,3.1436,3.1256,3.1197,3.1212,3.1227,3.0987,3.0943,3.1122,3.1227,3.1241,3.1212,3.1032,3.0927,3.0913,3.0973,3.1033,3.0942,3.0762,3.0553,2.9654,2.8874,2.865,2.844,2.8156,2.8141,2.8066,2.7809,2.7632,2.7594,2.7605,2.7637,2.7635,2.7632,2.7602,2.7585,2.7584,2.7601,2.8295,2.8789,2.9055,2.9112,2.9249,2.9383,2.9714,3.0233,3.0248,3.2504,3.2379,3.2532,3.2355,3.1923,3.164,3.1496,3.1553,3.1853,3.2189,3.2615,3.2922,3.3222,3.3569,3.3582,3.3595,3.3531,3.3211,3.3235,3.3503,3.3566,3.3719,3.3908,3.3985,3.4353,3.4996,3.537,3.5489,3.5489,3.5489,3.5489,3.5489,3.5489,3.5489,3.5489,3.5489,3.534,3.4996,3.4906,3.4906,3.4922,3.4638,3.4473,3.4353,3.3859,3.3185,3.2512,3.1854,3.1496,3.1496,3.1496,3.1496,3.1496,3.1496,3.1496,3.1496,3.1496,3.1496,3.1496,3.1496,3.1496,3.1496,3.1496,3.1496,3.1496,3.1496,3.1496,3.1496,3.1496,3.1496,3.1496,3.1496,3.1496,3.1466,3.1496,3.1496,3.1496,3.1466,3.1496,3.1496,3.1496,3.1496,3.1496,3.1496,3.1496,3.1346,3.0837,3.0493,2.9968,2.9205,2.8607,2.8502,2.8145,2.7966,2.7934,2.775,2.7622,2.7584,2.8047,2.7992,2.7683,2.7703,2.7752,2.7739,2.765,2.7842,2.8604,2.9175,2.9248,2.9345,2.9515,2.9668,2.9907,3.0006,3.0035,3.3103,3.3559,3.3013,3.2747,3.26,3.1937,3.1682,3.1768,3.2272,3.2614,3.2882,3.343,3.3811,3.3815,3.4066,3.3874,3.3874,3.3786,3.3928,3.4062,3.4121,3.4335,3.5224,3.479,3.4817,3.507,3.5411,3.5525,3.5538,3.5489,3.5489,3.5489,3.5489,3.5489,3.5489,3.5489,3.5489,3.5429,3.537,3.537,3.531,3.4967,3.4742,3.4637,3.4084,3.341,3.2706,3.2049,3.166,3.1616,3.1555,3.1555,3.157,3.163,3.163,3.166,3.169,3.166,3.1555,3.16,3.157,3.1555,3.166,3.1556,3.16,3.1586,3.166,3.1496,3.1496,3.1496,3.1496,3.1496,3.1496,3.1496,3.1496,3.1496,3.1496,3.1496,3.1496,3.1496,3.1496,3.1496,3.1496,3.1496,3.1496,3.1436,3.0957,3.0523,3.0046,2.9347,2.8971,2.8861,2.8355,2.7701,2.7697,2.7677,2.7626,2.7648,2.8429,2.856,2.7886,2.7813,2.794,2.7923,2.7688,2.806,2.8902,2.9262,2.9389,2.9615,2.9831,2.9788,2.9774,2.9776,2.978,3.395,3.362,3.3996,3.3862,3.3326,3.2652,3.2355,3.2368,3.2532,3.2989,3.3456,3.4087,3.4652,3.5126,3.5057,3.5173,3.4981,3.4682,3.4964,3.5989,3.5398,3.6052,3.6695,3.6093,3.5706,3.5968,3.623,3.6039,3.5652,3.5489,3.5489,3.5489,3.5489,3.5489,3.5489,3.5489,3.5489,3.5489,3.5489,3.5489,3.5489,3.5355,3.5205,3.5176,3.4578,3.3949,3.329,3.2632,3.2303,3.2153,3.1824,3.1675,3.2048,3.2198,3.2183,3.2153,3.2198,3.2048,3.1735,3.1944,3.2048,3.169,3.2288,3.2632,3.1615,3.1959,3.1929,3.166,3.1496,3.1496,3.1496,3.1496,3.1496,3.1496,3.1496,3.1496,3.1496,3.1496,3.1496,3.1496,3.1496,3.1496,3.1496,3.1496,3.1466,3.1406,3.1047,3.0583,3.0078,2.9545,2.9334,2.9223,2.8818,2.8282,2.822,2.8141,2.7923,2.8017,2.8698,2.9429,2.8764,2.8221,2.8452,2.8144,2.7628,2.8325,2.9376,2.9404,2.9544,2.9846,3.0133,3.0253,3.0242,2.9972,2.9961,3.4564,3.4532,3.4576,3.4194,3.3595,3.3237,3.2895,3.2803,3.33,3.3751,3.4149,3.4771,3.5265,3.5588,3.5628,3.5588,3.5554,3.5287,3.5651,3.6437,3.6316,3.6975,3.8072,3.7533,3.698,3.6364,3.6059,3.5816,3.5587,3.5489,3.5489,3.5489,3.5489,3.5489,3.5489,3.5489,3.5489,3.5489,3.5489,3.5489,3.5489,3.5489,3.5489,3.537,3.4877,3.4278,3.3949,3.2976,3.2587,3.2362,3.1899,3.1645,3.2033,3.2303,3.2348,3.2093,3.2362,3.2362,3.2198,3.2258,3.2318,3.2004,3.2677,3.2318,3.1824,3.1854,3.1854,3.16,3.1496,3.1496,3.1496,3.1496,3.1496,3.1496,3.1496,3.1496,3.1496,3.1496,3.1496,3.1496,3.1496,3.1496,3.1496,3.1496,3.1496,3.1451,3.0987,3.0553,3.0586,3.0097,2.9754,2.9541,2.9268,2.8998,2.8919,2.8695,2.8338,2.8519,2.9009,2.9823,3.0066,2.9521,2.9079,2.8426,2.7735,2.9051,2.9944,2.9849,2.9919,3.0189,3.0522,3.0777,3.0899,3.0726,3.08,3.5086,3.5554,3.4882,3.4321,3.3899,3.3684,3.3352,3.3169,3.4087,3.4471,3.4724,3.5316,3.5538,3.5628,3.5628,3.5628,3.565,3.5847,3.6252,3.6622,3.688,3.7482,3.8277,3.8038,3.731,3.584,3.6076,3.5959,3.5619,3.5489,3.5489,3.5489,3.5489,3.5489,3.5489,3.5489,3.5489,3.5489,3.5489,3.5489,3.5489,3.5489,3.5489,3.5385,3.5071,3.4742,3.4443,3.3649,3.2871,3.2766,3.2093,3.178,3.1929,3.2228,3.2557,3.2049,3.2721,3.2841,3.2781,3.2811,3.2871,3.2706,3.2991,3.2647,3.2153,3.1989,3.1959,3.175,3.163,3.1556,3.1615,3.1555,3.1645,3.175,3.1705,3.1541,3.163,3.1585,3.1496,3.1496,3.1496,3.1496,3.1496,3.1496,3.1496,3.1421,3.0957,3.0673,3.0736,3.0722,3.0408,3.0299,3.0158,2.9277,2.9022,2.8573,2.8293,2.867,2.916,2.9872,3.0688,3.0537,2.9771,2.8401,2.8184,2.9506,3.0533,3.0789,3.0824,3.082,3.0882,3.1137,3.1332,3.1467,3.1496,3.5504,3.5554,3.4882,3.4847,3.5045,3.4116,3.3887,3.426,3.4491,3.46,3.4724,3.5276,3.5628,3.5628,3.5628,3.5628,3.5729,3.614,3.6583,3.6874,3.7231,3.7883,3.7908,3.7653,3.6914,3.6794,3.6813,3.6554,3.5717,3.5489,3.5489,3.5489,3.5489,3.5489,3.5489,3.5489,3.5489,3.5489,3.5489,3.5489,3.5489,3.5489,3.5489,3.5489,3.5295,3.525,3.513,3.4607,3.4173,3.4038,3.2991,3.2766,3.2991,3.3245,3.344,3.3634,3.3814,3.3739,3.3455,3.3799,3.3769,3.3739,3.4128,3.4143,3.3425,3.3006,3.2617,3.2243,3.1869,3.175,3.2273,3.1944,3.2168,3.2482,3.2183,3.175,3.2048,3.1854,3.1525,3.1496,3.1496,3.1496,3.1496,3.1496,3.1496,3.1496,3.1286,3.1106,3.1152,3.1213,3.1153,3.1177,3.1244,3.0076,2.8991,2.8421,2.8051,2.8553,2.9059,2.9548,3.0321,3.0991,3.0437,2.9243,2.903,2.9989,3.0832,3.1386,3.1402,3.1166,3.1316,3.154,3.1497,3.1498,3.1494,3.5628,3.5566,3.5242,3.5086,3.504,3.48,3.4604,3.4636,3.4953,3.511,3.5207,3.5458,3.5628,3.5628,3.5628,3.5628,3.5831,3.6445,3.6766,3.6902,3.7446,3.7807,3.7773,3.7328,3.6978,3.6798,3.6919,3.6646,3.5603,3.5489,3.5489,3.5489,3.5489,3.5489,3.5489,3.5489,3.5489,3.5489,3.5489,3.5489,3.5489,3.5489,3.5489,3.5489,3.5489,3.5489,3.5385,3.4862,3.4503,3.4278,3.3544,3.3499,3.3799,3.4009,3.4024,3.4113,3.4338,3.4398,3.4099,3.4353,3.4263,3.4143,3.4712,3.4488,3.3709,3.314,3.2931,3.2557,3.2362,3.2303,3.2931,3.2392,3.2587,3.2991,3.2362,3.2033,3.2227,3.1869,3.1645,3.1496,3.1496,3.1496,3.1496,3.1496,3.1496,3.1496,3.1496,3.1496,3.1496,3.1496,3.1496,3.1195,3.1055,3.0198,2.9172,2.8783,2.8289,2.8669,2.921,2.9728,3.0248,3.1048,3.1076,3.0382,3.0563,3.0853,3.1017,3.1523,3.1524,3.1615,3.1928,3.2078,3.1691,3.1498,3.1656,3.5628,3.5583,3.5458,3.5173,3.4906,3.5207,3.5173,3.4965,3.5362,3.5577,3.5628,3.5628,3.5628,3.5628,3.5645,3.5695,3.5881,3.6716,3.6922,3.6931,3.7636,3.7935,3.7398,3.7423,3.7055,3.6321,3.6322,3.6086,3.562,3.5489,3.5489,3.5489,3.5489,3.5489,3.5489,3.5489,3.5489,3.5489,3.5489,3.5489,3.5489,3.5489,3.5489,3.5489,3.5489,3.5489,3.5444,3.5086,3.4817,3.4592,3.4203,3.4009,3.4533,3.4578,3.4323,3.4068,3.4428,3.4622,3.4712,3.4727,3.4772,3.4712,3.4697,3.4428,3.4039,3.3604,3.2991,3.2766,3.2706,3.2991,3.3484,3.3095,3.314,3.3275,3.2677,3.1899,3.2257,3.2122,3.16,3.1496,3.1496,3.1496,3.1496,3.1496,3.1496,3.1496,3.1496,3.1496,3.1496,3.1496,3.1377,3.0915,3.051,2.9937,2.9428,2.9383,2.9037,2.9052,2.9713,3.0339,3.0773,3.1295,3.1147,3.1165,3.1538,3.175,3.175,3.1763,3.2032,3.2316,3.2631,3.2825,3.2836,3.2534,3.2397,3.5628,3.5538,3.4976,3.5016,3.5362,3.4988,3.508,3.547,3.5549,3.56,3.5628,3.5628,3.5628,3.5633,3.5667,3.6017,3.6665,3.7374,3.7491,3.7263,3.7991,3.7637,3.6293,3.6504,3.6353,3.5863,3.5733,3.5603,3.5506,3.5489,3.5489,3.5489,3.5489,3.5489,3.5489,3.5489,3.5489,3.5489,3.5489,3.5489,3.5489,3.5489,3.5489,3.5489,3.5489,3.5489,3.5489,3.531,3.528,3.5235,3.4727,3.4757,3.516,3.4802,3.4907,3.5085,3.534,3.537,3.5325,3.5265,3.525,3.5235,3.528,3.5325,3.4831,3.4398,3.3844,3.341,3.338,3.3679,3.4113,3.3754,3.3844,3.3604,3.3095,3.2602,3.2631,3.2062,3.157,3.1496,3.1496,3.1496,3.1496,3.1496,3.1496,3.1496,3.1496,3.1496,3.1421,3.1376,3.0619,2.9954,3.011,2.9656,2.9505,2.9503,2.9582,2.946,3.0294,3.1056,3.1635,3.2043,3.1842,3.1931,3.2318,3.2482,3.2347,3.2436,3.272,3.2931,3.3156,3.3727,3.4333,3.3878,3.3116,3.5628,3.5577,3.5293,3.5328,3.5566,3.5265,3.5328,3.5566,3.5628,3.5628,3.5628,3.5628,3.5628,3.5667,3.6017,3.6462,3.7004,3.7951,3.8359,3.7851,3.8147,3.7743,3.6951,3.6261,3.5702,3.562,3.5489,3.5538,3.5489,3.5489,3.5489,3.5489,3.5489,3.5489,3.5489,3.5489,3.5489,3.5489,3.5489,3.5489,3.5489,3.5489,3.5489,3.5489,3.5489,3.5489,3.5489,3.5489,3.5489,3.5459,3.5145,3.5206,3.5385,3.525,3.5235,3.5385,3.5474,3.5474,3.5474,3.5489,3.5489,3.5489,3.5459,3.5295,3.5012,3.4712,3.4459,3.4113,3.4084,3.4383,3.4741,3.4428,3.4338,3.4054,3.335,3.3051,3.2676,3.1943,3.1496,3.1496,3.1496,3.1496,3.1496,3.1496,3.1496,3.1496,3.1496,3.1496,3.1286,3.1046,2.9981,2.8589,2.9031,2.9473,2.9488,2.952,2.9815,3.0022,3.1166,3.1911,3.2683,3.2958,3.2766,3.2674,3.29,3.2976,3.2931,3.3216,3.3562,3.3607,3.362,3.4213,3.4695,3.4149,3.3602,3.5628,3.5628,3.5628,3.5628,3.5628,3.5628,3.56,3.56,3.5628,3.5628,3.5628,3.5628,3.5628,3.5712,3.618,3.6615,3.7173,3.8239,3.8763,3.8668,3.8382,3.7887,3.7126,3.6243,3.575,3.5489,3.5489,3.5489,3.5489,3.5489,3.5489,3.5489,3.5489,3.5489,3.5489,3.5489,3.5489,3.5489,3.5489,3.5489,3.5489,3.5489,3.5489,3.5489,3.5489,3.5489,3.5489,3.5489,3.5489,3.5489,3.5474,3.5444,3.5474,3.5444,3.5415,3.5489,3.5489,3.5489,3.5489,3.5489,3.5489,3.5489,3.5474,3.534,3.4982,3.4742,3.4742,3.4757,3.4757,3.5026,3.525,3.4966,3.4727,3.4233,3.353,3.3231,3.2811,3.2003,3.1496,3.1496,3.1496,3.1496,3.1496,3.1496,3.1496,3.1496,3.1496,3.1496,3.1241,3.0926,3.0053,2.8806,2.9224,2.9819,2.9879,2.9927,3.0101,3.0594,3.1737,3.2886,3.3712,3.391,3.3724,3.3694,3.368,3.3965,3.4221,3.433,3.4392,3.4252,3.4235,3.4587,3.4743,3.4318,3.4286,3.5628,3.5628,3.5628,3.5628,3.5628,3.5628,3.5628,3.5628,3.5628,3.5628,3.5628,3.5628,3.5628,3.5678,3.5932,3.6654,3.7804,3.7939,3.8514,3.887,3.8756,3.8074,3.7321,3.6692,3.6149,3.5668,3.5538,3.5489,3.5489,3.5489,3.5489,3.5489,3.5489,3.5489,3.5489,3.5489,3.5489,3.5489,3.5489,3.5489,3.5489,3.5489,3.5489,3.5489,3.5489,3.5489,3.5489,3.5489,3.5489,3.5489,3.5489,3.5489,3.5489,3.5489,3.5489,3.5489,3.5489,3.5489,3.5489,3.5489,3.5489,3.5489,3.5489,3.5443,3.5265,3.5355,3.54,3.5325,3.522,3.531,3.5459,3.5368,3.5042,3.4413,3.3649,3.287,3.2467,3.1928,3.1497,3.1496,3.1496,3.1496,3.1496,3.1496,3.1496,3.1496,3.1496,3.1481,3.1284,3.0968,3.0451,2.9817,3.0051,3.0345,3.0508,3.0691,3.1008,3.141,3.2214,3.3593,3.4836,3.4802,3.4503,3.4712,3.4742,3.5116,3.5312,3.5094,3.49,3.4761,3.4806,3.4992,3.5415,3.543,3.5482,3.5628,3.5628,3.5628,3.5628,3.5628,3.5628,3.5628,3.5628,3.5628,3.5628,3.5628,3.5628,3.5628,3.5712,3.6231,3.6891,3.7889,3.8442,3.8958,3.9228,3.9086,3.8564,3.783,3.7083,3.643,3.6086,3.5782,3.5489,3.5489,3.5489,3.5489,3.5489,3.5489,3.5489,3.5489,3.5504,3.5519,3.5519,3.5519,3.5488,3.5489,3.5489,3.5489,3.5489,3.5489,3.5489,3.5489,3.5489,3.5489,3.5489,3.5489,3.5489,3.5489,3.5489,3.5489,3.5489,3.5489,3.5489,3.5489,3.5489,3.5489,3.5489,3.5489,3.5489,3.5489,3.5489,3.5489,3.5489,3.5489,3.5489,3.5489,3.5459,3.5205,3.4547,3.3767,3.2839,3.2258,3.1871,3.1764,3.1882,3.1659,3.1496,3.1496,3.1496,3.1496,3.1496,3.1481,3.1465,3.1283,3.1131,3.0702,3.0555,3.0761,3.0943,3.1106,3.1497,3.1946,3.2363,3.2779,3.4013,3.5244,3.5358,3.5175,3.5459,3.5537,3.5557,3.5528,3.5498,3.5377,3.5163,3.5148,3.5242,3.5721,3.6195,3.6021,3.5628,3.5628,3.5628,3.5628,3.5628,3.5628,3.5628,3.5628,3.5628,3.5628,3.5628,3.5628,3.5628,3.578,3.6129,3.7009,3.7741,3.8413,3.922,3.9539,3.9555,3.9156,3.8539,3.7745,3.6873,3.6538,3.5911,3.5489,3.5489,3.5489,3.5489,3.5489,3.5489,3.5489,3.5489,3.5504,3.5609,3.5744,3.5579,3.5667,3.5744,3.5594,3.5504,3.5489,3.5489,3.5489,3.5489,3.5489,3.5489,3.5489,3.5489,3.5489,3.5489,3.5489,3.5489,3.5489,3.5489,3.5489,3.5489,3.5489,3.5489,3.5489,3.5489,3.5489,3.5489,3.5489,3.5489,3.5489,3.5489,3.5489,3.5489,3.5474,3.5415,3.4861,3.3948,3.3079,3.2691,3.2318,3.2302,3.23,3.2211,3.2362,3.175,3.175,3.1555,3.154,3.1496,3.1495,3.1419,3.1282,3.1146,3.1132,3.1339,3.1523,3.172,3.2258,3.2766,3.3153,3.363,3.4338,3.5185,3.5372,3.5489,3.5489,3.5568,3.5711,3.6061,3.6456,3.6078,3.5538,3.5495,3.5393,3.5457,3.5781,3.5444,3.5628,3.5628,3.5628,3.5628,3.5628,3.5628,3.5628,3.5628,3.5628,3.5628,3.5628,3.5628,3.5628,3.565,3.5881,3.6744,3.7724,3.8108,3.8831,3.9767,3.9927,3.9545,3.8951,3.8173,3.7425,3.6584,3.6023,3.5685,3.5489,3.5489,3.5489,3.5564,3.5609,3.5639,3.5534,3.5534,3.5863,3.6297,3.5878,3.6088,3.6237,3.5938,3.5699,3.5669,3.5534,3.5504,3.5489,3.5489,3.5489,3.5489,3.5489,3.5489,3.5489,3.5489,3.5489,3.5489,3.5489,3.5489,3.5489,3.5489,3.5489,3.5489,3.5489,3.5489,3.5489,3.5489,3.5489,3.5489,3.5489,3.5489,3.5489,3.5489,3.5429,3.5115,3.4203,3.3498,3.3109,3.2856,3.2826,3.3125,3.3563,3.3683,3.2721,3.2048,3.1735,3.16,3.1525,3.148,3.1478,3.1433,3.1327,3.1521,3.1715,3.2181,3.2452,3.3066,3.3589,3.396,3.4363,3.4953,3.5254,3.5416,3.5489,3.5489,3.5841,3.6205,3.6924,3.7622,3.6908,3.6173,3.5624,3.5455,3.545,3.5403,3.5227,3.5628,3.5628,3.5628,3.5628,3.5628,3.5628,3.5628,3.5628,3.5628,3.5628,3.5628,3.5628,3.5628,3.5746,3.6197,3.6874,3.7775,3.8565,3.9305,3.9965,4.0113,3.9982,3.9463,3.8816,3.809,3.7366,3.6646,3.5863,3.5489,3.5489,3.5489,3.5549,3.5938,3.6148,3.6297,3.6477,3.6939,3.7045,3.6896,3.6881,3.6985,3.6522,3.6164,3.6134,3.5759,3.5579,3.5549,3.5564,3.5519,3.5549,3.5564,3.5489,3.5489,3.5489,3.5489,3.5489,3.5489,3.5489,3.5489,3.5489,3.5489,3.5489,3.5489,3.5489,3.5489,3.5489,3.5489,3.5489,3.5489,3.5489,3.5489,3.5489,3.5444,3.5325,3.465,3.3988,3.3554,3.3394,3.3396,3.3985,3.4516,3.4014,3.3231,3.2662,3.2302,3.2004,3.1944,3.1616,3.151,3.148,3.1435,3.1718,3.2017,3.2631,3.3186,3.3724,3.4262,3.4694,3.4933,3.525,3.5459,3.5489,3.5494,3.5497,3.6129,3.677,3.7526,3.7985,3.7435,3.6801,3.6242,3.566,3.5478,3.5476,3.5416,3.5628,3.5628,3.5628,3.5628,3.5628,3.5628,3.5628,3.5628,3.5628,3.5628,3.5628,3.5628,3.5628,3.578,3.6163,3.7054,3.7872,3.8362,3.9305,3.996,4.0113,4.0058,3.9808,3.9319,3.843,3.7761,3.6995,3.6228,3.5522,3.5489,3.5489,3.5699,3.6342,3.6716,3.6926,3.7165,3.7462,3.7539,3.7509,3.7419,3.7449,3.718,3.6686,3.6417,3.6118,3.5895,3.5789,3.5714,3.5624,3.5714,3.5654,3.5519,3.5489,3.5489,3.5489,3.5489,3.5489,3.5489,3.5489,3.5489,3.5489,3.5489,3.5489,3.5489,3.5489,3.5489,3.5489,3.5489,3.5489,3.5489,3.5489,3.5489,3.5459,3.534,3.4949,3.4271,3.4322,3.4177,3.4102,3.4727,3.4923,3.4343,3.3814,3.335,3.2931,3.2647,3.2363,3.2004,3.1631,3.1513,3.1616,3.1929,3.2273,3.2856,3.3558,3.4307,3.4861,3.54,3.5489,3.5489,3.5489,3.5489,3.5497,3.563,3.6352,3.7124,3.8034,3.8275,3.782,3.732,3.6769,3.6212,3.5636,3.5489,3.5489,3.5628,3.5628,3.5628,3.5628,3.5628,3.5628,3.5628,3.5628,3.5628,3.5628,3.5628,3.5628,3.5628,3.5628,3.5695,3.6507,3.7674,3.7978,3.8886,3.9711,3.9999,4.0062,3.9889,3.9398,3.8668,3.7835,3.7085,3.6461,3.5604,3.5489,3.5489,3.5744,3.6537,3.6911,3.712,3.7345,3.7746,3.8108,3.8123,3.8123,3.8212,3.7778,3.73,3.6941,3.6658,3.6522,3.6342,3.6073,3.6043,3.5998,3.5863,3.5609,3.5489,3.5489,3.5489,3.5489,3.5489,3.5489,3.5489,3.5489,3.5489,3.5489,3.5489,3.5489,3.5489,3.5489,3.5489,3.5489,3.5489,3.5489,3.5489,3.5489,3.5489,3.5265,3.4997,3.4895,3.5128,3.51,3.4961,3.5143,3.5335,3.5013,3.4563,3.4084,3.3741,3.3531,3.3231,3.2811,3.2347,3.156,3.1738,3.2168,3.2557,3.3048,3.3795,3.4651,3.507,3.5489,3.5489,3.5489,3.5489,3.5493,3.5489,3.5792,3.6631,3.7485,3.8415,3.8624,3.8321,3.7765,3.6953,3.6274,3.5553,3.5489,3.5489,3.5628,3.5628,3.5628,3.5628,3.5628,3.5628,3.5628,3.5628,3.5628,3.5628,3.5628,3.5628,3.5628,3.5661,3.618,3.6716,3.7393,3.8125,3.878,3.9406,3.9943,4.0045,4.0007,3.9731,3.8944,3.8121,3.7413,3.6723,3.5749,3.5489,3.5489,3.5669,3.6417,3.6731,3.6956,3.721,3.8033,3.8599,3.8569,3.8763,3.8796,3.8422,3.7988,3.7706,3.7317,3.7165,3.6926,3.6462,3.6404,3.6297,3.5833,3.5519,3.5489,3.5489,3.5489,3.5489,3.5489,3.5489,3.5489,3.5489,3.5489,3.5489,3.5489,3.5489,3.5489,3.5489,3.5489,3.5489,3.5489,3.5489,3.5489,3.5489,3.5489,3.534,3.5145,3.5239,3.5427,3.5396,3.5273,3.5317,3.5491,3.5416,3.5013,3.4959,3.463,3.4464,3.4163,3.3727,3.3126,3.2347,3.2065,3.2497,3.3125,3.3707,3.417,3.4937,3.522,3.5489,3.5489,3.5489,3.5489,3.5497,3.5495,3.6184,3.7352,3.8142,3.8838,3.8703,3.8195,3.7544,3.6785,3.6127,3.5602,3.5537,3.5489,3.5628,3.5628,3.5628,3.5628,3.5628,3.5628,3.5628,3.5628,3.5628,3.5628,3.5628,3.5628,3.5628,3.5718,3.6395,3.6998,3.7415,3.8396,3.9153,3.9656,3.9893,4.0028,4.0113,3.9982,3.9102,3.8318,3.7589,3.6951,3.5878,3.5489,3.5489,3.5564,3.6178,3.6417,3.6686,3.7135,3.7749,3.8344,3.8748,3.9107,3.911,3.896,3.8751,3.8395,3.7928,3.7749,3.7357,3.6868,3.6568,3.6402,3.5848,3.5504,3.5489,3.5489,3.5489,3.5489,3.5489,3.5489,3.5489,3.5489,3.5489,3.5489,3.5489,3.5489,3.5489,3.5489,3.5489,3.5489,3.5489,3.5489,3.5489,3.5489,3.5489,3.5474,3.5474,3.5474,3.5491,3.5491,3.5474,3.5474,3.5489,3.5489,3.5449,3.5488,3.5446,3.5123,3.4956,3.4791,3.4114,3.3318,3.2974,3.3095,3.38,3.4459,3.4849,3.5071,3.531,3.5489,3.5489,3.5489,3.5489,3.5625,3.5777,3.6897,3.8325,3.892,3.9325,3.8423,3.7781,3.7138,3.6551,3.595,3.5553,3.5537,3.5489,3.5628,3.5628,3.5628,3.5628,3.5628,3.5628,3.5661,3.5695,3.578,3.5678,3.5645,3.5628,3.5678,3.5949,3.653,3.7207,3.777,3.8628,3.9237,4.0011,4.0045,4.0113,4.0113,4.0007,3.9276,3.8374,3.7589,3.7026,3.591,3.5489,3.5504,3.5549,3.6028,3.6267,3.6342,3.6701,3.715,3.7494,3.7973,3.8362,3.9035,3.917,3.9095,3.8646,3.8424,3.8212,3.7569,3.7015,3.6522,3.6297,3.5938,3.5534,3.5489,3.5489,3.5489,3.5489,3.5489,3.5489,3.5489,3.5489,3.5489,3.5489,3.5489,3.5489,3.5489,3.5489,3.5489,3.5489,3.5489,3.5489,3.5489,3.5489,3.5489,3.5489,3.5489,3.5489,3.5489,3.5489,3.5489,3.5489,3.5489,3.5489,3.5506,3.5499,3.5484,3.5432,3.5417,3.5373,3.5027,3.4185,3.3976,3.3844,3.4353,3.4909,3.4953,3.5176,3.537,3.5489,3.5489,3.5489,3.5489,3.5769,3.6105,3.7433,3.8818,3.9329,3.9501,3.8523,3.7515,3.669,3.6149,3.57,3.5519,3.5672,3.5595,3.5628,3.5628,3.5628,3.5628,3.5628,3.5628,3.5949,3.6496,3.653,3.6163,3.5684,3.5684,3.5983,3.6547,3.6818,3.7393,3.8024,3.8797,3.9056,3.9525,3.9859,4.0113,4.0113,4.0058,3.9437,3.8759,3.7978,3.6921,3.583,3.5489,3.5489,3.5504,3.5789,3.5833,3.5833,3.6148,3.6327,3.6823,3.7062,3.7766,3.8601,3.8766,3.8661,3.8913,3.9047,3.8721,3.8123,3.7539,3.6971,3.6507,3.5848,3.5564,3.5489,3.5489,3.5489,3.5489,3.5489,3.5489,3.5489,3.5489,3.5489,3.5489,3.5489,3.5489,3.5489,3.5489,3.5489,3.5489,3.5489,3.5489,3.5489,3.5489,3.5489,3.5489,3.5489,3.5489,3.5489,3.5489,3.5489,3.5489,3.5489,3.5489,3.5489,3.5489,3.5489,3.5489,3.5474,3.5461,3.5446,3.4964,3.4874,3.4801,3.4981,3.5311,3.5265,3.525,3.5429,3.5489,3.5489,3.5489,3.5489,3.6367,3.7178,3.8092,3.912,3.9338,3.9165,3.8387,3.7397,3.6537,3.5963,3.5618,3.6068,3.6344,3.6053,3.5628,3.5628,3.5628,3.5628,3.5628,3.5628,3.5847,3.6265,3.6631,3.6547,3.6248,3.6473,3.6879,3.7393,3.7613,3.7867,3.8481,3.9169,3.9508,3.9711,3.9791,4.0028,4.0113,4.0058,3.9183,3.8497,3.7264,3.618,3.5587,3.5489,3.5489,3.5504,3.5504,3.5553,3.5537,3.558,3.5881,3.6493,3.654,3.7225,3.8257,3.8452,3.8751,3.9197,3.9302,3.9005,3.8556,3.7973,3.7554,3.6941,3.6327,3.5774,3.5609,3.5489,3.5489,3.5489,3.5489,3.5489,3.5489,3.5489,3.5489,3.5489,3.5489,3.5489,3.5489,3.5489,3.5489,3.5489,3.5489,3.5489,3.5489,3.5489,3.5489,3.5489,3.5489,3.5489,3.5489,3.5489,3.5489,3.5489,3.5489,3.5489,3.5489,3.5489,3.5489,3.5489,3.5489,3.5489,3.5489,3.5489,3.5489,3.5489,3.5489,3.5489,3.5415,3.54,3.5459,3.5489,3.5489,3.5554,3.5748,3.7183,3.8332,3.8722,3.8888,3.8827,3.8498,3.7836,3.7326,3.6553,3.6038,3.561,3.6251,3.6972,3.7079,3.5628,3.5628,3.5628,3.5628,3.5628,3.5628,3.5785,3.6084,3.6665,3.7122,3.741,3.7956,3.8113,3.8294,3.865,3.892,3.9254,3.966,3.996,4.0011,4.0062,4.0113,4.0113,4.002,3.9116,3.7948,3.6677,3.6053,3.5506,3.5489,3.5504,3.5521,3.5617,3.5714,3.5741,3.5878,3.6308,3.6819,3.7101,3.7364,3.7913,3.8407,3.8826,3.9152,3.9346,3.9032,3.8616,3.8287,3.8003,3.7419,3.6716,3.6103,3.5684,3.5489,3.5489,3.5489,3.5489,3.5489,3.5489,3.5489,3.5489,3.5489,3.5489,3.5489,3.5489,3.5489,3.5489,3.5489,3.5489,3.5489,3.5489,3.5489,3.5489,3.5489,3.5489,3.5489,3.5489,3.5489,3.5489,3.5489,3.5489,3.5489,3.5489,3.5489,3.5489,3.5489,3.5489,3.5489,3.5489,3.5489,3.5489,3.5489,3.5489,3.5489,3.5489,3.5489,3.5489,3.5489,3.5506,3.5603,3.599,3.7115,3.8046,3.861,3.8716,3.8645,3.7997,3.7262,3.6783,3.6491,3.634,3.6124,3.658,3.7317,3.8169,3.5628,3.5628,3.5628,3.5628,3.5628,3.5628,3.6287,3.7352,3.7584,3.8323,3.9034,3.9419,3.9406,3.8768,3.8899,3.9203,3.9728,4.0062,4.0079,4.0096,4.0113,4.0113,3.9982,3.9747,3.9049,3.789,3.6723,3.6133,3.5783,3.5609,3.5552,3.5647,3.6304,3.6676,3.7216,3.7307,3.741,3.7754,3.7605,3.7704,3.8155,3.8589,3.8811,3.9122,3.9391,3.8958,3.8586,3.8407,3.7988,3.7449,3.6911,3.6312,3.5863,3.5624,3.5624,3.5609,3.5594,3.5489,3.5489,3.5489,3.5489,3.5489,3.5489,3.5489,3.5489,3.5489,3.5489,3.5489,3.5489,3.5489,3.5489,3.5489,3.5489,3.5489,3.5489,3.5489,3.5489,3.5489,3.5489,3.5489,3.5489,3.5489,3.5489,3.5489,3.5489,3.5489,3.5489,3.5489,3.5489,3.5489,3.5489,3.5489,3.5489,3.5489,3.5489,3.5489,3.5489,3.5489,3.5603,3.5846,3.6245,3.6847,3.763,3.8361,3.8603,3.8579,3.7798,3.7203,3.666,3.6476,3.663,3.6713,3.7124,3.7688,3.8553]}]]